Time,TemperatureF,DewpointF,PressureIn,WindDirection,WindDirectionDegrees,WindSpeedMPH,WindSpeedGustMPH,Humidity,HourlyPrecipIn,Conditions,Clouds,dailyrainin,SolarRadiationWatts/m^2,SoftwareType,DateUTC
2013-04-18 00:00:00,69.2,65.5,30.10,ENE,57,3.0,5.0,88,0.00,,---,0.01,0.00,VWS V14.00,2013-04-18 04:00:00,
2013-04-18 00:01:00,69.2,65.5,30.10,ENE,57,1.0,2.0,88,0.00,,---,0.00,0.00,VWS V14.00,2013-04-18 04:01:00,
2013-04-18 00:02:00,69.2,65.5,30.10,ENE,57,2.0,2.0,88,0.00,,---,0.00,0.00,VWS V14.00,2013-04-18 04:02:00,
2013-04-18 00:03:00,69.2,65.5,30.10,ENE,57,2.0,2.0,88,0.00,,---,0.00,0.00,VWS V14.00,2013-04-18 04:03:00,
2013-04-18 00:04:00,69.2,65.5,30.10,ENE,57,2.0,3.0,88,0.00,,---,0.00,0.00,VWS V14.00,2013-04-18 04:04:00,
2013-04-18 00:05:00,69.2,65.5,30.10,ENE,57,3.0,3.0,88,0.00,,---,0.00,0.00,VWS V14.00,2013-04-18 04:05:00,
2013-04-18 00:06:00,69.1,65.1,30.10,ENE,57,2.0,4.0,87,0.00,,---,0.00,0.00,VWS V14.00,2013-04-18 04:06:00,
2013-04-18 00:07:00,69.1,65.1,30.10,ENE,57,3.0,4.0,87,0.00,,---,0.00,0.00,VWS V14.00,2013-04-18 04:07:00,
2013-04-18 00:08:00,69.1,65.1,30.10,ENE,57,1.0,4.0,87,0.00,,---,0.00,0.00,VWS V14.00,2013-04-18 04:08:00,
2013-04-18 00:09:00,69.1,65.1,30.10,ENE,57,3.0,4.0,87,0.00,,---,0.00,0.00,VWS V14.00,2013-04-18 04:09:00,
2013-04-18 00:10:00,69.1,65.4,30.10,ENE,57,2.0,4.0,88,0.00,,---,0.00,0.00,VWS V14.00,2013-04-18 04:10:00,
2013-04-18 00:11:00,69.1,65.4,30.10,ENE,57,3.0,4.0,88,0.00,,---,0.00,0.00,VWS V14.00,2013-04-18 04:11:00,
2013-04-18 00:12:00,69.1,65.4,30.10,ENE,57,4.0,4.0,88,0.00,,---,0.00,0.00,VWS V14.00,2013-04-18 04:12:00,
2013-04-18 00:13:00,69.1,65.1,30.10,ENE,57,2.0,4.0,87,0.00,,---,0.00,0.00,VWS V14.00,2013-04-18 04:13:00,
2013-04-18 00:14:00,69.1,65.1,30.10,ENE,57,2.0,4.0,87,0.00,,---,0.00,0.00,VWS V14.00,2013-04-18 04:14:00,
2013-04-18 00:15:00,69.1,65.1,30.10,ENE,57,3.0,4.0,87,0.00,,---,0.00,0.00,VWS V14.00,2013-04-18 04:15:00,
2013-04-18 00:16:00,69.1,65.1,30.10,ENE,57,4.0,4.0,87,0.00,,---,0.00,0.00,VWS V14.00,2013-04-18 04:16:00,
2013-04-18 00:17:00,69.1,65.1,30.10,ENE,57,3.0,4.0,87,0.00,,---,0.00,0.00,VWS V14.00,2013-04-18 04:17:00,
2013-04-18 00:18:00,69.1,65.1,30.10,ENE,57,4.0,4.0,87,0.00,,---,0.00,0.00,VWS V14.00,2013-04-18 04:18:00,
2013-04-18 00:19:00,69.1,65.1,30.09,ENE,57,4.0,4.0,87,0.00,,---,0.00,0.00,VWS V14.00,2013-04-18 04:19:00,
2013-04-18 00:20:00,69.1,65.1,30.09,ENE,57,3.0,4.0,87,0.00,,---,0.00,0.00,VWS V14.00,2013-04-18 04:20:00,
2013-04-18 00:21:00,69.1,65.1,30.09,ENE,57,3.0,4.0,87,0.00,,---,0.00,0.00,VWS V14.00,2013-04-18 04:21:00,
2013-04-18 00:22:00,69.1,65.1,30.09,ENE,57,4.0,5.0,87,0.00,,---,0.00,0.00,VWS V14.00,2013-04-18 04:22:00,
2013-04-18 00:23:00,69.1,65.1,30.09,ENE,57,3.0,5.0,87,0.00,,---,0.00,0.00,VWS V14.00,2013-04-18 04:23:00,
2013-04-18 00:24:00,69.1,65.4,30.09,ENE,57,4.0,5.0,88,0.00,,---,0.00,0.00,VWS V14.00,2013-04-18 04:24:00,
2013-04-18 00:25:00,69.2,65.5,30.09,ENE,57,4.0,5.0,88,0.00,,---,0.00,0.00,VWS V14.00,2013-04-18 04:25:00,
2013-04-18 00:26:00,69.1,65.1,30.09,ENE,57,3.0,5.0,87,0.00,,---,0.00,0.00,VWS V14.00,2013-04-18 04:26:00,
2013-04-18 00:27:00,69.1,65.1,30.09,ENE,57,4.0,5.0,87,0.00,,---,0.00,0.00,VWS V14.00,2013-04-18 04:27:00,
2013-04-18 00:28:00,69.1,65.4,30.09,ENE,57,3.0,5.0,88,0.00,,---,0.00,0.00,VWS V14.00,2013-04-18 04:28:00,
2013-04-18 00:29:00,69.2,65.5,30.09,ENE,57,3.0,5.0,88,0.00,,---,0.00,0.00,VWS V14.00,2013-04-18 04:29:00,
2013-04-18 00:30:00,69.1,65.4,30.09,ENE,57,3.0,5.0,88,0.00,,---,0.00,0.00,VWS V14.00,2013-04-18 04:30:00,
2013-04-18 00:31:00,69.1,65.1,30.09,ENE,57,3.0,4.0,87,0.00,,---,0.00,0.00,VWS V14.00,2013-04-18 04:31:00,
2013-04-18 00:32:00,69.1,65.1,30.09,ENE,57,3.0,4.0,87,0.00,,---,0.00,0.00,VWS V14.00,2013-04-18 04:32:00,
2013-04-18 00:33:00,69.1,65.4,30.09,ENE,57,4.0,4.0,88,0.00,,---,0.00,0.00,VWS V14.00,2013-04-18 04:33:00,
2013-04-18 00:34:00,69.1,65.4,30.09,ENE,57,2.0,4.0,88,0.00,,---,0.00,0.00,VWS V14.00,2013-04-18 04:34:00,
2013-04-18 00:35:00,69.1,65.4,30.09,ENE,57,3.0,4.0,88,0.00,,---,0.00,0.00,VWS V14.00,2013-04-18 04:35:00,
2013-04-18 00:36:00,69.1,65.4,30.09,ENE,57,3.0,4.0,88,0.00,,---,0.00,0.00,VWS V14.00,2013-04-18 04:36:00,
2013-04-18 00:37:00,69.2,65.5,30.09,ENE,57,4.0,4.0,88,0.00,,---,0.00,0.00,VWS V14.00,2013-04-18 04:37:00,
2013-04-18 00:38:00,69.1,65.4,30.09,ENE,57,3.0,4.0,88,0.00,,---,0.00,0.00,VWS V14.00,2013-04-18 04:38:00,
2013-04-18 00:39:00,69.1,65.4,30.09,ENE,57,3.0,4.0,88,0.00,,---,0.00,0.00,VWS V14.00,2013-04-18 04:39:00,
2013-04-18 00:40:00,69.1,65.4,30.09,ENE,57,3.0,4.0,88,0.00,,---,0.00,0.00,VWS V14.00,2013-04-18 04:40:00,
2013-04-18 00:41:00,69.1,65.4,30.09,ENE,57,3.0,4.0,88,0.00,,---,0.00,0.00,VWS V14.00,2013-04-18 04:41:00,
2013-04-18 00:42:00,69.1,65.4,30.09,ENE,57,4.0,5.0,88,0.00,,---,0.00,0.00,VWS V14.00,2013-04-18 04:42:00,
2013-04-18 00:43:00,69.1,65.4,30.09,ENE,57,4.0,5.0,88,0.00,,---,0.00,0.00,VWS V14.00,2013-04-18 04:43:00,
2013-04-18 00:44:00,69.1,65.4,30.09,ENE,57,4.0,5.0,88,0.00,,---,0.00,0.00,VWS V14.00,2013-04-18 04:44:00,
2013-04-18 00:45:00,69.1,65.4,30.09,ENE,57,4.0,5.0,88,0.00,,---,0.00,0.00,VWS V14.00,2013-04-18 04:45:00,
2013-04-18 00:46:00,69.1,65.4,30.09,ENE,57,4.0,5.0,88,0.00,,---,0.00,0.00,VWS V14.00,2013-04-18 04:46:00,
2013-04-18 00:47:00,69.0,65.3,30.09,ENE,57,4.0,5.0,88,0.00,,---,0.00,0.00,VWS V14.00,2013-04-18 04:47:00,
2013-04-18 00:48:00,69.0,65.3,30.09,ENE,57,4.0,5.0,88,0.00,,---,0.00,0.00,VWS V14.00,2013-04-18 04:48:00,
2013-04-18 00:49:00,69.1,65.4,30.09,ENE,57,4.0,5.0,88,0.00,,---,0.00,0.00,VWS V14.00,2013-04-18 04:49:00,
2013-04-18 00:50:00,69.0,65.3,30.09,ENE,57,3.0,5.0,88,0.00,,---,0.00,0.00,VWS V14.00,2013-04-18 04:50:00,
2013-04-18 00:51:00,69.0,65.3,30.09,ENE,57,2.0,5.0,88,0.00,,---,0.00,0.00,VWS V14.00,2013-04-18 04:51:00,
2013-04-18 00:52:00,69.0,65.3,30.09,ENE,57,3.0,5.0,88,0.00,,---,0.00,0.00,VWS V14.00,2013-04-18 04:52:00,
2013-04-18 00:53:00,69.0,65.3,30.09,ENE,57,2.0,5.0,88,0.00,,---,0.00,0.00,VWS V14.00,2013-04-18 04:53:00,
2013-04-18 00:54:00,69.0,65.3,30.09,ENE,57,3.0,5.0,88,0.00,,---,0.00,0.00,VWS V14.00,2013-04-18 04:54:00,
2013-04-18 00:55:00,69.0,65.3,30.09,ENE,57,4.0,5.0,88,0.00,,---,0.00,0.00,VWS V14.00,2013-04-18 04:55:00,
2013-04-18 00:56:00,69.0,65.3,30.09,ENE,57,4.0,5.0,88,0.00,,---,0.00,0.00,VWS V14.00,2013-04-18 04:56:00,
2013-04-18 00:57:00,69.0,65.3,30.09,ENE,57,3.0,5.0,88,0.00,,---,0.00,0.00,VWS V14.00,2013-04-18 04:57:00,
2013-04-18 00:58:00,69.0,65.3,30.09,ENE,58,6.0,6.0,88,0.00,,---,0.00,0.00,VWS V14.00,2013-04-18 04:58:00,
2013-04-18 00:59:00,69.0,65.3,30.09,ENE,58,4.0,6.0,88,0.00,,---,0.00,0.00,VWS V14.00,2013-04-18 04:59:00,
2013-04-18 01:00:00,69.0,65.3,30.09,ENE,58,5.0,6.0,88,0.00,,---,0.00,0.00,VWS V14.00,2013-04-18 05:00:00,
2013-04-18 01:01:00,69.0,65.3,30.09,ENE,58,5.0,5.0,88,0.00,,---,0.00,0.00,VWS V14.00,2013-04-18 05:01:00,
2013-04-18 01:02:00,69.0,65.3,30.09,ENE,58,5.0,5.0,88,0.00,,---,0.00,0.00,VWS V14.00,2013-04-18 05:02:00,
2013-04-18 01:03:00,68.9,65.2,30.09,ENE,58,5.0,5.0,88,0.00,,---,0.00,0.00,VWS V14.00,2013-04-18 05:03:00,
2013-04-18 01:04:00,68.9,65.2,30.08,ENE,58,4.0,5.0,88,0.00,,---,0.00,0.00,VWS V14.00,2013-04-18 05:04:00,
2013-04-18 01:05:00,68.9,65.2,30.08,ENE,58,5.0,5.0,88,0.00,,---,0.00,0.00,VWS V14.00,2013-04-18 05:05:00,
2013-04-18 01:06:00,68.9,65.2,30.08,ENE,58,5.0,5.0,88,0.00,,---,0.00,0.00,VWS V14.00,2013-04-18 05:06:00,
2013-04-18 01:07:00,68.8,65.1,30.08,ENE,58,5.0,5.0,88,0.00,,---,0.00,0.00,VWS V14.00,2013-04-18 05:07:00,
2013-04-18 01:08:00,68.8,65.1,30.08,ENE,58,5.0,5.0,88,0.00,,---,0.00,0.00,VWS V14.00,2013-04-18 05:08:00,
2013-04-18 01:09:00,68.8,65.1,30.08,ENE,58,4.0,5.0,88,0.00,,---,0.00,0.00,VWS V14.00,2013-04-18 05:09:00,
2013-04-18 01:10:00,68.8,65.1,30.08,ENE,58,5.0,5.0,88,0.00,,---,0.00,0.00,VWS V14.00,2013-04-18 05:10:00,
2013-04-18 01:11:00,68.8,65.1,30.08,ENE,58,4.0,5.0,88,0.00,,---,0.00,0.00,VWS V14.00,2013-04-18 05:11:00,
2013-04-18 01:12:00,68.8,65.4,30.08,ENE,58,4.0,5.0,89,0.00,,---,0.00,0.00,VWS V14.00,2013-04-18 05:12:00,
2013-04-18 01:13:00,68.8,65.1,30.08,ENE,58,4.0,5.0,88,0.00,,---,0.00,0.00,VWS V14.00,2013-04-18 05:13:00,
2013-04-18 01:14:00,68.7,65.0,30.08,ENE,58,3.0,5.0,88,0.00,,---,0.00,0.00,VWS V14.00,2013-04-18 05:14:00,
2013-04-18 01:15:00,68.7,65.0,30.08,ENE,58,4.0,5.0,88,0.00,,---,0.00,0.00,VWS V14.00,2013-04-18 05:15:00,
2013-04-18 01:16:00,68.8,65.4,30.08,ENE,58,5.0,5.0,89,0.00,,---,0.00,0.00,VWS V14.00,2013-04-18 05:16:00,
2013-04-18 01:17:00,68.7,65.3,30.08,ENE,58,4.0,5.0,89,0.00,,---,0.00,0.00,VWS V14.00,2013-04-18 05:17:00,
2013-04-18 01:18:00,68.7,65.3,30.08,ENE,58,4.0,5.0,89,0.00,,---,0.00,0.00,VWS V14.00,2013-04-18 05:18:00,
2013-04-18 01:19:00,68.7,65.3,30.08,ENE,58,4.0,5.0,89,0.00,,---,0.00,0.00,VWS V14.00,2013-04-18 05:19:00,
2013-04-18 01:20:00,68.7,65.3,30.08,ENE,58,4.0,5.0,89,0.00,,---,0.00,0.00,VWS V14.00,2013-04-18 05:20:00,
2013-04-18 01:21:00,68.7,65.3,30.08,ENE,58,4.0,5.0,89,0.00,,---,0.00,0.00,VWS V14.00,2013-04-18 05:21:00,
2013-04-18 01:22:00,68.7,65.3,30.08,ENE,58,3.0,5.0,89,0.00,,---,0.00,0.00,VWS V14.00,2013-04-18 05:22:00,
2013-04-18 01:23:00,68.7,65.3,30.07,ENE,58,3.0,5.0,89,0.00,,---,0.00,0.00,VWS V14.00,2013-04-18 05:23:00,
2013-04-18 01:24:00,68.7,65.3,30.07,ENE,58,4.0,5.0,89,0.00,,---,0.00,0.00,VWS V14.00,2013-04-18 05:24:00,
2013-04-18 01:25:00,68.7,65.3,30.07,ENE,58,4.0,5.0,89,0.00,,---,0.00,0.00,VWS V14.00,2013-04-18 05:25:00,
2013-04-18 01:26:00,68.7,65.3,30.07,ENE,58,4.0,5.0,89,0.00,,---,0.00,0.00,VWS V14.00,2013-04-18 05:26:00,
2013-04-18 01:27:00,68.7,65.3,30.07,ENE,58,4.0,5.0,89,0.00,,---,0.00,0.00,VWS V14.00,2013-04-18 05:27:00,
2013-04-18 01:28:00,68.6,65.2,30.07,ENE,58,4.0,5.0,89,0.00,,---,0.00,0.00,VWS V14.00,2013-04-18 05:28:00,
2013-04-18 01:29:00,68.6,65.2,30.07,ENE,58,4.0,5.0,89,0.00,,---,0.00,0.00,VWS V14.00,2013-04-18 05:29:00,
2013-04-18 01:30:00,68.6,65.2,30.07,ENE,58,5.0,6.0,89,0.00,,---,0.00,0.00,VWS V14.00,2013-04-18 05:30:00,
2013-04-18 01:31:00,68.6,65.2,30.07,ENE,58,4.0,6.0,89,0.00,,---,0.00,0.00,VWS V14.00,2013-04-18 05:31:00,
2013-04-18 01:32:00,68.6,65.2,30.07,ENE,58,5.0,6.0,89,0.00,,---,0.00,0.00,VWS V14.00,2013-04-18 05:32:00,
2013-04-18 01:33:00,68.6,65.2,30.07,ENE,58,4.0,6.0,89,0.00,,---,0.00,0.00,VWS V14.00,2013-04-18 05:33:00,
2013-04-18 01:34:00,68.5,65.1,30.07,ENE,58,5.0,6.0,89,0.00,,---,0.00,0.00,VWS V14.00,2013-04-18 05:34:00,
2013-04-18 01:35:00,68.5,65.1,30.07,ENE,58,4.0,6.0,89,0.00,,---,0.00,0.00,VWS V14.00,2013-04-18 05:35:00,
2013-04-18 01:36:00,68.5,65.1,30.07,ENE,58,3.0,6.0,89,0.00,,---,0.00,0.00,VWS V14.00,2013-04-18 05:36:00,
2013-04-18 01:37:00,68.5,65.1,30.07,ENE,58,5.0,6.0,89,0.00,,---,0.00,0.00,VWS V14.00,2013-04-18 05:37:00,
2013-04-18 01:38:00,68.4,65.0,30.07,ENE,58,5.0,6.0,89,0.00,,---,0.00,0.00,VWS V14.00,2013-04-18 05:38:00,
2013-04-18 01:39:00,68.4,65.0,30.07,ENE,58,4.0,6.0,89,0.00,,---,0.00,0.00,VWS V14.00,2013-04-18 05:39:00,
2013-04-18 01:40:00,68.4,65.0,30.07,ENE,58,4.0,6.0,89,0.00,,---,0.00,0.00,VWS V14.00,2013-04-18 05:40:00,
2013-04-18 01:41:00,68.4,65.0,30.07,ENE,58,5.0,6.0,89,0.00,,---,0.00,0.00,VWS V14.00,2013-04-18 05:41:00,
2013-04-18 01:42:00,68.5,65.1,30.07,ENE,58,4.0,6.0,89,0.00,,---,0.00,0.00,VWS V14.00,2013-04-18 05:42:00,
2013-04-18 01:43:00,68.5,65.1,30.07,ENE,58,5.0,6.0,89,0.00,,---,0.00,0.00,VWS V14.00,2013-04-18 05:43:00,
2013-04-18 01:44:00,68.5,65.1,30.07,ENE,59,4.0,6.0,89,0.00,,---,0.00,0.00,VWS V14.00,2013-04-18 05:44:00,
2013-04-18 01:45:00,68.5,65.1,30.07,ENE,59,4.0,6.0,89,0.00,,---,0.00,0.00,VWS V14.00,2013-04-18 05:45:00,
2013-04-18 01:46:00,68.5,65.1,30.07,ENE,60,5.0,6.0,89,0.00,,---,0.00,0.00,VWS V14.00,2013-04-18 05:46:00,
2013-04-18 01:47:00,68.5,65.1,30.07,ENE,61,5.0,6.0,89,0.00,,---,0.00,0.00,VWS V14.00,2013-04-18 05:47:00,
2013-04-18 01:48:00,68.5,65.1,30.07,ENE,63,6.0,6.0,89,0.00,,---,0.00,0.00,VWS V14.00,2013-04-18 05:48:00,
2013-04-18 01:49:00,68.4,65.0,30.06,ENE,64,5.0,7.0,89,0.00,,---,0.00,0.00,VWS V14.00,2013-04-18 05:49:00,
2013-04-18 01:50:00,68.4,65.0,30.06,ENE,64,6.0,7.0,89,0.00,,---,0.00,0.00,VWS V14.00,2013-04-18 05:50:00,
2013-04-18 01:51:00,68.4,65.0,30.06,ENE,65,6.0,7.0,89,0.00,,---,0.00,0.00,VWS V14.00,2013-04-18 05:51:00,
2013-04-18 01:52:00,68.3,64.9,30.06,ENE,65,5.0,7.0,89,0.00,,---,0.00,0.00,VWS V14.00,2013-04-18 05:52:00,
2013-04-18 01:53:00,68.4,65.0,30.06,ENE,65,6.0,7.0,89,0.00,,---,0.00,0.00,VWS V14.00,2013-04-18 05:53:00,
2013-04-18 01:54:00,68.3,64.9,30.06,ENE,68,6.0,7.0,89,0.00,,---,0.00,0.00,VWS V14.00,2013-04-18 05:54:00,
2013-04-18 01:55:00,68.3,64.9,30.06,ENE,68,5.0,7.0,89,0.00,,---,0.00,0.00,VWS V14.00,2013-04-18 05:55:00,
2013-04-18 01:56:00,68.3,64.9,30.06,ENE,68,6.0,7.0,89,0.00,,---,0.00,0.00,VWS V14.00,2013-04-18 05:56:00,
2013-04-18 01:57:00,68.3,65.3,30.06,ENE,68,5.0,7.0,90,0.00,,---,0.00,0.00,VWS V14.00,2013-04-18 05:57:00,
2013-04-18 01:58:00,68.3,65.3,30.06,ENE,68,6.0,7.0,90,0.00,,---,0.00,0.00,VWS V14.00,2013-04-18 05:58:00,
2013-04-18 01:59:00,68.3,65.3,30.06,ENE,68,5.0,7.0,90,0.00,,---,0.00,0.00,VWS V14.00,2013-04-18 05:59:00,
2013-04-18 02:00:00,68.3,65.3,30.06,ENE,68,5.0,7.0,90,0.00,,---,0.00,0.00,VWS V14.00,2013-04-18 06:00:00,
2013-04-18 02:01:00,68.3,65.3,30.06,ENE,68,4.0,5.0,90,0.00,,---,0.00,0.00,VWS V14.00,2013-04-18 06:01:00,
2013-04-18 02:02:00,68.3,65.3,30.06,ENE,68,4.0,5.0,90,0.00,,---,0.00,0.00,VWS V14.00,2013-04-18 06:02:00,
2013-04-18 02:03:00,68.3,65.3,30.06,ENE,68,4.0,5.0,90,0.00,,---,0.00,0.00,VWS V14.00,2013-04-18 06:03:00,
2013-04-18 02:04:00,68.2,65.2,30.06,ENE,68,4.0,5.0,90,0.00,,---,0.00,0.00,VWS V14.00,2013-04-18 06:04:00,
2013-04-18 02:05:00,68.2,65.2,30.06,ENE,68,4.0,5.0,90,0.00,,---,0.00,0.00,VWS V14.00,2013-04-18 06:05:00,
2013-04-18 02:06:00,68.2,65.2,30.06,ENE,68,4.0,5.0,90,0.00,,---,0.00,0.00,VWS V14.00,2013-04-18 06:06:00,
2013-04-18 02:07:00,68.2,65.2,30.06,ENE,68,4.0,5.0,90,0.00,,---,0.00,0.00,VWS V14.00,2013-04-18 06:07:00,
2013-04-18 02:08:00,68.2,65.2,30.06,ENE,68,4.0,5.0,90,0.00,,---,0.00,0.00,VWS V14.00,2013-04-18 06:08:00,
2013-04-18 02:09:00,68.2,65.2,30.06,ENE,68,4.0,5.0,90,0.00,,---,0.00,0.00,VWS V14.00,2013-04-18 06:09:00,
2013-04-18 02:10:00,68.2,65.2,30.06,ENE,68,5.0,5.0,90,0.00,,---,0.00,0.00,VWS V14.00,2013-04-18 06:10:00,
2013-04-18 02:11:00,68.2,65.2,30.06,ENE,68,3.0,5.0,90,0.00,,---,0.00,0.00,VWS V14.00,2013-04-18 06:11:00,
2013-04-18 02:12:00,68.2,65.2,30.05,ENE,68,5.0,5.0,90,0.00,,---,0.00,0.00,VWS V14.00,2013-04-18 06:12:00,
2013-04-18 02:13:00,68.2,65.2,30.05,ENE,68,3.0,5.0,90,0.00,,---,0.00,0.00,VWS V14.00,2013-04-18 06:13:00,
2013-04-18 02:14:00,68.3,65.3,30.05,ENE,68,4.0,5.0,90,0.00,,---,0.00,0.00,VWS V14.00,2013-04-18 06:14:00,
2013-04-18 02:15:00,68.3,65.3,30.05,ENE,68,4.0,5.0,90,0.00,,---,0.00,0.00,VWS V14.00,2013-04-18 06:15:00,
2013-04-18 02:16:00,68.3,65.3,30.05,ENE,68,3.0,5.0,90,0.00,,---,0.00,0.00,VWS V14.00,2013-04-18 06:16:00,
2013-04-18 02:17:00,68.2,65.2,30.05,ENE,68,2.0,5.0,90,0.00,,---,0.00,0.00,VWS V14.00,2013-04-18 06:17:00,
2013-04-18 02:18:00,68.2,65.2,30.05,ENE,68,2.0,5.0,90,0.00,,---,0.00,0.00,VWS V14.00,2013-04-18 06:18:00,
2013-04-18 02:19:00,68.2,65.2,30.05,ENE,68,4.0,5.0,90,0.00,,---,0.00,0.00,VWS V14.00,2013-04-18 06:19:00,
2013-04-18 02:20:00,68.2,65.2,30.05,ENE,68,4.0,5.0,90,0.00,,---,0.00,0.00,VWS V14.00,2013-04-18 06:20:00,
2013-04-18 02:21:00,68.2,65.2,30.05,ENE,68,3.0,5.0,90,0.00,,---,0.00,0.00,VWS V14.00,2013-04-18 06:21:00,
2013-04-18 02:22:00,68.2,65.2,30.05,ENE,68,2.0,5.0,90,0.00,,---,0.00,0.00,VWS V14.00,2013-04-18 06:22:00,
2013-04-18 02:23:00,68.2,65.2,30.05,ENE,68,3.0,5.0,90,0.00,,---,0.00,0.00,VWS V14.00,2013-04-18 06:23:00,
2013-04-18 02:24:00,68.2,65.2,30.05,ENE,68,2.0,5.0,90,0.00,,---,0.00,0.00,VWS V14.00,2013-04-18 06:24:00,
2013-04-18 02:25:00,68.2,65.2,30.05,ENE,68,3.0,5.0,90,0.00,,---,0.00,0.00,VWS V14.00,2013-04-18 06:25:00,
2013-04-18 02:26:00,68.2,65.2,30.05,ENE,68,2.0,5.0,90,0.00,,---,0.00,0.00,VWS V14.00,2013-04-18 06:26:00,
2013-04-18 02:27:00,68.2,65.2,30.05,ENE,68,3.0,5.0,90,0.00,,---,0.00,0.00,VWS V14.00,2013-04-18 06:27:00,
2013-04-18 02:28:00,68.1,65.1,30.05,ENE,68,2.0,5.0,90,0.00,,---,0.00,0.00,VWS V14.00,2013-04-18 06:28:00,
2013-04-18 02:29:00,68.2,65.2,30.05,ENE,68,3.0,5.0,90,0.00,,---,0.00,0.00,VWS V14.00,2013-04-18 06:29:00,
2013-04-18 02:30:00,68.2,65.2,30.05,ENE,68,2.0,5.0,90,0.00,,---,0.00,0.00,VWS V14.00,2013-04-18 06:30:00,
2013-04-18 02:31:00,68.1,65.1,30.04,ENE,68,2.0,3.0,90,0.00,,---,0.00,0.00,VWS V14.00,2013-04-18 06:31:00,
2013-04-18 02:32:00,68.2,65.2,30.04,ENE,68,2.0,3.0,90,0.00,,---,0.00,0.00,VWS V14.00,2013-04-18 06:32:00,
2013-04-18 02:33:00,68.2,65.2,30.04,ENE,68,3.0,3.0,90,0.00,,---,0.00,0.00,VWS V14.00,2013-04-18 06:33:00,
2013-04-18 02:34:00,68.2,65.2,30.05,ENE,68,2.0,3.0,90,0.00,,---,0.00,0.00,VWS V14.00,2013-04-18 06:34:00,
2013-04-18 02:35:00,68.1,65.1,30.05,ENE,68,2.0,3.0,90,0.00,,---,0.00,0.00,VWS V14.00,2013-04-18 06:35:00,
2013-04-18 02:36:00,68.1,65.1,30.04,ENE,68,2.0,3.0,90,0.00,,---,0.00,0.00,VWS V14.00,2013-04-18 06:36:00,
2013-04-18 02:37:00,68.1,65.1,30.04,ENE,68,2.0,3.0,90,0.00,,---,0.00,0.00,VWS V14.00,2013-04-18 06:37:00,
2013-04-18 02:38:00,68.1,65.1,30.04,ENE,68,1.0,3.0,90,0.00,,---,0.00,0.00,VWS V14.00,2013-04-18 06:38:00,
2013-04-18 02:39:00,68.1,65.1,30.04,ENE,68,2.0,3.0,90,0.00,,---,0.00,0.00,VWS V14.00,2013-04-18 06:39:00,
2013-04-18 02:40:00,68.1,65.1,30.04,ENE,68,2.0,3.0,90,0.00,,---,0.00,0.00,VWS V14.00,2013-04-18 06:40:00,
2013-04-18 02:41:00,68.1,65.1,30.04,ENE,68,2.0,3.0,90,0.00,,---,0.00,0.00,VWS V14.00,2013-04-18 06:41:00,
2013-04-18 02:42:00,68.1,65.1,30.04,ENE,68,1.0,3.0,90,0.00,,---,0.00,0.00,VWS V14.00,2013-04-18 06:42:00,
2013-04-18 02:43:00,68.1,65.1,30.04,ENE,68,2.0,3.0,90,0.00,,---,0.00,0.00,VWS V14.00,2013-04-18 06:43:00,
2013-04-18 02:44:00,68.0,65.0,30.04,ENE,68,2.0,3.0,90,0.00,,---,0.00,0.00,VWS V14.00,2013-04-18 06:44:00,
2013-04-18 02:45:00,68.0,65.0,30.04,ENE,68,3.0,3.0,90,0.00,,---,0.00,0.00,VWS V14.00,2013-04-18 06:45:00,
2013-04-18 02:46:00,68.1,65.1,30.04,ENE,68,2.0,3.0,90,0.00,,---,0.00,0.00,VWS V14.00,2013-04-18 06:46:00,
2013-04-18 02:47:00,68.1,65.1,30.05,ENE,68,2.0,3.0,90,0.00,,---,0.00,0.00,VWS V14.00,2013-04-18 06:47:00,
2013-04-18 02:48:00,68.1,65.1,30.05,ENE,68,2.0,3.0,90,0.00,,---,0.00,0.00,VWS V14.00,2013-04-18 06:48:00,
2013-04-18 02:49:00,68.1,65.1,30.05,ENE,68,2.0,3.0,90,0.00,,---,0.00,0.00,VWS V14.00,2013-04-18 06:49:00,
2013-04-18 02:50:00,68.0,65.0,30.05,ENE,68,2.0,3.0,90,0.00,,---,0.00,0.00,VWS V14.00,2013-04-18 06:50:00,
2013-04-18 02:51:00,68.1,65.1,30.05,ENE,68,2.0,3.0,90,0.00,,---,0.00,0.00,VWS V14.00,2013-04-18 06:51:00,
2013-04-18 02:52:00,68.0,65.0,30.05,ENE,68,1.0,3.0,90,0.00,,---,0.00,0.00,VWS V14.00,2013-04-18 06:52:00,
2013-04-18 02:53:00,68.0,65.0,30.05,ENE,68,2.0,3.0,90,0.00,,---,0.00,0.00,VWS V14.00,2013-04-18 06:53:00,
2013-04-18 02:54:00,68.0,65.0,30.05,ENE,68,2.0,3.0,90,0.00,,---,0.00,0.00,VWS V14.00,2013-04-18 06:54:00,
2013-04-18 02:55:00,68.0,65.0,30.05,ENE,68,1.0,3.0,90,0.00,,---,0.00,0.00,VWS V14.00,2013-04-18 06:55:00,
2013-04-18 02:56:00,68.0,65.0,30.05,ENE,68,2.0,3.0,90,0.00,,---,0.00,0.00,VWS V14.00,2013-04-18 06:56:00,
2013-04-18 02:57:00,68.0,65.0,30.05,ENE,68,1.0,3.0,90,0.00,,---,0.00,0.00,VWS V14.00,2013-04-18 06:57:00,
2013-04-18 02:58:00,68.0,65.0,30.05,ENE,68,1.0,3.0,90,0.00,,---,0.00,0.00,VWS V14.00,2013-04-18 06:58:00,
2013-04-18 02:59:00,68.1,65.1,30.05,ENE,68,0.0,3.0,90,0.00,,---,0.00,0.00,VWS V14.00,2013-04-18 06:59:00,
2013-04-18 03:00:00,68.0,65.0,30.05,ENE,68,0.0,3.0,90,0.00,,---,0.00,0.00,VWS V14.00,2013-04-18 07:00:00,
2013-04-18 03:01:00,68.0,65.0,30.05,ENE,68,0.0,1.0,90,0.00,,---,0.00,0.00,VWS V14.00,2013-04-18 07:01:00,
2013-04-18 03:02:00,68.0,65.0,30.05,ENE,68,0.0,1.0,90,0.00,,---,0.00,0.00,VWS V14.00,2013-04-18 07:02:00,
2013-04-18 03:03:00,68.0,65.0,30.05,ENE,68,0.0,1.0,90,0.00,,---,0.00,0.00,VWS V14.00,2013-04-18 07:03:00,
2013-04-18 03:04:00,68.0,65.0,30.05,ENE,68,0.0,1.0,90,0.00,,---,0.00,0.00,VWS V14.00,2013-04-18 07:04:00,
2013-04-18 03:05:00,68.0,65.0,30.05,ENE,68,0.0,1.0,90,0.00,,---,0.00,0.00,VWS V14.00,2013-04-18 07:05:00,
2013-04-18 03:06:00,68.0,65.0,30.05,ENE,68,0.0,1.0,90,0.00,,---,0.00,0.00,VWS V14.00,2013-04-18 07:06:00,
2013-04-18 03:07:00,68.1,65.1,30.05,ENE,68,0.0,1.0,90,0.00,,---,0.00,0.00,VWS V14.00,2013-04-18 07:07:00,
2013-04-18 03:08:00,68.1,65.1,30.05,ENE,68,0.0,1.0,90,0.00,,---,0.00,0.00,VWS V14.00,2013-04-18 07:08:00,
2013-04-18 03:09:00,68.1,65.1,30.04,ENE,68,0.0,1.0,90,0.00,,---,0.00,0.00,VWS V14.00,2013-04-18 07:09:00,
2013-04-18 03:10:00,68.1,65.1,30.04,ENE,68,0.0,1.0,90,0.00,,---,0.00,0.00,VWS V14.00,2013-04-18 07:10:00,
2013-04-18 03:11:00,68.1,65.1,30.04,ENE,68,0.0,1.0,90,0.00,,---,0.00,0.00,VWS V14.00,2013-04-18 07:11:00,
2013-04-18 03:12:00,68.2,65.2,30.04,ENE,68,0.0,1.0,90,0.00,,---,0.00,0.00,VWS V14.00,2013-04-18 07:12:00,
2013-04-18 03:13:00,68.2,65.2,30.04,ENE,68,0.0,1.0,90,0.00,,---,0.00,0.00,VWS V14.00,2013-04-18 07:13:00,
2013-04-18 03:14:00,68.2,65.5,30.05,ENE,68,0.0,1.0,91,0.00,,---,0.00,0.00,VWS V14.00,2013-04-18 07:14:00,
2013-04-18 03:15:00,68.3,65.3,30.05,ENE,68,0.0,1.0,90,0.00,,---,0.00,0.00,VWS V14.00,2013-04-18 07:15:00,
2013-04-18 03:16:00,68.2,65.2,30.05,ENE,68,0.0,1.0,90,0.00,,---,0.00,0.00,VWS V14.00,2013-04-18 07:16:00,
2013-04-18 03:17:00,68.3,65.3,30.05,ENE,68,0.0,1.0,90,0.00,,---,0.00,0.00,VWS V14.00,2013-04-18 07:17:00,
2013-04-18 03:18:00,68.3,65.3,30.05,ENE,68,0.0,1.0,90,0.00,,---,0.00,0.00,VWS V14.00,2013-04-18 07:18:00,
2013-04-18 03:19:00,68.2,65.2,30.05,ENE,68,0.0,1.0,90,0.00,,---,0.00,0.00,VWS V14.00,2013-04-18 07:19:00,
2013-04-18 03:20:00,68.2,65.2,30.05,ENE,68,0.0,1.0,90,0.00,,---,0.00,0.00,VWS V14.00,2013-04-18 07:20:00,
2013-04-18 03:21:00,68.2,65.2,30.05,ENE,68,0.0,1.0,90,0.00,,---,0.00,0.00,VWS V14.00,2013-04-18 07:21:00,
2013-04-18 03:22:00,68.2,65.2,30.05,ENE,68,1.0,1.0,90,0.00,,---,0.00,0.00,VWS V14.00,2013-04-18 07:22:00,
2013-04-18 03:23:00,68.2,65.2,30.05,ENE,68,1.0,1.0,90,0.00,,---,0.00,0.00,VWS V14.00,2013-04-18 07:23:00,
2013-04-18 03:24:00,68.1,65.1,30.05,ENE,68,0.0,2.0,90,0.00,,---,0.00,0.00,VWS V14.00,2013-04-18 07:24:00,
2013-04-18 03:25:00,68.0,65.0,30.05,ENE,68,0.0,2.0,90,0.00,,---,0.00,0.00,VWS V14.00,2013-04-18 07:25:00,
2013-04-18 03:26:00,68.0,65.0,30.05,ENE,68,0.0,2.0,90,0.00,,---,0.00,0.00,VWS V14.00,2013-04-18 07:26:00,
2013-04-18 03:27:00,67.9,64.9,30.04,ENE,68,0.0,2.0,90,0.00,,---,0.00,0.00,VWS V14.00,2013-04-18 07:27:00,
2013-04-18 03:28:00,67.9,64.9,30.04,ENE,68,0.0,2.0,90,0.00,,---,0.00,0.00,VWS V14.00,2013-04-18 07:28:00,
2013-04-18 03:29:00,67.9,64.9,30.04,ENE,68,0.0,2.0,90,0.00,,---,0.00,0.00,VWS V14.00,2013-04-18 07:29:00,
2013-04-18 03:30:00,67.9,64.9,30.04,ENE,68,0.0,2.0,90,0.00,,---,0.00,0.00,VWS V14.00,2013-04-18 07:30:00,
2013-04-18 03:31:00,67.9,64.9,30.04,ENE,68,0.0,2.0,90,0.00,,---,0.00,0.00,VWS V14.00,2013-04-18 07:31:00,
2013-04-18 03:32:00,67.8,64.8,30.04,ENE,68,0.0,2.0,90,0.00,,---,0.00,0.00,VWS V14.00,2013-04-18 07:32:00,
2013-04-18 03:33:00,67.8,64.8,30.04,ENE,68,0.0,2.0,90,0.00,,---,0.00,0.00,VWS V14.00,2013-04-18 07:33:00,
2013-04-18 03:34:00,67.8,64.8,30.04,ENE,68,0.0,2.0,90,0.00,,---,0.00,0.00,VWS V14.00,2013-04-18 07:34:00,
2013-04-18 03:35:00,67.7,64.7,30.04,ENE,68,0.0,2.0,90,0.00,,---,0.00,0.00,VWS V14.00,2013-04-18 07:35:00,
2013-04-18 03:36:00,67.7,64.7,30.04,ENE,68,0.0,2.0,90,0.00,,---,0.00,0.00,VWS V14.00,2013-04-18 07:36:00,
2013-04-18 03:37:00,67.7,64.7,30.04,ENE,68,0.0,2.0,90,0.00,,---,0.00,0.00,VWS V14.00,2013-04-18 07:37:00,
2013-04-18 03:38:00,67.7,64.7,30.04,ENE,68,0.0,2.0,90,0.00,,---,0.00,0.00,VWS V14.00,2013-04-18 07:38:00,
2013-04-18 03:39:00,67.7,64.7,30.04,ENE,68,0.0,2.0,90,0.00,,---,0.00,0.00,VWS V14.00,2013-04-18 07:39:00,
2013-04-18 03:40:00,67.6,64.6,30.04,ENE,68,0.0,2.0,90,0.00,,---,0.00,0.00,VWS V14.00,2013-04-18 07:40:00,
2013-04-18 03:41:00,67.6,64.6,30.04,ENE,68,0.0,2.0,90,0.00,,---,0.00,0.00,VWS V14.00,2013-04-18 07:41:00,
2013-04-18 03:42:00,67.6,64.6,30.04,ENE,68,0.0,2.0,90,0.00,,---,0.00,0.00,VWS V14.00,2013-04-18 07:42:00,
2013-04-18 03:43:00,67.6,64.6,30.04,ENE,68,0.0,2.0,90,0.00,,---,0.00,0.00,VWS V14.00,2013-04-18 07:43:00,
2013-04-18 03:44:00,67.6,64.9,30.04,ENE,68,0.0,2.0,91,0.00,,---,0.00,0.00,VWS V14.00,2013-04-18 07:44:00,
2013-04-18 03:45:00,67.6,64.9,30.04,ENE,68,0.0,2.0,91,0.00,,---,0.00,0.00,VWS V14.00,2013-04-18 07:45:00,
2013-04-18 03:46:00,67.5,64.8,30.04,ENE,68,0.0,2.0,91,0.00,,---,0.00,0.00,VWS V14.00,2013-04-18 07:46:00,
2013-04-18 03:47:00,67.6,64.9,30.04,ENE,68,0.0,2.0,91,0.00,,---,0.00,0.00,VWS V14.00,2013-04-18 07:47:00,
2013-04-18 03:48:00,67.6,64.9,30.04,ENE,68,0.0,2.0,91,0.00,,---,0.00,0.00,VWS V14.00,2013-04-18 07:48:00,
2013-04-18 03:49:00,67.5,64.8,30.05,ENE,68,0.0,2.0,91,0.00,,---,0.00,0.00,VWS V14.00,2013-04-18 07:49:00,
2013-04-18 03:50:00,67.6,64.9,30.05,ENE,68,0.0,2.0,91,0.00,,---,0.00,0.00,VWS V14.00,2013-04-18 07:50:00,
2013-04-18 03:51:00,67.5,64.8,30.04,ENE,68,0.0,2.0,91,0.00,,---,0.00,0.00,VWS V14.00,2013-04-18 07:51:00,
2013-04-18 03:52:00,67.5,64.8,30.04,ENE,68,2.0,3.0,91,0.00,,---,0.00,0.00,VWS V14.00,2013-04-18 07:52:00,
2013-04-18 03:53:00,67.5,64.8,30.05,ENE,68,2.0,3.0,91,0.00,,---,0.00,0.00,VWS V14.00,2013-04-18 07:53:00,
2013-04-18 03:54:00,67.5,64.8,30.04,ENE,58,3.0,4.0,91,0.00,,---,0.00,0.00,VWS V14.00,2013-04-18 07:54:00,
2013-04-18 03:55:00,67.5,64.8,30.04,ENE,58,3.0,4.0,91,0.00,,---,0.00,0.00,VWS V14.00,2013-04-18 07:55:00,
2013-04-18 03:56:00,67.5,64.8,30.04,ENE,58,2.0,4.0,91,0.00,,---,0.00,0.00,VWS V14.00,2013-04-18 07:56:00,
2013-04-18 03:57:00,67.5,64.8,30.04,ENE,58,2.0,4.0,91,0.00,,---,0.00,0.00,VWS V14.00,2013-04-18 07:57:00,
2013-04-18 03:58:00,67.5,64.8,30.04,ENE,58,1.0,4.0,91,0.00,,---,0.00,0.00,VWS V14.00,2013-04-18 07:58:00,
2013-04-18 03:59:00,67.5,64.8,30.04,ENE,58,1.0,4.0,91,0.00,,---,0.00,0.00,VWS V14.00,2013-04-18 07:59:00,
2013-04-18 04:00:00,67.5,64.8,30.04,ENE,58,1.0,4.0,91,0.00,,---,0.00,0.00,VWS V14.00,2013-04-18 08:00:00,
2013-04-18 04:01:00,67.5,64.8,30.04,ENE,58,2.0,3.0,91,0.00,,---,0.00,0.00,VWS V14.00,2013-04-18 08:01:00,
2013-04-18 04:02:00,67.5,64.8,30.04,ENE,58,3.0,3.0,91,0.00,,---,0.00,0.00,VWS V14.00,2013-04-18 08:02:00,
2013-04-18 04:03:00,67.5,64.8,30.04,ENE,58,3.0,4.0,91,0.00,,---,0.00,0.00,VWS V14.00,2013-04-18 08:03:00,
2013-04-18 04:04:00,67.6,64.9,30.04,ENE,58,4.0,4.0,91,0.00,,---,0.00,0.00,VWS V14.00,2013-04-18 08:04:00,
2013-04-18 04:05:00,67.6,64.9,30.04,NE,56,5.0,5.0,91,0.00,,---,0.00,0.00,VWS V14.00,2013-04-18 08:05:00,
2013-04-18 04:06:00,67.6,64.9,30.04,NE,54,2.0,5.0,91,0.00,,---,0.00,0.00,VWS V14.00,2013-04-18 08:06:00,
2013-04-18 04:07:00,67.6,64.9,30.04,NE,41,5.0,5.0,91,0.00,,---,0.00,0.00,VWS V14.00,2013-04-18 08:07:00,
2013-04-18 04:08:00,67.6,64.9,30.04,NE,41,5.0,5.0,91,0.00,,---,0.00,0.00,VWS V14.00,2013-04-18 08:08:00,
2013-04-18 04:09:00,67.6,64.9,30.04,NE,40,5.0,6.0,91,0.00,,---,0.00,0.00,VWS V14.00,2013-04-18 08:09:00,
2013-04-18 04:10:00,67.6,64.9,30.04,NNE,17,5.0,6.0,91,0.00,,---,0.00,0.00,VWS V14.00,2013-04-18 08:10:00,
2013-04-18 04:11:00,67.6,64.9,30.04,NNE,12,6.0,6.0,91,0.00,,---,0.00,0.00,VWS V14.00,2013-04-18 08:11:00,
2013-04-18 04:12:00,67.5,64.8,30.04,NNE,12,4.0,6.0,91,0.00,,---,0.00,0.00,VWS V14.00,2013-04-18 08:12:00,
2013-04-18 04:13:00,67.5,64.8,30.05,NNE,12,4.0,6.0,91,0.00,,---,0.00,0.00,VWS V14.00,2013-04-18 08:13:00,
2013-04-18 04:14:00,67.5,64.8,30.04,NNE,12,4.0,6.0,91,0.00,,---,0.00,0.00,VWS V14.00,2013-04-18 08:14:00,
2013-04-18 04:15:00,67.4,64.7,30.04,NNE,12,3.0,6.0,91,0.00,,---,0.00,0.00,VWS V14.00,2013-04-18 08:15:00,
2013-04-18 04:16:00,67.4,64.7,30.05,NNE,12,4.0,6.0,91,0.00,,---,0.00,0.00,VWS V14.00,2013-04-18 08:16:00,
2013-04-18 04:17:00,67.4,64.7,30.04,NNE,12,3.0,6.0,91,0.00,,---,0.00,0.00,VWS V14.00,2013-04-18 08:17:00,
2013-04-18 04:18:00,67.3,64.6,30.04,NNE,12,3.0,6.0,91,0.00,,---,0.00,0.00,VWS V14.00,2013-04-18 08:18:00,
2013-04-18 04:19:00,67.3,64.6,30.04,NNE,12,3.0,6.0,91,0.00,,---,0.00,0.00,VWS V14.00,2013-04-18 08:19:00,
2013-04-18 04:20:00,67.2,64.5,30.04,NNE,12,2.0,6.0,91,0.00,,---,0.00,0.00,VWS V14.00,2013-04-18 08:20:00,
2013-04-18 04:21:00,67.2,64.5,30.04,NNE,12,1.0,6.0,91,0.00,,---,0.00,0.00,VWS V14.00,2013-04-18 08:21:00,
2013-04-18 04:22:00,67.2,64.5,30.04,NNE,12,0.0,6.0,91,0.00,,---,0.00,0.00,VWS V14.00,2013-04-18 08:22:00,
2013-04-18 04:23:00,67.2,64.5,30.04,NNE,12,2.0,6.0,91,0.00,,---,0.00,0.00,VWS V14.00,2013-04-18 08:23:00,
2013-04-18 04:24:00,67.2,64.5,30.04,NNE,12,2.0,6.0,91,0.00,,---,0.00,0.00,VWS V14.00,2013-04-18 08:24:00,
2013-04-18 04:25:00,67.2,64.5,30.04,NNE,12,2.0,6.0,91,0.00,,---,0.00,0.00,VWS V14.00,2013-04-18 08:25:00,
2013-04-18 04:26:00,67.2,64.5,30.04,NNE,12,1.0,6.0,91,0.00,,---,0.00,0.00,VWS V14.00,2013-04-18 08:26:00,
2013-04-18 04:27:00,67.1,64.4,30.04,NNE,12,2.0,6.0,91,0.00,,---,0.00,0.00,VWS V14.00,2013-04-18 08:27:00,
2013-04-18 04:28:00,67.1,64.4,30.04,NNE,12,2.0,6.0,91,0.00,,---,0.00,0.00,VWS V14.00,2013-04-18 08:28:00,
2013-04-18 04:29:00,67.1,64.4,30.04,NNE,12,3.0,6.0,91,0.00,,---,0.00,0.00,VWS V14.00,2013-04-18 08:29:00,
2013-04-18 04:30:00,67.1,64.4,30.04,NNE,12,2.0,6.0,91,0.00,,---,0.00,0.00,VWS V14.00,2013-04-18 08:30:00,
2013-04-18 04:31:00,67.1,64.4,30.04,NNE,12,2.0,3.0,91,0.00,,---,0.00,0.00,VWS V14.00,2013-04-18 08:31:00,
2013-04-18 04:32:00,67.1,64.4,30.04,NNE,12,2.0,3.0,91,0.00,,---,0.00,0.00,VWS V14.00,2013-04-18 08:32:00,
2013-04-18 04:33:00,67.1,64.4,30.04,NNE,12,2.0,3.0,91,0.00,,---,0.00,0.00,VWS V14.00,2013-04-18 08:33:00,
2013-04-18 04:34:00,67.0,64.3,30.04,NNE,12,2.0,3.0,91,0.00,,---,0.00,0.00,VWS V14.00,2013-04-18 08:34:00,
2013-04-18 04:35:00,67.0,64.3,30.04,NNE,12,0.0,3.0,91,0.00,,---,0.00,0.00,VWS V14.00,2013-04-18 08:35:00,
2013-04-18 04:36:00,67.0,64.3,30.04,NNE,12,2.0,3.0,91,0.00,,---,0.00,0.00,VWS V14.00,2013-04-18 08:36:00,
2013-04-18 04:37:00,67.0,64.3,30.04,NNE,12,2.0,3.0,91,0.00,,---,0.00,0.00,VWS V14.00,2013-04-18 08:37:00,
2013-04-18 04:38:00,67.0,64.3,30.04,NNE,12,2.0,3.0,91,0.00,,---,0.00,0.00,VWS V14.00,2013-04-18 08:38:00,
2013-04-18 04:39:00,67.0,64.3,30.04,NNE,12,2.0,3.0,91,0.00,,---,0.00,0.00,VWS V14.00,2013-04-18 08:39:00,
2013-04-18 04:40:00,67.0,64.3,30.04,NNE,12,3.0,3.0,91,0.00,,---,0.00,0.00,VWS V14.00,2013-04-18 08:40:00,
2013-04-18 04:41:00,67.0,64.3,30.04,NNE,12,3.0,3.0,91,0.00,,---,0.00,0.00,VWS V14.00,2013-04-18 08:41:00,
2013-04-18 04:42:00,67.0,64.3,30.04,NNE,12,1.0,3.0,91,0.00,,---,0.00,0.00,VWS V14.00,2013-04-18 08:42:00,
2013-04-18 04:43:00,67.0,64.3,30.04,NNE,12,3.0,3.0,91,0.00,,---,0.00,0.00,VWS V14.00,2013-04-18 08:43:00,
2013-04-18 04:44:00,67.0,64.3,30.04,NNE,12,2.0,4.0,91,0.00,,---,0.00,0.00,VWS V14.00,2013-04-18 08:44:00,
2013-04-18 04:45:00,67.0,64.3,30.04,NNE,12,3.0,4.0,91,0.00,,---,0.00,0.00,VWS V14.00,2013-04-18 08:45:00,
2013-04-18 04:46:00,67.0,64.3,30.04,NNE,12,5.0,5.0,91,0.00,,---,0.00,0.00,VWS V14.00,2013-04-18 08:46:00,
2013-04-18 04:47:00,67.0,64.3,30.04,NNE,12,3.0,5.0,91,0.00,,---,0.00,0.00,VWS V14.00,2013-04-18 08:47:00,
2013-04-18 04:48:00,67.0,64.3,30.04,NNE,12,4.0,5.0,91,0.00,,---,0.00,0.00,VWS V14.00,2013-04-18 08:48:00,
2013-04-18 04:49:00,67.0,64.3,30.04,NNE,12,4.0,5.0,91,0.00,,---,0.00,0.00,VWS V14.00,2013-04-18 08:49:00,
2013-04-18 04:50:00,67.0,64.3,30.04,NNE,12,4.0,5.0,91,0.00,,---,0.00,0.00,VWS V14.00,2013-04-18 08:50:00,
2013-04-18 04:51:00,67.0,64.3,30.04,NNE,12,5.0,5.0,91,0.00,,---,0.00,0.00,VWS V14.00,2013-04-18 08:51:00,
2013-04-18 04:52:00,67.0,64.3,30.04,NNE,12,3.0,5.0,91,0.00,,---,0.00,0.00,VWS V14.00,2013-04-18 08:52:00,
2013-04-18 04:53:00,66.9,64.2,30.04,NNE,12,3.0,5.0,91,0.00,,---,0.00,0.00,VWS V14.00,2013-04-18 08:53:00,
2013-04-18 04:54:00,66.9,64.2,30.04,NNE,12,3.0,5.0,91,0.00,,---,0.00,0.00,VWS V14.00,2013-04-18 08:54:00,
2013-04-18 04:55:00,66.9,64.2,30.04,NNE,12,1.0,5.0,91,0.00,,---,0.00,0.00,VWS V14.00,2013-04-18 08:55:00,
2013-04-18 04:56:00,66.8,64.1,30.04,NNE,12,4.0,5.0,91,0.00,,---,0.00,0.00,VWS V14.00,2013-04-18 08:56:00,
2013-04-18 04:57:00,66.8,64.1,30.04,NNE,12,3.0,5.0,91,0.00,,---,0.00,0.00,VWS V14.00,2013-04-18 08:57:00,
2013-04-18 04:58:00,66.8,64.1,30.04,NNE,12,1.0,5.0,91,0.00,,---,0.00,0.00,VWS V14.00,2013-04-18 08:58:00,
2013-04-18 04:59:00,66.8,64.1,30.04,NNE,12,1.0,5.0,91,0.00,,---,0.00,0.00,VWS V14.00,2013-04-18 08:59:00,
2013-04-18 05:00:00,66.7,64.0,30.04,NNE,12,2.0,5.0,91,0.00,,---,0.00,0.00,VWS V14.00,2013-04-18 09:00:00,
2013-04-18 05:01:00,66.7,64.0,30.04,NNE,12,2.0,2.0,91,0.00,,---,0.00,0.00,VWS V14.00,2013-04-18 09:01:00,
2013-04-18 05:02:00,66.7,64.0,30.04,NNE,12,3.0,3.0,91,0.00,,---,0.00,0.00,VWS V14.00,2013-04-18 09:02:00,
2013-04-18 05:03:00,66.7,64.0,30.04,NNE,12,2.0,3.0,91,0.00,,---,0.00,0.00,VWS V14.00,2013-04-18 09:03:00,
2013-04-18 05:04:00,66.7,64.0,30.04,NNE,12,2.0,3.0,91,0.00,,---,0.00,0.00,VWS V14.00,2013-04-18 09:04:00,
2013-04-18 05:05:00,66.7,64.0,30.04,NNE,12,2.0,3.0,91,0.00,,---,0.00,0.00,VWS V14.00,2013-04-18 09:05:00,
2013-04-18 05:06:00,66.7,64.0,30.04,NNE,12,2.0,3.0,91,0.00,,---,0.00,0.00,VWS V14.00,2013-04-18 09:06:00,
2013-04-18 05:07:00,66.7,64.0,30.03,NNE,12,2.0,3.0,91,0.00,,---,0.00,0.00,VWS V14.00,2013-04-18 09:07:00,
2013-04-18 05:08:00,66.7,64.0,30.03,NNE,12,1.0,3.0,91,0.00,,---,0.00,0.00,VWS V14.00,2013-04-18 09:08:00,
2013-04-18 05:09:00,66.7,64.0,30.03,NNE,12,1.0,3.0,91,0.00,,---,0.00,0.00,VWS V14.00,2013-04-18 09:09:00,
2013-04-18 05:10:00,66.7,64.0,30.03,NNE,12,2.0,3.0,91,0.00,,---,0.00,0.00,VWS V14.00,2013-04-18 09:10:00,
2013-04-18 05:11:00,66.7,64.0,30.03,NNE,12,2.0,3.0,91,0.00,,---,0.00,0.00,VWS V14.00,2013-04-18 09:11:00,
2013-04-18 05:12:00,66.7,64.0,30.03,NNE,12,2.0,3.0,91,0.00,,---,0.00,0.00,VWS V14.00,2013-04-18 09:12:00,
2013-04-18 05:13:00,66.7,64.0,30.03,NNE,12,2.0,3.0,91,0.00,,---,0.00,0.00,VWS V14.00,2013-04-18 09:13:00,
2013-04-18 05:14:00,66.7,64.0,30.03,NNE,12,1.0,3.0,91,0.00,,---,0.00,0.00,VWS V14.00,2013-04-18 09:14:00,
2013-04-18 05:15:00,66.7,64.0,30.03,NNE,12,2.0,3.0,91,0.00,,---,0.00,0.00,VWS V14.00,2013-04-18 09:15:00,
2013-04-18 05:16:00,66.7,64.0,30.03,NNE,12,2.0,3.0,91,0.00,,---,0.00,0.00,VWS V14.00,2013-04-18 09:16:00,
2013-04-18 05:17:00,66.7,64.0,30.03,NNE,12,1.0,3.0,91,0.00,,---,0.00,0.00,VWS V14.00,2013-04-18 09:17:00,
2013-04-18 05:18:00,66.7,64.0,30.03,NNE,12,1.0,3.0,91,0.00,,---,0.00,0.00,VWS V14.00,2013-04-18 09:18:00,
2013-04-18 05:19:00,66.6,63.9,30.03,NNE,12,2.0,3.0,91,0.00,,---,0.00,0.00,VWS V14.00,2013-04-18 09:19:00,
2013-04-18 05:20:00,66.7,64.0,30.03,NNE,12,2.0,3.0,91,0.00,,---,0.00,0.00,VWS V14.00,2013-04-18 09:20:00,
2013-04-18 05:21:00,66.6,63.9,30.03,NNE,12,1.0,3.0,91,0.00,,---,0.00,0.00,VWS V14.00,2013-04-18 09:21:00,
2013-04-18 05:22:00,66.6,63.9,30.03,NNE,12,2.0,3.0,91,0.00,,---,0.00,0.00,VWS V14.00,2013-04-18 09:22:00,
2013-04-18 05:23:00,66.6,63.9,30.03,NNE,12,1.0,3.0,91,0.00,,---,0.00,0.00,VWS V14.00,2013-04-18 09:23:00,
2013-04-18 05:24:00,66.6,63.9,30.03,NNE,12,1.0,3.0,91,0.00,,---,0.00,0.00,VWS V14.00,2013-04-18 09:24:00,
2013-04-18 05:25:00,66.6,63.9,30.03,NNE,12,1.0,3.0,91,0.00,,---,0.00,0.00,VWS V14.00,2013-04-18 09:25:00,
2013-04-18 05:26:00,66.6,63.9,30.03,NNE,12,1.0,3.0,91,0.00,,---,0.00,0.00,VWS V14.00,2013-04-18 09:26:00,
2013-04-18 05:27:00,66.6,63.9,30.03,NNE,12,1.0,3.0,91,0.00,,---,0.00,0.00,VWS V14.00,2013-04-18 09:27:00,
2013-04-18 05:28:00,66.6,63.9,30.03,NNE,12,1.0,3.0,91,0.00,,---,0.00,0.00,VWS V14.00,2013-04-18 09:28:00,
2013-04-18 05:29:00,66.6,63.9,30.03,NNE,12,1.0,3.0,91,0.00,,---,0.00,0.00,VWS V14.00,2013-04-18 09:29:00,
2013-04-18 05:30:00,66.6,63.9,30.03,NNE,12,0.0,3.0,91,0.00,,---,0.00,0.00,VWS V14.00,2013-04-18 09:30:00,
2013-04-18 05:31:00,66.6,63.9,30.03,NNE,12,0.0,0.0,91,0.00,,---,0.00,0.00,VWS V14.00,2013-04-18 09:31:00,
2013-04-18 05:32:00,66.5,63.8,30.03,NNE,12,0.0,1.0,91,0.00,,---,0.00,0.00,VWS V14.00,2013-04-18 09:32:00,
2013-04-18 05:33:00,66.5,63.8,30.03,NNE,12,0.0,1.0,91,0.00,,---,0.00,0.00,VWS V14.00,2013-04-18 09:33:00,
2013-04-18 05:34:00,66.5,63.8,30.03,NNE,12,0.0,1.0,91,0.00,,---,0.00,0.00,VWS V14.00,2013-04-18 09:34:00,
2013-04-18 05:35:00,66.5,63.8,30.03,NNE,12,0.0,1.0,91,0.00,,---,0.00,0.00,VWS V14.00,2013-04-18 09:35:00,
2013-04-18 05:36:00,66.5,63.8,30.03,NNE,12,0.0,1.0,91,0.00,,---,0.00,0.00,VWS V14.00,2013-04-18 09:36:00,
2013-04-18 05:37:00,66.5,64.1,30.04,NNE,12,0.0,1.0,92,0.00,,---,0.00,0.00,VWS V14.00,2013-04-18 09:37:00,
2013-04-18 05:38:00,66.5,63.8,30.04,NNE,12,0.0,1.0,91,0.00,,---,0.00,0.00,VWS V14.00,2013-04-18 09:38:00,
2013-04-18 05:39:00,66.5,64.1,30.04,NNE,12,0.0,1.0,92,0.00,,---,0.00,0.00,VWS V14.00,2013-04-18 09:39:00,
2013-04-18 05:40:00,66.5,64.1,30.04,NNE,12,0.0,1.0,92,0.00,,---,0.00,0.00,VWS V14.00,2013-04-18 09:40:00,
2013-04-18 05:41:00,66.5,64.1,30.04,NNE,12,0.0,1.0,92,0.00,,---,0.00,0.00,VWS V14.00,2013-04-18 09:41:00,
2013-04-18 05:42:00,66.5,64.1,30.04,NNE,12,0.0,1.0,92,0.00,,---,0.00,0.00,VWS V14.00,2013-04-18 09:42:00,
2013-04-18 05:43:00,66.4,63.7,30.04,NNE,12,0.0,1.0,91,0.00,,---,0.00,0.00,VWS V14.00,2013-04-18 09:43:00,
2013-04-18 05:44:00,66.4,63.7,30.04,NNE,12,0.0,1.0,91,0.00,,---,0.00,0.00,VWS V14.00,2013-04-18 09:44:00,
2013-04-18 05:45:00,66.4,63.7,30.03,NNE,12,0.0,1.0,91,0.00,,---,0.00,0.00,VWS V14.00,2013-04-18 09:45:00,
2013-04-18 05:46:00,66.3,63.6,30.04,NNE,12,0.0,1.0,91,0.00,,---,0.00,0.00,VWS V14.00,2013-04-18 09:46:00,
2013-04-18 05:47:00,66.3,63.6,30.04,NNE,12,0.0,1.0,91,0.00,,---,0.00,0.00,VWS V14.00,2013-04-18 09:47:00,
2013-04-18 05:48:00,66.3,63.6,30.04,NNE,12,0.0,1.0,91,0.00,,---,0.00,0.00,VWS V14.00,2013-04-18 09:48:00,
2013-04-18 05:49:00,66.3,63.6,30.04,NNE,12,0.0,1.0,91,0.00,,---,0.00,0.00,VWS V14.00,2013-04-18 09:49:00,
2013-04-18 05:50:00,66.3,63.9,30.04,NNE,12,0.0,1.0,92,0.00,,---,0.00,0.00,VWS V14.00,2013-04-18 09:50:00,
2013-04-18 05:51:00,66.3,63.9,30.04,NNE,12,0.0,1.0,92,0.00,,---,0.00,0.00,VWS V14.00,2013-04-18 09:51:00,
2013-04-18 05:52:00,66.3,63.9,30.04,NNE,12,0.0,1.0,92,0.00,,---,0.00,0.00,VWS V14.00,2013-04-18 09:52:00,
2013-04-18 05:53:00,66.3,63.9,30.04,NNE,12,0.0,1.0,92,0.00,,---,0.00,0.00,VWS V14.00,2013-04-18 09:53:00,
2013-04-18 05:54:00,66.3,63.9,30.04,NNE,12,0.0,1.0,92,0.00,,---,0.00,0.00,VWS V14.00,2013-04-18 09:54:00,
2013-04-18 05:55:00,66.3,63.9,30.04,NNE,12,0.0,1.0,92,0.00,,---,0.00,0.00,VWS V14.00,2013-04-18 09:55:00,
2013-04-18 05:56:00,66.3,63.9,30.04,NNE,12,0.0,1.0,92,0.00,,---,0.00,0.00,VWS V14.00,2013-04-18 09:56:00,
2013-04-18 05:57:00,66.3,63.9,30.04,NNE,12,0.0,1.0,92,0.00,,---,0.00,0.00,VWS V14.00,2013-04-18 09:57:00,
2013-04-18 05:58:00,66.4,64.0,30.04,NNE,12,2.0,3.0,92,0.00,,---,0.00,0.00,VWS V14.00,2013-04-18 09:58:00,
2013-04-18 05:59:00,66.4,64.0,30.04,NNE,12,2.0,3.0,92,0.00,,---,0.00,0.00,VWS V14.00,2013-04-18 09:59:00,
2013-04-18 06:00:00,66.5,64.1,30.04,NNE,12,1.0,3.0,92,0.00,,---,0.00,0.00,VWS V14.00,2013-04-18 10:00:00,
2013-04-18 06:01:00,66.5,64.1,30.04,NNE,12,2.0,2.0,92,0.00,,---,0.00,0.00,VWS V14.00,2013-04-18 10:01:00,
2013-04-18 06:02:00,66.5,64.1,30.04,NNE,12,0.0,2.0,92,0.00,,---,0.00,0.00,VWS V14.00,2013-04-18 10:02:00,
2013-04-18 06:03:00,66.5,64.1,30.04,NNE,12,0.0,2.0,92,0.00,,---,0.00,0.00,VWS V14.00,2013-04-18 10:03:00,
2013-04-18 06:04:00,66.5,64.1,30.04,NNE,12,0.0,2.0,92,0.00,,---,0.00,0.00,VWS V14.00,2013-04-18 10:04:00,
2013-04-18 06:05:00,66.6,64.2,30.04,NNE,12,0.0,2.0,92,0.00,,---,0.00,0.00,VWS V14.00,2013-04-18 10:05:00,
2013-04-18 06:06:00,66.6,64.2,30.04,NNE,12,0.0,2.0,92,0.00,,---,0.00,0.00,VWS V14.00,2013-04-18 10:06:00,
2013-04-18 06:07:00,66.6,64.2,30.04,NNE,12,0.0,2.0,92,0.00,,---,0.00,0.00,VWS V14.00,2013-04-18 10:07:00,
2013-04-18 06:08:00,66.6,64.2,30.04,NNE,12,0.0,2.0,92,0.00,,---,0.00,0.00,VWS V14.00,2013-04-18 10:08:00,
2013-04-18 06:09:00,66.6,64.2,30.04,NNE,12,0.0,2.0,92,0.00,,---,0.00,0.00,VWS V14.00,2013-04-18 10:09:00,
2013-04-18 06:10:00,66.5,64.1,30.04,NNE,12,0.0,2.0,92,0.00,,---,0.00,0.00,VWS V14.00,2013-04-18 10:10:00,
2013-04-18 06:11:00,66.6,64.2,30.04,NNE,12,0.0,2.0,92,0.00,,---,0.00,0.00,VWS V14.00,2013-04-18 10:11:00,
2013-04-18 06:12:00,66.5,64.1,30.04,NNE,12,0.0,2.0,92,0.00,,---,0.00,0.00,VWS V14.00,2013-04-18 10:12:00,
2013-04-18 06:13:00,66.5,64.1,30.04,NNE,12,0.0,2.0,92,0.00,,---,0.00,0.00,VWS V14.00,2013-04-18 10:13:00,
2013-04-18 06:14:00,66.5,64.1,30.04,NNE,12,0.0,2.0,92,0.00,,---,0.00,0.00,VWS V14.00,2013-04-18 10:14:00,
2013-04-18 06:15:00,66.4,64.0,30.04,NNE,12,0.0,2.0,92,0.00,,---,0.00,0.00,VWS V14.00,2013-04-18 10:15:00,
2013-04-18 06:16:00,66.4,64.0,30.04,NNE,12,0.0,2.0,92,0.00,,---,0.00,0.00,VWS V14.00,2013-04-18 10:16:00,
2013-04-18 06:17:00,66.3,63.9,30.04,NNE,12,0.0,2.0,92,0.00,,---,0.00,0.00,VWS V14.00,2013-04-18 10:17:00,
2013-04-18 06:18:00,66.3,63.9,30.04,NNE,12,0.0,2.0,92,0.00,,---,0.00,0.00,VWS V14.00,2013-04-18 10:18:00,
2013-04-18 06:19:00,66.2,63.8,30.04,NNE,12,0.0,2.0,92,0.00,,---,0.00,0.00,VWS V14.00,2013-04-18 10:19:00,
2013-04-18 06:20:00,66.2,63.8,30.04,NNE,12,0.0,2.0,92,0.00,,---,0.00,0.00,VWS V14.00,2013-04-18 10:20:00,
2013-04-18 06:21:00,66.2,63.5,30.04,NNE,12,0.0,2.0,91,0.00,,---,0.00,0.00,VWS V14.00,2013-04-18 10:21:00,
2013-04-18 06:22:00,66.1,63.4,30.04,NNE,12,0.0,2.0,91,0.00,,---,0.00,0.00,VWS V14.00,2013-04-18 10:22:00,
2013-04-18 06:23:00,66.1,63.4,30.04,NNE,12,0.0,2.0,91,0.00,,---,0.00,0.00,VWS V14.00,2013-04-18 10:23:00,
2013-04-18 06:24:00,66.1,63.4,30.04,NNE,12,0.0,2.0,91,0.00,,---,0.00,0.00,VWS V14.00,2013-04-18 10:24:00,
2013-04-18 06:25:00,66.0,63.3,30.04,NNE,12,0.0,2.0,91,0.00,,---,0.00,0.00,VWS V14.00,2013-04-18 10:25:00,
2013-04-18 06:26:00,66.0,63.3,30.04,NNE,12,0.0,2.0,91,0.00,,---,0.00,0.00,VWS V14.00,2013-04-18 10:26:00,
2013-04-18 06:27:00,65.9,63.2,30.04,NNE,12,0.0,2.0,91,0.00,,---,0.00,0.00,VWS V14.00,2013-04-18 10:27:00,
2013-04-18 06:28:00,65.9,63.2,30.04,NNE,12,0.0,2.0,91,0.00,,---,0.00,0.00,VWS V14.00,2013-04-18 10:28:00,
2013-04-18 06:29:00,65.9,63.5,30.04,NNE,12,0.0,2.0,92,0.00,,---,0.00,0.00,VWS V14.00,2013-04-18 10:29:00,
2013-04-18 06:30:00,65.9,63.5,30.04,NNE,12,0.0,2.0,92,0.00,,---,0.00,0.00,VWS V14.00,2013-04-18 10:30:00,
2013-04-18 06:31:00,65.9,63.5,30.04,NNE,12,0.0,0.0,92,0.00,,---,0.00,0.00,VWS V14.00,2013-04-18 10:31:00,
2013-04-18 06:32:00,65.9,63.5,30.04,NNE,12,0.0,0.0,92,0.00,,---,0.00,0.00,VWS V14.00,2013-04-18 10:32:00,
2013-04-18 06:33:00,65.9,63.5,30.04,NNE,12,0.0,0.0,92,0.00,,---,0.00,0.00,VWS V14.00,2013-04-18 10:33:00,
2013-04-18 06:34:00,65.9,63.5,30.05,NNE,12,0.0,0.0,92,0.00,,---,0.00,0.00,VWS V14.00,2013-04-18 10:34:00,
2013-04-18 06:35:00,65.9,63.5,30.05,NNE,12,0.0,0.0,92,0.00,,---,0.00,0.00,VWS V14.00,2013-04-18 10:35:00,
2013-04-18 06:36:00,65.9,63.5,30.04,NNE,12,0.0,0.0,92,0.00,,---,0.00,0.00,VWS V14.00,2013-04-18 10:36:00,
2013-04-18 06:37:00,65.9,63.5,30.05,NNE,12,0.0,0.0,92,0.00,,---,0.00,0.00,VWS V14.00,2013-04-18 10:37:00,
2013-04-18 06:38:00,65.9,63.5,30.04,NNE,12,0.0,0.0,92,0.00,,---,0.00,0.00,VWS V14.00,2013-04-18 10:38:00,
2013-04-18 06:39:00,65.9,63.5,30.04,NNE,12,0.0,0.0,92,0.00,,---,0.00,0.00,VWS V14.00,2013-04-18 10:39:00,
2013-04-18 06:40:00,65.9,63.5,30.04,NNE,12,0.0,0.0,92,0.00,,---,0.00,0.00,VWS V14.00,2013-04-18 10:40:00,
2013-04-18 06:41:00,65.9,63.5,30.04,SE,146,0.0,0.0,92,0.00,,---,0.00,0.00,VWS V14.00,2013-04-18 10:41:00,
2013-04-18 06:42:00,65.9,63.5,30.05,SE,146,0.0,0.0,92,0.00,,---,0.00,0.00,VWS V14.00,2013-04-18 10:42:00,
2013-04-18 06:43:00,65.9,63.5,30.05,SE,146,0.0,0.0,92,0.00,,---,0.00,0.00,VWS V14.00,2013-04-18 10:43:00,
2013-04-18 06:44:00,65.9,63.5,30.05,SE,146,0.0,0.0,92,0.00,,---,0.00,0.00,VWS V14.00,2013-04-18 10:44:00,
2013-04-18 06:45:00,66.0,63.6,30.05,SE,146,0.0,0.0,92,0.00,,---,0.00,0.00,VWS V14.00,2013-04-18 10:45:00,
2013-04-18 06:46:00,66.0,63.6,30.05,SE,145,3.0,3.0,92,0.00,,---,0.00,0.00,VWS V14.00,2013-04-18 10:46:00,
2013-04-18 06:47:00,66.1,63.7,30.05,SE,145,2.0,3.0,92,0.00,,---,0.00,0.00,VWS V14.00,2013-04-18 10:47:00,
2013-04-18 06:48:00,66.2,63.8,30.05,SE,145,2.0,3.0,92,0.00,,---,0.00,5.00,VWS V14.00,2013-04-18 10:48:00,
2013-04-18 06:49:00,66.2,63.8,30.04,SE,145,3.0,3.0,92,0.00,,---,0.00,5.00,VWS V14.00,2013-04-18 10:49:00,
2013-04-18 06:50:00,66.3,63.9,30.04,SE,145,2.0,3.0,92,0.00,,---,0.00,5.00,VWS V14.00,2013-04-18 10:50:00,
2013-04-18 06:51:00,66.3,63.9,30.05,SE,145,1.0,3.0,92,0.00,,---,0.00,7.00,VWS V14.00,2013-04-18 10:51:00,
2013-04-18 06:52:00,66.3,63.9,30.05,SE,145,1.0,3.0,92,0.00,,---,0.00,7.00,VWS V14.00,2013-04-18 10:52:00,
2013-04-18 06:53:00,66.4,64.0,30.05,SE,145,2.0,3.0,92,0.00,,---,0.00,9.00,VWS V14.00,2013-04-18 10:53:00,
2013-04-18 06:54:00,66.4,64.0,30.05,SE,145,0.0,3.0,92,0.00,,---,0.00,11.00,VWS V14.00,2013-04-18 10:54:00,
2013-04-18 06:55:00,66.4,64.0,30.05,SE,145,0.0,3.0,92,0.00,,---,0.00,11.00,VWS V14.00,2013-04-18 10:55:00,
2013-04-18 06:56:00,66.5,64.1,30.05,SE,145,0.0,3.0,92,0.00,,---,0.00,12.00,VWS V14.00,2013-04-18 10:56:00,
2013-04-18 06:57:00,66.5,64.1,30.05,SE,145,0.0,3.0,92,0.00,,---,0.00,12.00,VWS V14.00,2013-04-18 10:57:00,
2013-04-18 06:58:00,66.5,64.1,30.05,SE,145,0.0,3.0,92,0.00,,---,0.00,12.00,VWS V14.00,2013-04-18 10:58:00,
2013-04-18 06:59:00,66.5,64.1,30.05,SE,145,0.0,3.0,92,0.00,,---,0.00,14.00,VWS V14.00,2013-04-18 10:59:00,
2013-04-18 07:00:00,66.5,64.1,30.05,SE,145,0.0,3.0,92,0.00,,---,0.00,16.00,VWS V14.00,2013-04-18 11:00:00,
2013-04-18 07:01:00,66.5,64.1,30.05,SE,145,0.0,0.0,92,0.00,,---,0.00,18.00,VWS V14.00,2013-04-18 11:01:00,
2013-04-18 07:02:00,66.5,64.1,30.05,SE,145,0.0,0.0,92,0.00,,---,0.00,18.00,VWS V14.00,2013-04-18 11:02:00,
2013-04-18 07:03:00,66.5,64.1,30.05,SE,145,0.0,0.0,92,0.00,,---,0.00,25.00,VWS V14.00,2013-04-18 11:03:00,
2013-04-18 07:04:00,66.6,64.2,30.05,SE,145,0.0,0.0,92,0.00,,---,0.00,26.00,VWS V14.00,2013-04-18 11:04:00,
2013-04-18 07:05:00,66.6,64.2,30.05,SE,145,0.0,0.0,92,0.00,,---,0.00,28.00,VWS V14.00,2013-04-18 11:05:00,
2013-04-18 07:06:00,66.7,64.3,30.06,SE,145,0.0,0.0,92,0.00,,---,0.00,33.00,VWS V14.00,2013-04-18 11:06:00,
2013-04-18 07:07:00,66.7,64.3,30.06,SE,145,2.0,2.0,92,0.00,,---,0.00,33.00,VWS V14.00,2013-04-18 11:07:00,
2013-04-18 07:08:00,66.7,64.3,30.06,SE,145,2.0,3.0,92,0.00,,---,0.00,32.00,VWS V14.00,2013-04-18 11:08:00,
2013-04-18 07:09:00,66.7,64.3,30.06,SE,145,1.0,3.0,92,0.00,,---,0.00,32.00,VWS V14.00,2013-04-18 11:09:00,
2013-04-18 07:10:00,66.8,64.4,30.06,SE,145,2.0,3.0,92,0.00,,---,0.00,39.00,VWS V14.00,2013-04-18 11:10:00,
2013-04-18 07:11:00,66.8,64.4,30.06,SE,145,2.0,3.0,92,0.00,,---,0.00,42.00,VWS V14.00,2013-04-18 11:11:00,
2013-04-18 07:12:00,66.8,64.4,30.06,SE,145,2.0,3.0,92,0.00,,---,0.00,46.00,VWS V14.00,2013-04-18 11:12:00,
2013-04-18 07:13:00,66.8,64.4,30.06,SE,145,3.0,3.0,92,0.00,,---,0.00,46.00,VWS V14.00,2013-04-18 11:13:00,
2013-04-18 07:14:00,66.8,64.4,30.06,SE,145,3.0,4.0,92,0.00,,---,0.00,47.00,VWS V14.00,2013-04-18 11:14:00,
2013-04-18 07:15:00,66.9,64.5,30.06,SE,145,3.0,4.0,92,0.00,,---,0.00,47.00,VWS V14.00,2013-04-18 11:15:00,
2013-04-18 07:16:00,66.9,64.5,30.06,SE,145,3.0,4.0,92,0.00,,---,0.00,49.00,VWS V14.00,2013-04-18 11:16:00,
2013-04-18 07:17:00,66.9,64.5,30.06,SE,145,3.0,4.0,92,0.00,,---,0.00,51.00,VWS V14.00,2013-04-18 11:17:00,
2013-04-18 07:18:00,66.9,64.5,30.06,SE,145,2.0,4.0,92,0.00,,---,0.00,51.00,VWS V14.00,2013-04-18 11:18:00,
2013-04-18 07:19:00,66.9,64.5,30.06,SE,145,2.0,4.0,92,0.00,,---,0.00,49.00,VWS V14.00,2013-04-18 11:19:00,
2013-04-18 07:20:00,66.9,64.5,30.06,SE,145,3.0,4.0,92,0.00,,---,0.00,40.00,VWS V14.00,2013-04-18 11:20:00,
2013-04-18 07:21:00,66.9,64.5,30.06,SE,145,3.0,4.0,92,0.00,,---,0.00,39.00,VWS V14.00,2013-04-18 11:21:00,
2013-04-18 07:22:00,66.9,64.5,30.06,SE,145,2.0,4.0,92,0.00,,---,0.00,40.00,VWS V14.00,2013-04-18 11:22:00,
2013-04-18 07:23:00,66.8,64.4,30.06,SE,145,2.0,4.0,92,0.00,,---,0.00,35.00,VWS V14.00,2013-04-18 11:23:00,
2013-04-18 07:24:00,66.8,64.4,30.06,SE,145,3.0,4.0,92,0.00,,---,0.00,35.00,VWS V14.00,2013-04-18 11:24:00,
2013-04-18 07:25:00,66.8,64.4,30.06,SE,145,1.0,4.0,92,0.00,,---,0.00,40.00,VWS V14.00,2013-04-18 11:25:00,
2013-04-18 07:26:00,66.8,64.4,30.06,SE,145,2.0,4.0,92,0.00,,---,0.00,51.00,VWS V14.00,2013-04-18 11:26:00,
2013-04-18 07:27:00,66.8,64.4,30.06,SE,145,1.0,4.0,92,0.00,,---,0.00,60.00,VWS V14.00,2013-04-18 11:27:00,
2013-04-18 07:28:00,66.8,64.4,30.06,SE,145,2.0,4.0,92,0.00,,---,0.00,65.00,VWS V14.00,2013-04-18 11:28:00,
2013-04-18 07:29:00,66.9,64.5,30.06,SE,145,0.0,4.0,92,0.00,,---,0.00,70.00,VWS V14.00,2013-04-18 11:29:00,
2013-04-18 07:30:00,66.9,64.5,30.06,SE,145,0.0,4.0,92,0.00,,---,0.00,70.00,VWS V14.00,2013-04-18 11:30:00,
2013-04-18 07:31:00,67.0,64.6,30.06,SE,145,1.0,2.0,92,0.00,,---,0.00,65.00,VWS V14.00,2013-04-18 11:31:00,
2013-04-18 07:32:00,67.0,64.6,30.06,SE,145,2.0,2.0,92,0.00,,---,0.00,72.00,VWS V14.00,2013-04-18 11:32:00,
2013-04-18 07:33:00,67.1,64.7,30.06,SE,145,1.0,3.0,92,0.00,,---,0.00,76.00,VWS V14.00,2013-04-18 11:33:00,
2013-04-18 07:34:00,67.2,64.8,30.06,SE,145,1.0,3.0,92,0.00,,---,0.00,79.00,VWS V14.00,2013-04-18 11:34:00,
2013-04-18 07:35:00,67.3,64.9,30.06,SE,145,2.0,3.0,92,0.00,,---,0.00,79.00,VWS V14.00,2013-04-18 11:35:00,
2013-04-18 07:36:00,67.4,65.0,30.06,SE,145,1.0,3.0,92,0.00,,---,0.00,79.00,VWS V14.00,2013-04-18 11:36:00,
2013-04-18 07:37:00,67.4,65.0,30.06,SE,145,2.0,3.0,92,0.00,,---,0.00,79.00,VWS V14.00,2013-04-18 11:37:00,
2013-04-18 07:38:00,67.5,65.1,30.06,SE,145,0.0,3.0,92,0.00,,---,0.00,81.00,VWS V14.00,2013-04-18 11:38:00,
2013-04-18 07:39:00,67.6,65.2,30.06,SE,145,0.0,3.0,92,0.00,,---,0.00,83.00,VWS V14.00,2013-04-18 11:39:00,
2013-04-18 07:40:00,67.7,65.3,30.06,SE,145,0.0,3.0,92,0.00,,---,0.00,86.00,VWS V14.00,2013-04-18 11:40:00,
2013-04-18 07:41:00,67.8,65.4,30.06,SE,145,0.0,3.0,92,0.00,,---,0.00,90.00,VWS V14.00,2013-04-18 11:41:00,
2013-04-18 07:42:00,67.9,65.5,30.07,SE,145,0.0,3.0,92,0.00,,---,0.00,91.00,VWS V14.00,2013-04-18 11:42:00,
2013-04-18 07:43:00,68.0,65.6,30.07,SE,145,0.0,3.0,92,0.00,,---,0.00,93.00,VWS V14.00,2013-04-18 11:43:00,
2013-04-18 07:44:00,68.1,65.4,30.07,SE,145,0.0,3.0,91,0.00,,---,0.00,95.00,VWS V14.00,2013-04-18 11:44:00,
2013-04-18 07:45:00,68.2,65.5,30.07,SE,145,0.0,3.0,91,0.00,,---,0.00,97.00,VWS V14.00,2013-04-18 11:45:00,
2013-04-18 07:46:00,68.3,65.6,30.07,SE,145,0.0,3.0,91,0.00,,---,0.00,98.00,VWS V14.00,2013-04-18 11:46:00,
2013-04-18 07:47:00,68.3,65.6,30.07,SE,145,0.0,3.0,91,0.00,,---,0.00,102.00,VWS V14.00,2013-04-18 11:47:00,
2013-04-18 07:48:00,68.5,65.8,30.07,SE,145,0.0,3.0,91,0.00,,---,0.00,102.00,VWS V14.00,2013-04-18 11:48:00,
2013-04-18 07:49:00,68.5,65.8,30.07,SE,145,3.0,3.0,91,0.00,,---,0.00,104.00,VWS V14.00,2013-04-18 11:49:00,
2013-04-18 07:50:00,68.6,65.6,30.07,SE,145,3.0,4.0,90,0.00,,---,0.00,105.00,VWS V14.00,2013-04-18 11:50:00,
2013-04-18 07:51:00,68.6,65.6,30.07,SE,145,4.0,4.0,90,0.00,,---,0.00,107.00,VWS V14.00,2013-04-18 11:51:00,
2013-04-18 07:52:00,68.7,65.7,30.07,SE,145,2.0,4.0,90,0.00,,---,0.00,107.00,VWS V14.00,2013-04-18 11:52:00,
2013-04-18 07:53:00,68.8,65.8,30.07,SE,145,2.0,4.0,90,0.00,,---,0.00,109.00,VWS V14.00,2013-04-18 11:53:00,
2013-04-18 07:54:00,68.9,65.8,30.07,SE,145,2.0,4.0,90,0.00,,---,0.00,109.00,VWS V14.00,2013-04-18 11:54:00,
2013-04-18 07:55:00,68.9,65.8,30.07,SE,145,3.0,4.0,90,0.00,,---,0.00,111.00,VWS V14.00,2013-04-18 11:55:00,
2013-04-18 07:56:00,69.0,65.9,30.07,SE,145,4.0,4.0,90,0.00,,---,0.00,109.00,VWS V14.00,2013-04-18 11:56:00,
2013-04-18 07:57:00,69.1,66.1,30.07,SE,145,3.0,4.0,90,0.00,,---,0.00,113.00,VWS V14.00,2013-04-18 11:57:00,
2013-04-18 07:58:00,69.1,66.1,30.07,SE,145,2.0,4.0,90,0.00,,---,0.00,105.00,VWS V14.00,2013-04-18 11:58:00,
2013-04-18 07:59:00,69.2,65.8,30.07,SE,145,3.0,4.0,89,0.00,,---,0.00,81.00,VWS V14.00,2013-04-18 11:59:00,
2013-04-18 08:00:00,69.3,65.9,30.07,SE,145,2.0,4.0,89,0.00,,---,0.00,100.00,VWS V14.00,2013-04-18 12:00:00,
2013-04-18 08:01:00,69.4,66.0,30.07,SE,145,3.0,3.0,89,0.00,,---,0.00,125.00,VWS V14.00,2013-04-18 12:01:00,
2013-04-18 08:02:00,69.5,66.4,30.07,SE,145,2.0,3.0,90,0.00,,---,0.00,125.00,VWS V14.00,2013-04-18 12:02:00,
2013-04-18 08:03:00,69.6,66.2,30.07,SE,145,3.0,3.0,89,0.00,,---,0.00,127.00,VWS V14.00,2013-04-18 12:03:00,
2013-04-18 08:04:00,69.7,66.3,30.07,SE,145,2.0,4.0,89,0.00,,---,0.00,114.00,VWS V14.00,2013-04-18 12:04:00,
2013-04-18 08:05:00,69.7,66.3,30.07,SE,145,2.0,4.0,89,0.00,,---,0.00,120.00,VWS V14.00,2013-04-18 12:05:00,
2013-04-18 08:06:00,69.8,66.4,30.07,SE,145,2.0,4.0,89,0.00,,---,0.00,121.00,VWS V14.00,2013-04-18 12:06:00,
2013-04-18 08:07:00,69.9,66.5,30.07,SE,145,4.0,4.0,89,0.00,,---,0.00,137.00,VWS V14.00,2013-04-18 12:07:00,
2013-04-18 08:08:00,70.0,66.6,30.07,SE,145,3.0,4.0,89,0.00,,---,0.00,141.00,VWS V14.00,2013-04-18 12:08:00,
2013-04-18 08:09:00,70.1,66.7,30.07,SE,145,3.0,4.0,89,0.00,,---,0.00,144.00,VWS V14.00,2013-04-18 12:09:00,
2013-04-18 08:10:00,70.1,66.4,30.07,SE,145,2.0,4.0,88,0.00,,---,0.00,144.00,VWS V14.00,2013-04-18 12:10:00,
2013-04-18 08:11:00,70.2,66.5,30.07,SE,145,1.0,4.0,88,0.00,,---,0.00,148.00,VWS V14.00,2013-04-18 12:11:00,
2013-04-18 08:12:00,70.3,66.6,30.07,SE,145,2.0,4.0,88,0.00,,---,0.00,149.00,VWS V14.00,2013-04-18 12:12:00,
2013-04-18 08:13:00,70.4,66.7,30.07,SE,145,3.0,4.0,88,0.00,,---,0.00,153.00,VWS V14.00,2013-04-18 12:13:00,
2013-04-18 08:14:00,70.5,66.8,30.07,SE,145,2.0,4.0,88,0.00,,---,0.00,153.00,VWS V14.00,2013-04-18 12:14:00,
2013-04-18 08:15:00,70.6,66.9,30.07,SE,145,3.0,4.0,88,0.00,,---,0.00,155.00,VWS V14.00,2013-04-18 12:15:00,
2013-04-18 08:16:00,70.7,67.0,30.07,SE,145,2.0,4.0,88,0.00,,---,0.00,156.00,VWS V14.00,2013-04-18 12:16:00,
2013-04-18 08:17:00,70.8,67.1,30.07,SE,145,2.0,4.0,88,0.00,,---,0.00,158.00,VWS V14.00,2013-04-18 12:17:00,
2013-04-18 08:18:00,71.0,67.3,30.07,SE,145,1.0,4.0,88,0.00,,---,0.00,160.00,VWS V14.00,2013-04-18 12:18:00,
2013-04-18 08:19:00,71.0,66.9,30.07,SE,145,2.0,4.0,87,0.00,,---,0.00,160.00,VWS V14.00,2013-04-18 12:19:00,
2013-04-18 08:20:00,71.2,67.1,30.07,SE,145,2.0,4.0,87,0.00,,---,0.00,160.00,VWS V14.00,2013-04-18 12:20:00,
2013-04-18 08:21:00,71.2,67.1,30.07,SE,145,2.0,4.0,87,0.00,,---,0.00,163.00,VWS V14.00,2013-04-18 12:21:00,
2013-04-18 08:22:00,71.2,66.8,30.07,SE,145,3.0,4.0,86,0.00,,---,0.00,169.00,VWS V14.00,2013-04-18 12:22:00,
2013-04-18 08:23:00,71.2,66.8,30.07,SE,145,3.0,4.0,86,0.00,,---,0.00,171.00,VWS V14.00,2013-04-18 12:23:00,
2013-04-18 08:24:00,71.3,66.9,30.07,ENE,69,3.0,4.0,86,0.00,,---,0.00,172.00,VWS V14.00,2013-04-18 12:24:00,
2013-04-18 08:25:00,71.2,66.8,30.07,NNW,341,6.0,7.0,86,0.00,,---,0.00,171.00,VWS V14.00,2013-04-18 12:25:00,
2013-04-18 08:26:00,71.1,66.7,30.08,NNW,337,6.0,9.0,86,0.00,,---,0.00,169.00,VWS V14.00,2013-04-18 12:26:00,
2013-04-18 08:27:00,70.9,66.2,30.08,NNW,335,6.0,9.0,85,0.00,,---,0.00,153.00,VWS V14.00,2013-04-18 12:27:00,
2013-04-18 08:28:00,70.7,66.3,30.08,NNW,335,6.0,9.0,86,0.00,,---,0.00,107.00,VWS V14.00,2013-04-18 12:28:00,
2013-04-18 08:29:00,70.5,66.1,30.08,NNW,334,5.0,9.0,86,0.00,,---,0.00,120.00,VWS V14.00,2013-04-18 12:29:00,
2013-04-18 08:30:00,70.3,65.9,30.08,NNW,334,4.0,9.0,86,0.00,,---,0.00,135.00,VWS V14.00,2013-04-18 12:30:00,
2013-04-18 08:31:00,70.2,65.8,30.08,NNW,334,4.0,5.0,86,0.00,,---,0.00,169.00,VWS V14.00,2013-04-18 12:31:00,
2013-04-18 08:32:00,70.1,66.1,30.08,NNW,334,3.0,5.0,87,0.00,,---,0.00,167.00,VWS V14.00,2013-04-18 12:32:00,
2013-04-18 08:33:00,70.1,66.1,30.07,NNW,334,4.0,5.0,87,0.00,,---,0.00,188.00,VWS V14.00,2013-04-18 12:33:00,
2013-04-18 08:34:00,70.1,66.1,30.08,NNW,334,3.0,5.0,87,0.00,,---,0.00,223.00,VWS V14.00,2013-04-18 12:34:00,
2013-04-18 08:35:00,70.1,66.4,30.08,NNW,334,3.0,5.0,88,0.00,,---,0.00,216.00,VWS V14.00,2013-04-18 12:35:00,
2013-04-18 08:36:00,70.1,66.4,30.08,NNW,334,2.0,5.0,88,0.00,,---,0.00,200.00,VWS V14.00,2013-04-18 12:36:00,
2013-04-18 08:37:00,70.1,66.4,30.08,NNW,334,2.0,5.0,88,0.00,,---,0.00,183.00,VWS V14.00,2013-04-18 12:37:00,
2013-04-18 08:38:00,70.1,66.4,30.08,NNW,334,2.0,5.0,88,0.00,,---,0.00,172.00,VWS V14.00,2013-04-18 12:38:00,
2013-04-18 08:39:00,70.2,66.5,30.08,NNW,334,3.0,5.0,88,0.00,,---,0.00,171.00,VWS V14.00,2013-04-18 12:39:00,
2013-04-18 08:40:00,70.2,66.5,30.08,NNW,334,3.0,5.0,88,0.00,,---,0.00,153.00,VWS V14.00,2013-04-18 12:40:00,
2013-04-18 08:41:00,70.1,66.1,30.08,NNW,334,3.0,5.0,87,0.00,,---,0.00,95.00,VWS V14.00,2013-04-18 12:41:00,
2013-04-18 08:42:00,70.1,66.1,30.07,NNW,334,3.0,5.0,87,0.00,,---,0.00,109.00,VWS V14.00,2013-04-18 12:42:00,
2013-04-18 08:43:00,70.1,66.1,30.08,NNW,334,3.0,5.0,87,0.00,,---,0.00,130.00,VWS V14.00,2013-04-18 12:43:00,
2013-04-18 08:44:00,70.1,66.4,30.07,NNW,334,1.0,5.0,88,0.00,,---,0.00,93.00,VWS V14.00,2013-04-18 12:44:00,
2013-04-18 08:45:00,70.1,66.4,30.07,NNW,334,1.0,5.0,88,0.00,,---,0.00,90.00,VWS V14.00,2013-04-18 12:45:00,
2013-04-18 08:46:00,70.2,66.5,30.08,NNW,334,2.0,5.0,88,0.00,,---,0.00,130.00,VWS V14.00,2013-04-18 12:46:00,
2013-04-18 08:47:00,70.2,66.5,30.08,NNW,334,1.0,5.0,88,0.00,,---,0.00,171.00,VWS V14.00,2013-04-18 12:47:00,
2013-04-18 08:48:00,70.2,66.5,30.07,NNW,334,0.0,5.0,88,0.00,,---,0.00,193.00,VWS V14.00,2013-04-18 12:48:00,
2013-04-18 08:49:00,70.3,66.6,30.07,NNW,334,0.0,5.0,88,0.00,,---,0.00,218.00,VWS V14.00,2013-04-18 12:49:00,
2013-04-18 08:50:00,70.3,66.6,30.07,NNW,334,0.0,5.0,88,0.00,,---,0.00,230.00,VWS V14.00,2013-04-18 12:50:00,
2013-04-18 08:51:00,70.4,66.7,30.07,NNW,334,0.0,5.0,88,0.00,,---,0.00,262.00,VWS V14.00,2013-04-18 12:51:00,
2013-04-18 08:52:00,70.6,66.9,30.07,NNW,334,0.0,5.0,88,0.00,,---,0.00,265.00,VWS V14.00,2013-04-18 12:52:00,
2013-04-18 08:53:00,70.8,67.1,30.07,NNW,334,0.0,5.0,88,0.00,,---,0.00,272.00,VWS V14.00,2013-04-18 12:53:00,
2013-04-18 08:54:00,71.0,67.3,30.08,NNW,334,0.0,5.0,88,0.00,,---,0.00,278.00,VWS V14.00,2013-04-18 12:54:00,
2013-04-18 08:55:00,71.2,67.5,30.08,NNW,334,0.0,5.0,88,0.00,,---,0.00,287.00,VWS V14.00,2013-04-18 12:55:00,
2013-04-18 08:56:00,71.5,67.8,30.07,NNW,334,0.0,5.0,88,0.00,,---,0.00,295.00,VWS V14.00,2013-04-18 12:56:00,
2013-04-18 08:57:00,71.6,67.5,30.07,NNW,334,0.0,5.0,87,0.00,,---,0.00,301.00,VWS V14.00,2013-04-18 12:57:00,
2013-04-18 08:58:00,71.8,67.7,30.07,NNW,334,0.0,5.0,87,0.00,,---,0.00,202.00,VWS V14.00,2013-04-18 12:58:00,
2013-04-18 08:59:00,72.1,68.0,30.07,NNW,334,0.0,5.0,87,0.00,,---,0.00,202.00,VWS V14.00,2013-04-18 12:59:00,
2013-04-18 09:00:00,72.3,68.2,30.07,NNW,334,0.0,5.0,87,0.00,,---,0.00,329.00,VWS V14.00,2013-04-18 13:00:00,
2013-04-18 09:01:00,72.6,67.8,30.07,NNW,334,0.0,0.0,85,0.00,,---,0.00,332.00,VWS V14.00,2013-04-18 13:01:00,
2013-04-18 09:02:00,72.9,68.1,30.07,NNW,334,0.0,0.0,85,0.00,,---,0.00,341.00,VWS V14.00,2013-04-18 13:02:00,
2013-04-18 09:03:00,73.1,68.0,30.07,NNW,334,0.0,0.0,84,0.00,,---,0.00,341.00,VWS V14.00,2013-04-18 13:03:00,
2013-04-18 09:04:00,73.3,68.2,30.07,NNW,334,0.0,0.0,84,0.00,,---,0.00,353.00,VWS V14.00,2013-04-18 13:04:00,
2013-04-18 09:05:00,73.5,68.0,30.07,NNW,334,0.0,0.0,83,0.00,,---,0.00,357.00,VWS V14.00,2013-04-18 13:05:00,
2013-04-18 09:06:00,73.7,68.2,30.07,NNW,333,0.0,0.0,83,0.00,,---,0.00,357.00,VWS V14.00,2013-04-18 13:06:00,
2013-04-18 09:07:00,73.8,68.0,30.07,WNW,291,0.0,0.0,82,0.00,,---,0.00,357.00,VWS V14.00,2013-04-18 13:07:00,
2013-04-18 09:08:00,73.9,68.1,30.07,WNW,291,0.0,0.0,82,0.00,,---,0.00,359.00,VWS V14.00,2013-04-18 13:08:00,
2013-04-18 09:09:00,74.0,68.2,30.07,WNW,291,0.0,0.0,82,0.00,,---,0.00,360.00,VWS V14.00,2013-04-18 13:09:00,
2013-04-18 09:10:00,74.1,68.3,30.07,WNW,291,0.0,0.0,82,0.00,,---,0.00,364.00,VWS V14.00,2013-04-18 13:10:00,
2013-04-18 09:11:00,74.3,68.4,30.07,WNW,291,0.0,0.0,82,0.00,,---,0.00,364.00,VWS V14.00,2013-04-18 13:11:00,
2013-04-18 09:12:00,74.4,68.6,30.07,WNW,291,0.0,0.0,82,0.00,,---,0.00,364.00,VWS V14.00,2013-04-18 13:12:00,
2013-04-18 09:13:00,74.5,68.3,30.08,WNW,291,0.0,0.0,81,0.00,,---,0.00,367.00,VWS V14.00,2013-04-18 13:13:00,
2013-04-18 09:14:00,74.6,68.4,30.08,WNW,291,2.0,2.0,81,0.00,,---,0.00,376.00,VWS V14.00,2013-04-18 13:14:00,
2013-04-18 09:15:00,74.7,68.5,30.08,WNW,291,1.0,3.0,81,0.00,,---,0.00,380.00,VWS V14.00,2013-04-18 13:15:00,
2013-04-18 09:16:00,74.7,68.1,30.08,WNW,291,2.0,3.0,80,0.00,,---,0.00,380.00,VWS V14.00,2013-04-18 13:16:00,
2013-04-18 09:17:00,74.7,68.1,30.08,WNW,301,3.0,3.0,80,0.00,,---,0.00,381.00,VWS V14.00,2013-04-18 13:17:00,
2013-04-18 09:18:00,74.7,68.1,30.08,NNE,23,4.0,4.0,80,0.00,,---,0.00,394.00,VWS V14.00,2013-04-18 13:18:00,
2013-04-18 09:19:00,74.6,68.0,30.08,ENE,58,4.0,5.0,80,0.00,,---,0.00,394.00,VWS V14.00,2013-04-18 13:19:00,
2013-04-18 09:20:00,74.4,67.8,30.08,ENE,58,3.0,5.0,80,0.00,,---,0.00,392.00,VWS V14.00,2013-04-18 13:20:00,
2013-04-18 09:21:00,74.3,67.7,30.08,ENE,58,4.0,5.0,80,0.00,,---,0.00,394.00,VWS V14.00,2013-04-18 13:21:00,
2013-04-18 09:22:00,74.2,67.6,30.08,ENE,58,3.0,5.0,80,0.00,,---,0.00,397.00,VWS V14.00,2013-04-18 13:22:00,
2013-04-18 09:23:00,74.2,68.0,30.08,ENE,58,3.0,5.0,81,0.00,,---,0.00,369.00,VWS V14.00,2013-04-18 13:23:00,
2013-04-18 09:24:00,74.1,67.9,30.08,ENE,58,2.0,5.0,81,0.00,,---,0.00,401.00,VWS V14.00,2013-04-18 13:24:00,
2013-04-18 09:25:00,74.1,67.9,30.08,East,93,3.0,6.0,81,0.00,,---,0.00,404.00,VWS V14.00,2013-04-18 13:25:00,
2013-04-18 09:26:00,74.1,67.9,30.08,East,93,3.0,6.0,81,0.00,,---,0.00,399.00,VWS V14.00,2013-04-18 13:26:00,
2013-04-18 09:27:00,74.1,67.9,30.08,East,93,2.0,6.0,81,0.00,,---,0.00,422.00,VWS V14.00,2013-04-18 13:27:00,
2013-04-18 09:28:00,74.1,67.9,30.08,East,93,3.0,6.0,81,0.00,,---,0.00,355.00,VWS V14.00,2013-04-18 13:28:00,
2013-04-18 09:29:00,74.2,68.0,30.08,ESE,103,2.0,6.0,81,0.00,,---,0.00,445.00,VWS V14.00,2013-04-18 13:29:00,
2013-04-18 09:30:00,74.2,67.6,30.08,ESE,103,2.0,6.0,80,0.00,,---,0.00,450.00,VWS V14.00,2013-04-18 13:30:00,
2013-04-18 09:31:00,74.3,67.7,30.08,ESE,103,2.0,4.0,80,0.00,,---,0.00,439.00,VWS V14.00,2013-04-18 13:31:00,
2013-04-18 09:32:00,74.4,67.8,30.08,ESE,103,5.0,5.0,80,0.00,,---,0.00,450.00,VWS V14.00,2013-04-18 13:32:00,
2013-04-18 09:33:00,74.5,67.9,30.08,East,100,6.0,6.0,80,0.00,,---,0.00,438.00,VWS V14.00,2013-04-18 13:33:00,
2013-04-18 09:34:00,74.5,67.6,30.07,East,100,4.0,6.0,79,0.00,,---,0.00,438.00,VWS V14.00,2013-04-18 13:34:00,
2013-04-18 09:35:00,74.6,67.7,30.07,East,101,5.0,6.0,79,0.00,,---,0.00,438.00,VWS V14.00,2013-04-18 13:35:00,
2013-04-18 09:36:00,74.7,67.8,30.07,East,101,5.0,6.0,79,0.00,,---,0.00,459.00,VWS V14.00,2013-04-18 13:36:00,
2013-04-18 09:37:00,74.7,68.1,30.08,East,101,4.0,6.0,80,0.00,,---,0.00,464.00,VWS V14.00,2013-04-18 13:37:00,
2013-04-18 09:38:00,74.8,67.9,30.08,East,101,6.0,6.0,79,0.00,,---,0.00,471.00,VWS V14.00,2013-04-18 13:38:00,
2013-04-18 09:39:00,74.8,67.9,30.08,East,90,5.0,7.0,79,0.00,,---,0.00,471.00,VWS V14.00,2013-04-18 13:39:00,
2013-04-18 09:40:00,74.8,68.2,30.08,East,83,6.0,7.0,80,0.00,,---,0.00,109.00,VWS V14.00,2013-04-18 13:40:00,
2013-04-18 09:41:00,74.8,67.9,30.08,East,81,5.0,7.0,79,0.00,,---,0.00,111.00,VWS V14.00,2013-04-18 13:41:00,
2013-04-18 09:42:00,74.7,67.8,30.08,East,81,5.0,7.0,79,0.00,,---,0.00,113.00,VWS V14.00,2013-04-18 13:42:00,
2013-04-18 09:43:00,74.6,68.0,30.08,East,81,5.0,7.0,80,0.00,,---,0.00,118.00,VWS V14.00,2013-04-18 13:43:00,
2013-04-18 09:44:00,74.6,68.0,30.08,East,81,4.0,7.0,80,0.00,,---,0.00,148.00,VWS V14.00,2013-04-18 13:44:00,
2013-04-18 09:45:00,74.5,67.9,30.08,East,81,4.0,7.0,80,0.00,,---,0.00,156.00,VWS V14.00,2013-04-18 13:45:00,
2013-04-18 09:46:00,74.5,67.9,30.08,East,81,4.0,7.0,80,0.00,,---,0.00,163.00,VWS V14.00,2013-04-18 13:46:00,
2013-04-18 09:47:00,74.5,67.9,30.08,East,81,3.0,7.0,80,0.00,,---,0.00,163.00,VWS V14.00,2013-04-18 13:47:00,
2013-04-18 09:48:00,74.5,67.9,30.08,East,81,3.0,7.0,80,0.00,,---,0.00,163.00,VWS V14.00,2013-04-18 13:48:00,
2013-04-18 09:49:00,74.4,67.8,30.08,East,81,3.0,7.0,80,0.00,,---,0.00,163.00,VWS V14.00,2013-04-18 13:49:00,
2013-04-18 09:50:00,74.4,67.8,30.08,East,81,3.0,7.0,80,0.00,,---,0.00,156.00,VWS V14.00,2013-04-18 13:50:00,
2013-04-18 09:51:00,74.3,67.7,30.08,East,81,3.0,7.0,80,0.00,,---,0.00,156.00,VWS V14.00,2013-04-18 13:51:00,
2013-04-18 09:52:00,74.3,67.7,30.08,East,81,4.0,7.0,80,0.00,,---,0.00,163.00,VWS V14.00,2013-04-18 13:52:00,
2013-04-18 09:53:00,74.2,68.0,30.08,East,81,4.0,7.0,81,0.00,,---,0.00,169.00,VWS V14.00,2013-04-18 13:53:00,
2013-04-18 09:54:00,74.2,67.6,30.08,East,81,3.0,7.0,80,0.00,,---,0.00,171.00,VWS V14.00,2013-04-18 13:54:00,
2013-04-18 09:55:00,74.2,67.6,30.08,East,81,3.0,7.0,80,0.00,,---,0.00,171.00,VWS V14.00,2013-04-18 13:55:00,
2013-04-18 09:56:00,74.2,68.0,30.08,East,81,3.0,7.0,81,0.00,,---,0.00,149.00,VWS V14.00,2013-04-18 13:56:00,
2013-04-18 09:57:00,74.1,67.5,30.08,East,81,3.0,7.0,80,0.00,,---,0.00,139.00,VWS V14.00,2013-04-18 13:57:00,
2013-04-18 09:58:00,74.1,67.5,30.08,East,81,3.0,7.0,80,0.00,,---,0.00,127.00,VWS V14.00,2013-04-18 13:58:00,
2013-04-18 09:59:00,74.1,67.9,30.08,East,81,3.0,7.0,81,0.00,,---,0.00,120.00,VWS V14.00,2013-04-18 13:59:00,
2013-04-18 10:00:00,74.1,67.9,30.08,East,81,4.0,7.0,81,0.00,,---,0.00,118.00,VWS V14.00,2013-04-18 14:00:00,
2013-04-18 10:01:00,74.1,68.3,30.08,East,81,5.0,6.0,82,0.00,,---,0.00,149.00,VWS V14.00,2013-04-18 14:01:00,
2013-04-18 10:02:00,74.0,67.8,30.08,East,81,4.0,6.0,81,0.00,,---,0.00,179.00,VWS V14.00,2013-04-18 14:02:00,
2013-04-18 10:03:00,74.0,67.8,30.08,East,81,5.0,6.0,81,0.00,,---,0.00,223.00,VWS V14.00,2013-04-18 14:03:00,
2013-04-18 10:04:00,74.0,67.8,30.08,East,81,4.0,6.0,81,0.00,,---,0.00,262.00,VWS V14.00,2013-04-18 14:04:00,
2013-04-18 10:05:00,74.0,67.8,30.08,East,81,6.0,6.0,81,0.00,,---,0.00,288.00,VWS V14.00,2013-04-18 14:05:00,
2013-04-18 10:06:00,74.0,67.8,30.08,East,81,5.0,6.0,81,0.00,,---,0.00,288.00,VWS V14.00,2013-04-18 14:06:00,
2013-04-18 10:07:00,74.1,67.9,30.08,East,81,5.0,6.0,81,0.00,,---,0.00,288.00,VWS V14.00,2013-04-18 14:07:00,
2013-04-18 10:08:00,74.2,68.0,30.08,East,81,5.0,6.0,81,0.00,,---,0.00,288.00,VWS V14.00,2013-04-18 14:08:00,
2013-04-18 10:09:00,74.3,67.7,30.08,East,81,4.0,6.0,80,0.00,,---,0.00,288.00,VWS V14.00,2013-04-18 14:09:00,
2013-04-18 10:10:00,74.3,67.7,30.08,East,81,4.0,6.0,80,0.00,,---,0.00,276.00,VWS V14.00,2013-04-18 14:10:00,
2013-04-18 10:11:00,74.4,68.2,30.08,East,81,4.0,6.0,81,0.00,,---,0.00,276.00,VWS V14.00,2013-04-18 14:11:00,
2013-04-18 10:12:00,74.5,68.3,30.08,East,81,3.0,6.0,81,0.00,,---,0.00,605.00,VWS V14.00,2013-04-18 14:12:00,
2013-04-18 10:13:00,74.6,68.4,30.08,East,81,4.0,6.0,81,0.00,,---,0.00,606.00,VWS V14.00,2013-04-18 14:13:00,
2013-04-18 10:14:00,74.8,68.2,30.08,East,81,4.0,6.0,80,0.00,,---,0.00,587.00,VWS V14.00,2013-04-18 14:14:00,
2013-04-18 10:15:00,74.9,68.3,30.08,East,81,4.0,6.0,80,0.00,,---,0.00,584.00,VWS V14.00,2013-04-18 14:15:00,
2013-04-18 10:16:00,75.1,68.5,30.08,East,81,3.0,6.0,80,0.00,,---,0.00,587.00,VWS V14.00,2013-04-18 14:16:00,
2013-04-18 10:17:00,75.2,68.2,30.08,East,81,4.0,6.0,79,0.00,,---,0.00,591.00,VWS V14.00,2013-04-18 14:17:00,
2013-04-18 10:18:00,75.2,67.9,30.08,East,81,4.0,6.0,78,0.00,,---,0.00,596.00,VWS V14.00,2013-04-18 14:18:00,
2013-04-18 10:19:00,75.2,67.9,30.08,East,81,2.0,6.0,78,0.00,,---,0.00,591.00,VWS V14.00,2013-04-18 14:19:00,
2013-04-18 10:20:00,75.2,68.2,30.08,East,81,2.0,6.0,79,0.00,,---,0.00,575.00,VWS V14.00,2013-04-18 14:20:00,
2013-04-18 10:21:00,75.3,68.3,30.08,East,81,2.0,6.0,79,0.00,,---,0.00,578.00,VWS V14.00,2013-04-18 14:21:00,
2013-04-18 10:22:00,75.3,68.3,30.08,East,81,4.0,6.0,79,0.00,,---,0.00,592.00,VWS V14.00,2013-04-18 14:22:00,
2013-04-18 10:23:00,75.3,68.3,30.08,East,81,3.0,6.0,79,0.00,,---,0.00,621.00,VWS V14.00,2013-04-18 14:23:00,
2013-04-18 10:24:00,75.3,68.3,30.08,East,81,4.0,6.0,79,0.00,,---,0.00,643.00,VWS V14.00,2013-04-18 14:24:00,
2013-04-18 10:25:00,75.4,68.1,30.08,East,81,2.0,6.0,78,0.00,,---,0.00,643.00,VWS V14.00,2013-04-18 14:25:00,
2013-04-18 10:26:00,75.4,68.1,30.08,East,81,4.0,6.0,78,0.00,,---,0.00,680.00,VWS V14.00,2013-04-18 14:26:00,
2013-04-18 10:27:00,75.5,68.2,30.08,East,81,5.0,6.0,78,0.00,,---,0.00,729.00,VWS V14.00,2013-04-18 14:27:00,
2013-04-18 10:28:00,75.5,68.2,30.08,East,81,4.0,6.0,78,0.00,,---,0.00,666.00,VWS V14.00,2013-04-18 14:28:00,
2013-04-18 10:29:00,75.6,68.3,30.08,East,81,4.0,6.0,78,0.00,,---,0.00,687.00,VWS V14.00,2013-04-18 14:29:00,
2013-04-18 10:30:00,75.7,68.4,30.08,East,80,5.0,6.0,78,0.00,,---,0.00,687.00,VWS V14.00,2013-04-18 14:30:00,
2013-04-18 10:31:00,75.8,68.5,30.08,ENE,78,5.0,6.0,78,0.00,,---,0.00,199.00,VWS V14.00,2013-04-18 14:31:00,
2013-04-18 10:32:00,75.8,68.1,30.08,ENE,68,7.0,8.0,77,0.00,,---,0.00,200.00,VWS V14.00,2013-04-18 14:32:00,
2013-04-18 10:33:00,75.8,68.5,30.08,ENE,71,7.0,8.0,78,0.00,,---,0.00,211.00,VWS V14.00,2013-04-18 14:33:00,
2013-04-18 10:34:00,75.8,68.1,30.08,ENE,73,7.0,8.0,77,0.00,,---,0.00,218.00,VWS V14.00,2013-04-18 14:34:00,
2013-04-18 10:35:00,75.7,68.4,30.08,ENE,78,6.0,8.0,78,0.00,,---,0.00,250.00,VWS V14.00,2013-04-18 14:35:00,
2013-04-18 10:36:00,75.6,68.3,30.08,ENE,76,7.0,8.0,78,0.00,,---,0.00,258.00,VWS V14.00,2013-04-18 14:36:00,
2013-04-18 10:37:00,75.6,68.3,30.08,ENE,76,7.0,8.0,78,0.00,,---,0.00,287.00,VWS V14.00,2013-04-18 14:37:00,
2013-04-18 10:38:00,75.5,68.2,30.08,ENE,74,7.0,8.0,78,0.00,,---,0.00,287.00,VWS V14.00,2013-04-18 14:38:00,
2013-04-18 10:39:00,75.5,68.2,30.08,ENE,75,7.0,8.0,78,0.00,,---,0.00,244.00,VWS V14.00,2013-04-18 14:39:00,
2013-04-18 10:40:00,75.5,68.2,30.08,ENE,76,9.0,10.0,78,0.00,,---,0.00,244.00,VWS V14.00,2013-04-18 14:40:00,
2013-04-18 10:41:00,75.5,68.2,30.08,ENE,70,6.0,10.0,78,0.00,,---,0.00,244.00,VWS V14.00,2013-04-18 14:41:00,
2013-04-18 10:42:00,75.5,67.8,30.08,ENE,77,6.0,10.0,77,0.00,,---,0.00,879.00,VWS V14.00,2013-04-18 14:42:00,
2013-04-18 10:43:00,75.5,67.8,30.08,ENE,77,5.0,10.0,77,0.00,,---,0.00,290.00,VWS V14.00,2013-04-18 14:43:00,
2013-04-18 10:44:00,75.5,67.8,30.08,ENE,77,5.0,10.0,77,0.00,,---,0.00,316.00,VWS V14.00,2013-04-18 14:44:00,
2013-04-18 10:45:00,75.6,68.3,30.08,ENE,77,6.0,10.0,78,0.00,,---,0.00,348.00,VWS V14.00,2013-04-18 14:45:00,
2013-04-18 10:46:00,75.6,68.3,30.08,ENE,77,6.0,10.0,78,0.00,,---,0.00,348.00,VWS V14.00,2013-04-18 14:46:00,
2013-04-18 10:47:00,75.7,68.4,30.08,ENE,77,6.0,10.0,78,0.00,,---,0.00,914.00,VWS V14.00,2013-04-18 14:47:00,
2013-04-18 10:48:00,75.7,68.4,30.08,ENE,75,7.0,10.0,78,0.00,,---,0.00,947.00,VWS V14.00,2013-04-18 14:48:00,
2013-04-18 10:49:00,75.8,68.1,30.08,ENE,76,6.0,10.0,77,0.00,,---,0.00,919.00,VWS V14.00,2013-04-18 14:49:00,
2013-04-18 10:50:00,75.9,68.2,30.08,ENE,76,6.0,10.0,77,0.00,,---,0.00,900.00,VWS V14.00,2013-04-18 14:50:00,
2013-04-18 10:51:00,75.9,68.2,30.08,ENE,75,7.0,10.0,77,0.00,,---,0.00,882.00,VWS V14.00,2013-04-18 14:51:00,
2013-04-18 10:52:00,76.0,68.3,30.07,ENE,72,7.0,10.0,77,0.00,,---,0.00,882.00,VWS V14.00,2013-04-18 14:52:00,
2013-04-18 10:53:00,76.0,67.9,30.08,ENE,70,7.0,10.0,76,0.00,,---,0.00,882.00,VWS V14.00,2013-04-18 14:53:00,
2013-04-18 10:54:00,76.1,67.6,30.08,ENE,67,7.0,10.0,75,0.00,,---,0.00,940.00,VWS V14.00,2013-04-18 14:54:00,
2013-04-18 10:55:00,76.2,67.7,30.08,ENE,70,5.0,10.0,75,0.00,,---,0.00,940.00,VWS V14.00,2013-04-18 14:55:00,
2013-04-18 10:56:00,76.3,67.8,30.07,ENE,73,5.0,10.0,75,0.00,,---,0.00,932.00,VWS V14.00,2013-04-18 14:56:00,
2013-04-18 10:57:00,76.3,68.2,30.07,ENE,71,5.0,10.0,76,0.00,,---,0.00,932.00,VWS V14.00,2013-04-18 14:57:00,
2013-04-18 10:58:00,76.4,67.9,30.07,ENE,70,7.0,10.0,75,0.00,,---,0.00,932.00,VWS V14.00,2013-04-18 14:58:00,
2013-04-18 10:59:00,76.5,67.6,30.07,ENE,72,5.0,10.0,74,0.00,,---,0.00,932.00,VWS V14.00,2013-04-18 14:59:00,
2013-04-18 11:00:00,76.5,67.2,30.07,ENE,70,4.0,10.0,73,0.00,,---,0.00,313.00,VWS V14.00,2013-04-18 15:00:00,
2013-04-18 11:01:00,76.6,67.3,30.07,ENE,70,3.0,5.0,73,0.00,,---,0.00,313.00,VWS V14.00,2013-04-18 15:01:00,
2013-04-18 11:02:00,76.7,67.4,30.07,ENE,70,0.0,5.0,73,0.00,,---,0.00,904.00,VWS V14.00,2013-04-18 15:02:00,
2013-04-18 11:03:00,76.7,67.4,30.07,ENE,70,2.0,5.0,73,0.00,,---,0.00,868.00,VWS V14.00,2013-04-18 15:03:00,
2013-04-18 11:04:00,76.9,67.2,30.07,ENE,74,3.0,7.0,72,0.00,,---,0.00,889.00,VWS V14.00,2013-04-18 15:04:00,
2013-04-18 11:05:00,77.0,67.3,30.07,ENE,74,3.0,7.0,72,0.00,,---,0.00,918.00,VWS V14.00,2013-04-18 15:05:00,
2013-04-18 11:06:00,77.2,67.5,30.07,ENE,77,3.0,7.0,72,0.00,,---,0.00,951.00,VWS V14.00,2013-04-18 15:06:00,
2013-04-18 11:07:00,77.3,67.2,30.07,ENE,76,5.0,7.0,71,0.00,,---,0.00,951.00,VWS V14.00,2013-04-18 15:07:00,
2013-04-18 11:08:00,77.4,67.3,30.07,ENE,76,2.0,7.0,71,0.00,,---,0.00,272.00,VWS V14.00,2013-04-18 15:08:00,
2013-04-18 11:09:00,77.4,67.3,30.07,ENE,75,6.0,7.0,71,0.00,,---,0.00,283.00,VWS V14.00,2013-04-18 15:09:00,
2013-04-18 11:10:00,77.5,67.4,30.07,East,87,8.0,10.0,71,0.00,,---,0.00,294.00,VWS V14.00,2013-04-18 15:10:00,
2013-04-18 11:11:00,77.5,66.9,30.07,ESE,106,10.0,11.0,70,0.00,,---,0.00,329.00,VWS V14.00,2013-04-18 15:11:00,
2013-04-18 11:12:00,77.5,66.9,30.07,ESE,102,7.0,11.0,70,0.00,,---,0.00,329.00,VWS V14.00,2013-04-18 15:12:00,
2013-04-18 11:13:00,77.5,67.4,30.07,East,93,8.0,11.0,71,0.00,,---,0.00,1028.00,VWS V14.00,2013-04-18 15:13:00,
2013-04-18 11:14:00,77.4,66.9,30.07,East,100,7.0,11.0,70,0.00,,---,0.00,1028.00,VWS V14.00,2013-04-18 15:14:00,
2013-04-18 11:15:00,77.4,66.4,30.07,East,97,6.0,11.0,69,0.00,,---,0.00,1028.00,VWS V14.00,2013-04-18 15:15:00,
2013-04-18 11:16:00,77.4,66.4,30.07,East,96,6.0,11.0,69,0.00,,---,0.00,1028.00,VWS V14.00,2013-04-18 15:16:00,
2013-04-18 11:17:00,77.4,66.9,30.07,East,83,7.0,11.0,70,0.00,,---,0.00,332.00,VWS V14.00,2013-04-18 15:17:00,
2013-04-18 11:18:00,77.4,66.0,30.07,East,99,6.0,11.0,68,0.00,,---,0.00,332.00,VWS V14.00,2013-04-18 15:18:00,
2013-04-18 11:19:00,77.4,66.4,30.07,East,97,9.0,11.0,69,0.00,,---,0.00,332.00,VWS V14.00,2013-04-18 15:19:00,
2013-04-18 11:20:00,77.5,66.1,30.07,ESE,106,11.0,11.0,68,0.00,,---,0.00,1035.00,VWS V14.00,2013-04-18 15:20:00,
2013-04-18 11:21:00,77.6,65.8,30.07,ESE,121,10.0,11.0,67,0.00,,---,0.00,1035.00,VWS V14.00,2013-04-18 15:21:00,
2013-04-18 11:22:00,77.6,65.3,30.07,SE,131,8.0,11.0,66,0.00,,---,0.00,879.00,VWS V14.00,2013-04-18 15:22:00,
2013-04-18 11:23:00,77.7,65.9,30.07,ESE,112,8.0,11.0,67,0.00,,---,0.00,879.00,VWS V14.00,2013-04-18 15:23:00,
2013-04-18 11:24:00,77.8,66.0,30.07,ESE,103,4.0,11.0,67,0.00,,---,0.00,879.00,VWS V14.00,2013-04-18 15:24:00,
2013-04-18 11:25:00,77.8,66.0,30.07,East,97,7.0,11.0,67,0.00,,---,0.00,879.00,VWS V14.00,2013-04-18 15:25:00,
2013-04-18 11:26:00,77.8,66.0,30.07,East,81,6.0,11.0,67,0.00,,---,0.00,1005.00,VWS V14.00,2013-04-18 15:26:00,
2013-04-18 11:27:00,77.8,66.0,30.07,East,91,6.0,11.0,67,0.00,,---,0.00,998.00,VWS V14.00,2013-04-18 15:27:00,
2013-04-18 11:28:00,77.7,67.1,30.07,East,96,11.0,11.0,70,0.00,,---,0.00,998.00,VWS V14.00,2013-04-18 15:28:00,
2013-04-18 11:29:00,77.6,66.6,30.06,ESE,112,8.0,11.0,69,0.00,,---,0.00,998.00,VWS V14.00,2013-04-18 15:29:00,
2013-04-18 11:30:00,77.6,66.2,30.06,East,99,9.0,11.0,68,0.00,,---,0.00,974.00,VWS V14.00,2013-04-18 15:30:00,
2013-04-18 11:31:00,77.6,66.2,30.06,ESE,114,11.0,13.0,68,0.00,,---,0.00,997.00,VWS V14.00,2013-04-18 15:31:00,
2013-04-18 11:32:00,77.6,65.8,30.07,ESE,113,9.0,13.0,67,0.00,,---,0.00,1009.00,VWS V14.00,2013-04-18 15:32:00,
2013-04-18 11:33:00,77.6,65.8,30.07,ESE,105,10.0,13.0,67,0.00,,---,0.00,1016.00,VWS V14.00,2013-04-18 15:33:00,
2013-04-18 11:34:00,77.7,65.4,30.07,ESE,109,7.0,13.0,66,0.00,,---,0.00,1004.00,VWS V14.00,2013-04-18 15:34:00,
2013-04-18 11:35:00,77.7,65.9,30.07,East,101,8.0,13.0,67,0.00,,---,0.00,981.00,VWS V14.00,2013-04-18 15:35:00,
2013-04-18 11:36:00,77.7,66.3,30.07,East,87,11.0,13.0,68,0.00,,---,0.00,981.00,VWS V14.00,2013-04-18 15:36:00,
2013-04-18 11:37:00,77.6,67.1,30.07,East,88,9.0,13.0,70,0.00,,---,0.00,162.00,VWS V14.00,2013-04-18 15:37:00,
2013-04-18 11:38:00,77.4,67.3,30.07,ENE,77,9.0,13.0,71,0.00,,---,0.00,163.00,VWS V14.00,2013-04-18 15:38:00,
2013-04-18 11:39:00,77.2,67.5,30.07,East,85,8.0,13.0,72,0.00,,---,0.00,171.00,VWS V14.00,2013-04-18 15:39:00,
2013-04-18 11:40:00,77.0,67.3,30.07,East,89,7.0,13.0,72,0.00,,---,0.00,178.00,VWS V14.00,2013-04-18 15:40:00,
2013-04-18 11:41:00,76.9,67.6,30.07,East,89,7.0,13.0,73,0.00,,---,0.00,218.00,VWS V14.00,2013-04-18 15:41:00,
2013-04-18 11:42:00,76.8,67.1,30.07,East,85,5.0,13.0,72,0.00,,---,0.00,230.00,VWS V14.00,2013-04-18 15:42:00,
2013-04-18 11:43:00,76.7,67.4,30.07,East,79,10.0,13.0,73,0.00,,---,0.00,241.00,VWS V14.00,2013-04-18 15:43:00,
2013-04-18 11:44:00,76.7,67.4,30.07,East,93,10.0,13.0,73,0.00,,---,0.00,248.00,VWS V14.00,2013-04-18 15:44:00,
2013-04-18 11:45:00,76.8,66.3,30.07,East,89,7.0,13.0,70,0.00,,---,0.00,229.00,VWS V14.00,2013-04-18 15:45:00,
2013-04-18 11:46:00,76.9,66.8,30.07,East,87,7.0,13.0,71,0.00,,---,0.00,211.00,VWS V14.00,2013-04-18 15:46:00,
2013-04-18 11:47:00,76.9,67.2,30.07,East,91,8.0,13.0,72,0.00,,---,0.00,258.00,VWS V14.00,2013-04-18 15:47:00,
2013-04-18 11:48:00,76.9,67.2,30.07,East,87,6.0,13.0,72,0.00,,---,0.00,336.00,VWS V14.00,2013-04-18 15:48:00,
2013-04-18 11:49:00,76.9,67.6,30.07,East,91,9.0,13.0,73,0.00,,---,0.00,336.00,VWS V14.00,2013-04-18 15:49:00,
2013-04-18 11:50:00,76.9,68.0,30.07,East,88,9.0,13.0,74,0.00,,---,0.00,336.00,VWS V14.00,2013-04-18 15:50:00,
2013-04-18 11:51:00,76.9,68.0,30.07,East,91,7.0,13.0,74,0.00,,---,0.00,1155.00,VWS V14.00,2013-04-18 15:51:00,
2013-04-18 11:52:00,76.9,67.6,30.07,East,97,6.0,13.0,73,0.00,,---,0.00,1121.00,VWS V14.00,2013-04-18 15:52:00,
2013-04-18 11:53:00,76.9,67.2,30.07,East,98,2.0,13.0,72,0.00,,---,0.00,1072.00,VWS V14.00,2013-04-18 15:53:00,
2013-04-18 11:54:00,77.0,67.7,30.07,ENE,74,10.0,13.0,73,0.00,,---,0.00,1063.00,VWS V14.00,2013-04-18 15:54:00,
2013-04-18 11:55:00,77.1,67.8,30.07,ENE,75,9.0,13.0,73,0.00,,---,0.00,1058.00,VWS V14.00,2013-04-18 15:55:00,
2013-04-18 11:56:00,77.1,67.8,30.07,ENE,77,8.0,13.0,73,0.00,,---,0.00,1055.00,VWS V14.00,2013-04-18 15:56:00,
2013-04-18 11:57:00,77.2,67.9,30.07,ENE,76,11.0,13.0,73,0.00,,---,0.00,1081.00,VWS V14.00,2013-04-18 15:57:00,
2013-04-18 11:58:00,77.3,68.0,30.07,ENE,72,11.0,13.0,73,0.00,,---,0.00,1081.00,VWS V14.00,2013-04-18 15:58:00,
2013-04-18 11:59:00,77.3,67.6,30.07,East,91,10.0,15.0,72,0.00,,---,0.00,267.00,VWS V14.00,2013-04-18 15:59:00,
2013-04-18 12:00:00,77.3,67.6,30.07,East,82,11.0,12.0,72,0.00,,---,0.00,288.00,VWS V14.00,2013-04-18 16:00:00,
2013-04-18 12:01:00,77.3,66.8,30.07,East,79,9.0,12.0,70,0.00,,---,0.00,288.00,VWS V14.00,2013-04-18 16:01:00,
2013-04-18 12:02:00,77.3,67.2,30.07,East,83,7.0,12.0,71,0.00,,---,0.00,434.00,VWS V14.00,2013-04-18 16:02:00,
2013-04-18 12:03:00,77.3,67.6,30.06,East,93,8.0,12.0,72,0.00,,---,0.00,434.00,VWS V14.00,2013-04-18 16:03:00,
2013-04-18 12:04:00,77.3,67.2,30.06,East,89,10.0,13.0,71,0.00,,---,0.00,301.00,VWS V14.00,2013-04-18 16:04:00,
2013-04-18 12:05:00,77.3,67.2,30.06,East,90,10.0,13.0,71,0.00,,---,0.00,294.00,VWS V14.00,2013-04-18 16:05:00,
2013-04-18 12:06:00,77.3,67.2,30.06,East,92,8.0,13.0,71,0.00,,---,0.00,297.00,VWS V14.00,2013-04-18 16:06:00,
2013-04-18 12:07:00,77.3,66.8,30.06,East,86,7.0,13.0,70,0.00,,---,0.00,329.00,VWS V14.00,2013-04-18 16:07:00,
2013-04-18 12:08:00,77.4,66.4,30.06,East,93,7.0,13.0,69,0.00,,---,0.00,329.00,VWS V14.00,2013-04-18 16:08:00,
2013-04-18 12:09:00,77.5,66.5,30.06,East,99,4.0,13.0,69,0.00,,---,0.00,431.00,VWS V14.00,2013-04-18 16:09:00,
2013-04-18 12:10:00,77.5,66.5,30.06,East,99,3.0,13.0,69,0.00,,---,0.00,371.00,VWS V14.00,2013-04-18 16:10:00,
2013-04-18 12:11:00,77.6,66.2,30.06,ESE,119,8.0,13.0,68,0.00,,---,0.00,267.00,VWS V14.00,2013-04-18 16:11:00,
2013-04-18 12:12:00,77.8,66.0,30.06,ESE,102,5.0,13.0,67,0.00,,---,0.00,258.00,VWS V14.00,2013-04-18 16:12:00,
2013-04-18 12:13:00,77.9,66.5,30.06,ESE,122,6.0,13.0,68,0.00,,---,0.00,327.00,VWS V14.00,2013-04-18 16:13:00,
2013-04-18 12:14:00,78.0,66.2,30.06,ESE,121,3.0,13.0,67,0.00,,---,0.00,327.00,VWS V14.00,2013-04-18 16:14:00,
2013-04-18 12:15:00,78.1,66.3,30.06,ESE,113,6.0,13.0,67,0.00,,---,0.00,327.00,VWS V14.00,2013-04-18 16:15:00,
2013-04-18 12:16:00,78.2,67.2,30.06,East,89,10.0,13.0,69,0.00,,---,0.00,327.00,VWS V14.00,2013-04-18 16:16:00,
2013-04-18 12:17:00,78.2,66.8,30.06,East,91,9.0,13.0,68,0.00,,---,0.00,1102.00,VWS V14.00,2013-04-18 16:17:00,
2013-04-18 12:18:00,78.1,66.7,30.06,ESE,106,4.0,13.0,68,0.00,,---,0.00,1093.00,VWS V14.00,2013-04-18 16:18:00,
2013-04-18 12:19:00,78.0,67.4,30.06,East,79,10.0,13.0,70,0.00,,---,0.00,1083.00,VWS V14.00,2013-04-18 16:19:00,
2013-04-18 12:20:00,78.0,67.4,30.06,ESE,112,6.0,13.0,70,0.00,,---,0.00,1090.00,VWS V14.00,2013-04-18 16:20:00,
2013-04-18 12:21:00,78.0,67.0,30.06,East,85,9.0,13.0,69,0.00,,---,0.00,1079.00,VWS V14.00,2013-04-18 16:21:00,
2013-04-18 12:22:00,78.0,67.0,30.05,East,89,10.0,13.0,69,0.00,,---,0.00,1071.00,VWS V14.00,2013-04-18 16:22:00,
2013-04-18 12:23:00,77.9,66.1,30.05,East,88,5.0,13.0,67,0.00,,---,0.00,1085.00,VWS V14.00,2013-04-18 16:23:00,
2013-04-18 12:24:00,77.9,66.9,30.05,East,91,6.0,13.0,69,0.00,,---,0.00,1120.00,VWS V14.00,2013-04-18 16:24:00,
2013-04-18 12:25:00,77.9,66.1,30.05,East,93,3.0,13.0,67,0.00,,---,0.00,1151.00,VWS V14.00,2013-04-18 16:25:00,
2013-04-18 12:26:00,77.9,66.5,30.05,ENE,66,5.0,13.0,68,0.00,,---,0.00,1176.00,VWS V14.00,2013-04-18 16:26:00,
2013-04-18 12:27:00,77.9,66.9,30.05,ENE,78,6.0,13.0,69,0.00,,---,0.00,1176.00,VWS V14.00,2013-04-18 16:27:00,
2013-04-18 12:28:00,78.1,67.1,30.05,East,79,8.0,13.0,69,0.00,,---,0.00,1176.00,VWS V14.00,2013-04-18 16:28:00,
2013-04-18 12:29:00,78.2,66.8,30.05,ENE,78,7.0,13.0,68,0.00,,---,0.00,1176.00,VWS V14.00,2013-04-18 16:29:00,
2013-04-18 12:30:00,78.3,66.9,30.05,East,81,8.0,13.0,68,0.00,,---,0.00,1176.00,VWS V14.00,2013-04-18 16:30:00,
2013-04-18 12:31:00,78.3,67.7,30.05,East,85,7.0,9.0,70,0.00,,---,0.00,1176.00,VWS V14.00,2013-04-18 16:31:00,
2013-04-18 12:32:00,78.3,66.9,30.05,East,91,9.0,9.0,68,0.00,,---,0.00,1197.00,VWS V14.00,2013-04-18 16:32:00,
2013-04-18 12:33:00,78.4,67.4,30.05,East,99,8.0,9.0,69,0.00,,---,0.00,1213.00,VWS V14.00,2013-04-18 16:33:00,
2013-04-18 12:34:00,78.4,66.6,30.05,SE,133,6.0,10.0,67,0.00,,---,0.00,1181.00,VWS V14.00,2013-04-18 16:34:00,
2013-04-18 12:35:00,78.5,65.8,30.05,SE,139,9.0,10.0,65,0.00,,---,0.00,1162.00,VWS V14.00,2013-04-18 16:35:00,
2013-04-18 12:36:00,78.8,66.1,30.05,SSE,158,3.0,10.0,65,0.00,,---,0.00,1137.00,VWS V14.00,2013-04-18 16:36:00,
2013-04-18 12:37:00,79.0,65.3,30.05,SSE,153,4.0,10.0,63,0.00,,---,0.00,1185.00,VWS V14.00,2013-04-18 16:37:00,
2013-04-18 12:38:00,79.2,66.0,30.05,SSE,151,5.0,10.0,64,0.00,,---,0.00,1185.00,VWS V14.00,2013-04-18 16:38:00,
2013-04-18 12:39:00,79.3,65.6,30.05,ESE,118,7.0,10.0,63,0.00,,---,0.00,390.00,VWS V14.00,2013-04-18 16:39:00,
2013-04-18 12:40:00,79.4,65.3,30.05,ESE,117,5.0,10.0,62,0.00,,---,0.00,390.00,VWS V14.00,2013-04-18 16:40:00,
2013-04-18 12:41:00,79.5,65.8,30.05,East,96,7.0,10.0,63,0.00,,---,0.00,390.00,VWS V14.00,2013-04-18 16:41:00,
2013-04-18 12:42:00,79.4,66.2,30.05,East,87,5.0,10.0,64,0.00,,---,0.00,390.00,VWS V14.00,2013-04-18 16:42:00,
2013-04-18 12:43:00,79.4,66.6,30.05,East,87,5.0,10.0,65,0.00,,---,0.00,1250.00,VWS V14.00,2013-04-18 16:43:00,
2013-04-18 12:44:00,79.3,66.5,30.05,ENE,78,8.0,10.0,65,0.00,,---,0.00,1269.00,VWS V14.00,2013-04-18 16:44:00,
2013-04-18 12:45:00,79.3,66.5,30.05,East,83,10.0,11.0,65,0.00,,---,0.00,1269.00,VWS V14.00,2013-04-18 16:45:00,
2013-04-18 12:46:00,79.1,66.8,30.05,East,89,10.0,13.0,66,0.00,,---,0.00,1269.00,VWS V14.00,2013-04-18 16:46:00,
2013-04-18 12:47:00,78.9,66.6,30.05,East,79,11.0,13.0,66,0.00,,---,0.00,1269.00,VWS V14.00,2013-04-18 16:47:00,
2013-04-18 12:48:00,78.8,66.5,30.05,ENE,60,13.0,15.0,66,0.00,,---,0.00,446.00,VWS V14.00,2013-04-18 16:48:00,
2013-04-18 12:49:00,78.7,66.4,30.05,ENE,72,12.0,17.0,66,0.00,,---,0.00,469.00,VWS V14.00,2013-04-18 16:49:00,
2013-04-18 12:50:00,78.7,66.8,30.05,East,79,14.0,17.0,67,0.00,,---,0.00,522.00,VWS V14.00,2013-04-18 16:50:00,
2013-04-18 12:51:00,78.6,67.6,30.05,ENE,77,9.0,17.0,69,0.00,,---,0.00,381.00,VWS V14.00,2013-04-18 16:51:00,
2013-04-18 12:52:00,78.5,67.1,30.04,ENE,73,13.0,17.0,68,0.00,,---,0.00,376.00,VWS V14.00,2013-04-18 16:52:00,
2013-04-18 12:53:00,78.5,66.2,30.04,East,81,10.0,17.0,66,0.00,,---,0.00,359.00,VWS V14.00,2013-04-18 16:53:00,
2013-04-18 12:54:00,78.5,66.2,30.04,ENE,75,14.0,17.0,66,0.00,,---,0.00,418.00,VWS V14.00,2013-04-18 16:54:00,
2013-04-18 12:55:00,78.4,67.0,30.05,ENE,76,12.0,17.0,68,0.00,,---,0.00,327.00,VWS V14.00,2013-04-18 16:55:00,
2013-04-18 12:56:00,78.4,67.0,30.04,East,89,15.0,17.0,68,0.00,,---,0.00,304.00,VWS V14.00,2013-04-18 16:56:00,
2013-04-18 12:57:00,78.3,66.4,30.04,East,85,13.0,17.0,67,0.00,,---,0.00,302.00,VWS V14.00,2013-04-18 16:57:00,
2013-04-18 12:58:00,78.2,66.8,30.04,East,81,14.0,17.0,68,0.00,,---,0.00,302.00,VWS V14.00,2013-04-18 16:58:00,
2013-04-18 12:59:00,78.1,67.1,30.04,East,79,16.0,19.0,69,0.00,,---,0.00,302.00,VWS V14.00,2013-04-18 16:59:00,
2013-04-18 13:00:00,78.0,67.0,30.04,East,82,16.0,19.0,69,0.00,,---,0.00,302.00,VWS V14.00,2013-04-18 17:00:00,
2013-04-18 13:01:00,78.1,66.7,30.04,East,81,16.0,17.0,68,0.00,,---,0.00,302.00,VWS V14.00,2013-04-18 17:01:00,
2013-04-18 13:02:00,78.1,65.8,30.04,East,90,11.0,17.0,66,0.00,,---,0.00,302.00,VWS V14.00,2013-04-18 17:02:00,
2013-04-18 13:03:00,78.2,66.4,30.04,East,83,9.0,17.0,67,0.00,,---,0.00,288.00,VWS V14.00,2013-04-18 17:03:00,
2013-04-18 13:04:00,78.2,67.2,30.04,East,87,13.0,17.0,69,0.00,,---,0.00,304.00,VWS V14.00,2013-04-18 17:04:00,
2013-04-18 13:05:00,78.1,67.1,30.04,East,89,11.0,17.0,69,0.00,,---,0.00,304.00,VWS V14.00,2013-04-18 17:05:00,
2013-04-18 13:06:00,78.0,67.0,30.04,East,89,13.0,17.0,69,0.00,,---,0.00,304.00,VWS V14.00,2013-04-18 17:06:00,
2013-04-18 13:07:00,78.0,67.0,30.04,East,87,14.0,17.0,69,0.00,,---,0.00,304.00,VWS V14.00,2013-04-18 17:07:00,
2013-04-18 13:08:00,78.0,67.0,30.04,East,89,10.0,17.0,69,0.00,,---,0.00,369.00,VWS V14.00,2013-04-18 17:08:00,
2013-04-18 13:09:00,78.0,67.0,30.04,East,86,14.0,17.0,69,0.00,,---,0.00,403.00,VWS V14.00,2013-04-18 17:09:00,
2013-04-18 13:10:00,78.0,66.6,30.04,ENE,78,14.0,17.0,68,0.00,,---,0.00,438.00,VWS V14.00,2013-04-18 17:10:00,
2013-04-18 13:11:00,78.0,66.6,30.04,East,81,12.0,17.0,68,0.00,,---,0.00,438.00,VWS V14.00,2013-04-18 17:11:00,
2013-04-18 13:12:00,78.0,66.6,30.04,ENE,78,17.0,17.0,68,0.00,,---,0.00,951.00,VWS V14.00,2013-04-18 17:12:00,
2013-04-18 13:13:00,78.1,67.1,30.04,East,81,15.0,17.0,69,0.00,,---,0.00,951.00,VWS V14.00,2013-04-18 17:13:00,
2013-04-18 13:14:00,78.0,67.0,30.04,East,83,12.0,17.0,69,0.00,,---,0.00,951.00,VWS V14.00,2013-04-18 17:14:00,
2013-04-18 13:15:00,78.0,67.0,30.04,East,79,12.0,17.0,69,0.00,,---,0.00,287.00,VWS V14.00,2013-04-18 17:15:00,
2013-04-18 13:16:00,77.9,66.5,30.04,East,82,10.0,17.0,68,0.00,,---,0.00,260.00,VWS V14.00,2013-04-18 17:16:00,
2013-04-18 13:17:00,77.9,67.3,30.04,East,79,13.0,17.0,70,0.00,,---,0.00,260.00,VWS V14.00,2013-04-18 17:17:00,
2013-04-18 13:18:00,77.9,66.9,30.04,East,80,13.0,17.0,69,0.00,,---,0.00,260.00,VWS V14.00,2013-04-18 17:18:00,
2013-04-18 13:19:00,77.9,66.9,30.04,East,82,12.0,17.0,69,0.00,,---,0.00,260.00,VWS V14.00,2013-04-18 17:19:00,
2013-04-18 13:20:00,78.0,66.6,30.04,East,81,14.0,17.0,68,0.00,,---,0.00,260.00,VWS V14.00,2013-04-18 17:20:00,
2013-04-18 13:21:00,78.1,66.3,30.04,East,89,13.0,17.0,67,0.00,,---,0.00,260.00,VWS V14.00,2013-04-18 17:21:00,
2013-04-18 13:22:00,78.2,66.4,30.03,East,89,9.0,17.0,67,0.00,,---,0.00,260.00,VWS V14.00,2013-04-18 17:22:00,
2013-04-18 13:23:00,78.4,66.6,30.03,ESE,123,6.0,17.0,67,0.00,,---,0.00,260.00,VWS V14.00,2013-04-18 17:23:00,
2013-04-18 13:24:00,78.5,66.2,30.04,East,99,8.0,17.0,66,0.00,,---,0.00,260.00,VWS V14.00,2013-04-18 17:24:00,
2013-04-18 13:25:00,78.7,66.0,30.04,East,101,11.0,17.0,65,0.00,,---,0.00,260.00,VWS V14.00,2013-04-18 17:25:00,
2013-04-18 13:26:00,78.9,66.2,30.04,East,87,10.0,17.0,65,0.00,,---,0.00,260.00,VWS V14.00,2013-04-18 17:26:00,
2013-04-18 13:27:00,78.9,66.6,30.04,East,99,10.0,17.0,66,0.00,,---,0.00,427.00,VWS V14.00,2013-04-18 17:27:00,
2013-04-18 13:28:00,78.9,66.2,30.04,East,81,11.0,17.0,65,0.00,,---,0.00,427.00,VWS V14.00,2013-04-18 17:28:00,
2013-04-18 13:29:00,78.9,66.6,30.03,East,101,6.0,17.0,66,0.00,,---,0.00,1255.00,VWS V14.00,2013-04-18 17:29:00,
2013-04-18 13:30:00,78.8,66.9,30.03,ESE,103,12.0,17.0,67,0.00,,---,0.00,1250.00,VWS V14.00,2013-04-18 17:30:00,
2013-04-18 13:31:00,78.9,65.2,30.03,East,92,8.0,14.0,63,0.00,,---,0.00,1248.00,VWS V14.00,2013-04-18 17:31:00,
2013-04-18 13:32:00,79.1,65.9,30.03,East,90,5.0,14.0,64,0.00,,---,0.00,1253.00,VWS V14.00,2013-04-18 17:32:00,
2013-04-18 13:33:00,79.3,67.4,30.03,ESE,110,9.0,14.0,67,0.00,,---,0.00,318.00,VWS V14.00,2013-04-18 17:33:00,
2013-04-18 13:34:00,79.4,67.5,30.03,East,97,7.0,14.0,67,0.00,,---,0.00,322.00,VWS V14.00,2013-04-18 17:34:00,
2013-04-18 13:35:00,79.5,66.7,30.03,East,99,12.0,14.0,65,0.00,,---,0.00,322.00,VWS V14.00,2013-04-18 17:35:00,
2013-04-18 13:36:00,79.4,66.2,30.03,East,83,14.0,14.0,64,0.00,,---,0.00,339.00,VWS V14.00,2013-04-18 17:36:00,
2013-04-18 13:37:00,79.3,66.5,30.03,East,89,12.0,14.0,65,0.00,,---,0.00,339.00,VWS V14.00,2013-04-18 17:37:00,
2013-04-18 13:38:00,79.2,66.4,30.03,ESE,103,7.0,14.0,65,0.00,,---,0.00,339.00,VWS V14.00,2013-04-18 17:38:00,
2013-04-18 13:39:00,79.1,66.3,30.03,ESE,122,12.0,14.0,65,0.00,,---,0.00,339.00,VWS V14.00,2013-04-18 17:39:00,
2013-04-18 13:40:00,79.2,65.5,30.03,ESE,116,7.0,14.0,63,0.00,,---,0.00,260.00,VWS V14.00,2013-04-18 17:40:00,
2013-04-18 13:41:00,79.4,65.7,30.03,ESE,104,6.0,14.0,63,0.00,,---,0.00,260.00,VWS V14.00,2013-04-18 17:41:00,
2013-04-18 13:42:00,79.5,65.8,30.03,ESE,113,16.0,16.0,63,0.00,,---,0.00,255.00,VWS V14.00,2013-04-18 17:42:00,
2013-04-18 13:43:00,79.6,65.4,30.03,East,92,12.0,16.0,62,0.00,,---,0.00,265.00,VWS V14.00,2013-04-18 17:43:00,
2013-04-18 13:44:00,79.6,65.9,30.03,East,98,12.0,17.0,63,0.00,,---,0.00,257.00,VWS V14.00,2013-04-18 17:44:00,
2013-04-18 13:45:00,79.5,65.8,30.03,ESE,114,13.0,17.0,63,0.00,,---,0.00,255.00,VWS V14.00,2013-04-18 17:45:00,
2013-04-18 13:46:00,79.6,65.4,30.03,ESE,114,9.0,17.0,62,0.00,,---,0.00,253.00,VWS V14.00,2013-04-18 17:46:00,
2013-04-18 13:47:00,79.7,65.5,30.03,ESE,110,7.0,17.0,62,0.00,,---,0.00,255.00,VWS V14.00,2013-04-18 17:47:00,
2013-04-18 13:48:00,79.8,65.6,30.03,ESE,113,6.0,17.0,62,0.00,,---,0.00,244.00,VWS V14.00,2013-04-18 17:48:00,
2013-04-18 13:49:00,80.0,66.3,30.03,East,98,8.0,17.0,63,0.00,,---,0.00,243.00,VWS V14.00,2013-04-18 17:49:00,
2013-04-18 13:50:00,79.9,67.5,30.03,East,98,8.0,17.0,66,0.00,,---,0.00,246.00,VWS V14.00,2013-04-18 17:50:00,
2013-04-18 13:51:00,79.7,66.0,30.03,SE,142,11.0,17.0,63,0.00,,---,0.00,255.00,VWS V14.00,2013-04-18 17:51:00,
2013-04-18 13:52:00,79.8,65.2,30.03,ESE,117,9.0,17.0,61,0.00,,---,0.00,271.00,VWS V14.00,2013-04-18 17:52:00,
2013-04-18 13:53:00,79.9,65.3,30.03,SSE,147,3.0,17.0,61,0.00,,---,0.00,278.00,VWS V14.00,2013-04-18 17:53:00,
2013-04-18 13:54:00,80.1,65.4,30.03,ESE,104,9.0,17.0,61,0.00,,---,0.00,285.00,VWS V14.00,2013-04-18 17:54:00,
2013-04-18 13:55:00,80.1,66.4,30.03,East,91,10.0,17.0,63,0.00,,---,0.00,299.00,VWS V14.00,2013-04-18 17:55:00,
2013-04-18 13:56:00,79.8,66.6,30.03,East,94,17.0,17.0,64,0.00,,---,0.00,350.00,VWS V14.00,2013-04-18 17:56:00,
2013-04-18 13:57:00,79.4,66.6,30.03,East,96,14.0,17.0,65,0.00,,---,0.00,364.00,VWS V14.00,2013-04-18 17:57:00,
2013-04-18 13:58:00,79.1,66.3,30.03,East,92,12.0,17.0,65,0.00,,---,0.00,364.00,VWS V14.00,2013-04-18 17:58:00,
2013-04-18 13:59:00,78.8,66.9,30.03,East,98,13.0,17.0,67,0.00,,---,0.00,364.00,VWS V14.00,2013-04-18 17:59:00,
2013-04-18 14:00:00,78.7,67.3,30.03,East,89,15.0,17.0,68,0.00,,---,0.00,1218.00,VWS V14.00,2013-04-18 18:00:00,
2013-04-18 14:01:00,78.5,66.6,30.03,East,84,11.0,15.0,67,0.00,,---,0.00,1218.00,VWS V14.00,2013-04-18 18:01:00,
2013-04-18 14:02:00,78.4,66.6,30.03,East,81,15.0,15.0,67,0.00,,---,0.00,336.00,VWS V14.00,2013-04-18 18:02:00,
2013-04-18 14:03:00,78.3,67.3,30.03,East,86,12.0,15.0,69,0.00,,---,0.00,334.00,VWS V14.00,2013-04-18 18:03:00,
2013-04-18 14:04:00,78.2,67.2,30.03,East,91,14.0,15.0,69,0.00,,---,0.00,336.00,VWS V14.00,2013-04-18 18:04:00,
2013-04-18 14:05:00,78.2,66.8,30.03,East,97,12.0,15.0,68,0.00,,---,0.00,332.00,VWS V14.00,2013-04-18 18:05:00,
2013-04-18 14:06:00,78.2,66.8,30.03,East,99,13.0,15.0,68,0.00,,---,0.00,383.00,VWS V14.00,2013-04-18 18:06:00,
2013-04-18 14:07:00,78.2,66.4,30.03,East,89,10.0,15.0,67,0.00,,---,0.00,1209.00,VWS V14.00,2013-04-18 18:07:00,
2013-04-18 14:08:00,78.2,66.8,30.03,ENE,75,12.0,15.0,68,0.00,,---,0.00,1223.00,VWS V14.00,2013-04-18 18:08:00,
2013-04-18 14:09:00,78.1,66.3,30.03,East,88,18.0,19.0,67,0.00,,---,0.00,1223.00,VWS V14.00,2013-04-18 18:09:00,
2013-04-18 14:10:00,78.1,66.3,30.03,East,89,16.0,19.0,67,0.00,,---,0.00,308.00,VWS V14.00,2013-04-18 18:10:00,
2013-04-18 14:11:00,78.1,66.3,30.03,East,91,15.0,19.0,67,0.00,,---,0.00,327.00,VWS V14.00,2013-04-18 18:11:00,
2013-04-18 14:12:00,78.2,66.4,30.03,East,84,16.0,19.0,67,0.00,,---,0.00,294.00,VWS V14.00,2013-04-18 18:12:00,
2013-04-18 14:13:00,78.1,66.3,30.03,East,83,13.0,19.0,67,0.00,,---,0.00,272.00,VWS V14.00,2013-04-18 18:13:00,
2013-04-18 14:14:00,78.0,66.6,30.03,East,81,16.0,19.0,68,0.00,,---,0.00,255.00,VWS V14.00,2013-04-18 18:14:00,
2013-04-18 14:15:00,78.0,66.2,30.03,East,90,14.0,19.0,67,0.00,,---,0.00,269.00,VWS V14.00,2013-04-18 18:15:00,
2013-04-18 14:16:00,78.1,65.4,30.03,ENE,78,13.0,19.0,65,0.00,,---,0.00,301.00,VWS V14.00,2013-04-18 18:16:00,
2013-04-18 14:17:00,78.2,66.4,30.03,East,101,14.0,19.0,67,0.00,,---,0.00,330.00,VWS V14.00,2013-04-18 18:17:00,
2013-04-18 14:18:00,78.5,66.2,30.03,East,97,13.0,19.0,66,0.00,,---,0.00,330.00,VWS V14.00,2013-04-18 18:18:00,
2013-04-18 14:19:00,78.7,66.8,30.03,East,85,16.0,19.0,67,0.00,,---,0.00,330.00,VWS V14.00,2013-04-18 18:19:00,
2013-04-18 14:20:00,78.8,66.1,30.03,East,90,18.0,19.0,65,0.00,,---,0.00,330.00,VWS V14.00,2013-04-18 18:20:00,
2013-04-18 14:21:00,78.8,66.5,30.03,East,86,15.0,19.0,66,0.00,,---,0.00,387.00,VWS V14.00,2013-04-18 18:21:00,
2013-04-18 14:22:00,78.7,66.0,30.03,East,85,14.0,19.0,65,0.00,,---,0.00,355.00,VWS V14.00,2013-04-18 18:22:00,
2013-04-18 14:23:00,78.6,65.4,30.02,East,93,12.0,19.0,64,0.00,,---,0.00,339.00,VWS V14.00,2013-04-18 18:23:00,
2013-04-18 14:24:00,78.8,66.1,30.02,ESE,103,9.0,19.0,65,0.00,,---,0.00,327.00,VWS V14.00,2013-04-18 18:24:00,
2013-04-18 14:25:00,79.0,65.8,30.02,East,91,9.0,19.0,64,0.00,,---,0.00,318.00,VWS V14.00,2013-04-18 18:25:00,
2013-04-18 14:26:00,79.1,65.9,30.02,East,87,12.0,19.0,64,0.00,,---,0.00,341.00,VWS V14.00,2013-04-18 18:26:00,
2013-04-18 14:27:00,79.1,65.9,30.02,East,87,15.0,19.0,64,0.00,,---,0.00,371.00,VWS V14.00,2013-04-18 18:27:00,
2013-04-18 14:28:00,79.0,65.8,30.02,East,94,8.0,19.0,64,0.00,,---,0.00,371.00,VWS V14.00,2013-04-18 18:28:00,
2013-04-18 14:29:00,79.0,66.7,30.02,East,85,11.0,19.0,66,0.00,,---,0.00,371.00,VWS V14.00,2013-04-18 18:29:00,
2013-04-18 14:30:00,78.9,66.6,30.02,East,91,16.0,19.0,66,0.00,,---,0.00,371.00,VWS V14.00,2013-04-18 18:30:00,
2013-04-18 14:31:00,78.9,65.7,30.02,East,97,13.0,18.0,64,0.00,,---,0.00,371.00,VWS V14.00,2013-04-18 18:31:00,
2013-04-18 14:32:00,78.8,66.5,30.02,East,95,12.0,18.0,66,0.00,,---,0.00,371.00,VWS V14.00,2013-04-18 18:32:00,
2013-04-18 14:33:00,78.8,66.5,30.02,East,96,12.0,18.0,66,0.00,,---,0.00,371.00,VWS V14.00,2013-04-18 18:33:00,
2013-04-18 14:34:00,78.6,66.7,30.02,East,93,13.0,18.0,67,0.00,,---,0.00,258.00,VWS V14.00,2013-04-18 18:34:00,
2013-04-18 14:35:00,78.5,66.6,30.02,East,89,14.0,18.0,67,0.00,,---,0.00,258.00,VWS V14.00,2013-04-18 18:35:00,
2013-04-18 14:36:00,78.3,66.4,30.02,East,84,16.0,18.0,67,0.00,,---,0.00,258.00,VWS V14.00,2013-04-18 18:36:00,
2013-04-18 14:37:00,78.2,66.4,30.02,East,85,16.0,19.0,67,0.00,,---,0.00,281.00,VWS V14.00,2013-04-18 18:37:00,
2013-04-18 14:38:00,78.1,66.3,30.01,East,95,11.0,19.0,67,0.00,,---,0.00,301.00,VWS V14.00,2013-04-18 18:38:00,
2013-04-18 14:39:00,78.1,66.3,30.01,East,82,15.0,19.0,67,0.00,,---,0.00,301.00,VWS V14.00,2013-04-18 18:39:00,
2013-04-18 14:40:00,78.1,66.3,30.01,East,83,17.0,19.0,67,0.00,,---,0.00,301.00,VWS V14.00,2013-04-18 18:40:00,
2013-04-18 14:41:00,78.1,66.7,30.01,East,83,18.0,19.0,68,0.00,,---,0.00,301.00,VWS V14.00,2013-04-18 18:41:00,
2013-04-18 14:42:00,78.1,66.7,30.01,East,94,14.0,19.0,68,0.00,,---,0.00,1121.00,VWS V14.00,2013-04-18 18:42:00,
2013-04-18 14:43:00,78.4,65.7,30.01,ESE,107,16.0,19.0,65,0.00,,---,0.00,1086.00,VWS V14.00,2013-04-18 18:43:00,
2013-04-18 14:44:00,78.7,66.4,30.01,East,90,13.0,19.0,66,0.00,,---,0.00,1088.00,VWS V14.00,2013-04-18 18:44:00,
2013-04-18 14:45:00,78.8,66.5,30.01,East,95,12.0,19.0,66,0.00,,---,0.00,1095.00,VWS V14.00,2013-04-18 18:45:00,
2013-04-18 14:46:00,78.8,66.5,30.01,East,86,17.0,19.0,66,0.00,,---,0.00,1111.00,VWS V14.00,2013-04-18 18:46:00,
2013-04-18 14:47:00,78.7,66.4,30.01,East,81,15.0,19.0,66,0.00,,---,0.00,1139.00,VWS V14.00,2013-04-18 18:47:00,
2013-04-18 14:48:00,78.6,66.7,30.01,East,81,20.0,22.0,67,0.00,,---,0.00,1146.00,VWS V14.00,2013-04-18 18:48:00,
2013-04-18 14:49:00,78.7,66.0,30.01,ESE,107,12.0,22.0,65,0.00,,---,0.00,1109.00,VWS V14.00,2013-04-18 18:49:00,
2013-04-18 14:50:00,78.9,66.2,30.01,ESE,106,7.0,22.0,65,0.00,,---,0.00,1109.00,VWS V14.00,2013-04-18 18:50:00,
2013-04-18 14:51:00,79.1,66.3,30.01,ESE,110,15.0,22.0,65,0.00,,---,0.00,478.00,VWS V14.00,2013-04-18 18:51:00,
2013-04-18 14:52:00,79.2,65.5,30.01,ESE,104,10.0,22.0,63,0.00,,---,0.00,478.00,VWS V14.00,2013-04-18 18:52:00,
2013-04-18 14:53:00,79.4,65.7,30.01,East,101,12.0,22.0,63,0.00,,---,0.00,1041.00,VWS V14.00,2013-04-18 18:53:00,
2013-04-18 14:54:00,79.5,65.8,30.01,East,92,11.0,22.0,63,0.00,,---,0.00,1042.00,VWS V14.00,2013-04-18 18:54:00,
2013-04-18 14:55:00,79.6,66.4,30.01,East,88,11.0,22.0,64,0.00,,---,0.00,1030.00,VWS V14.00,2013-04-18 18:55:00,
2013-04-18 14:56:00,79.5,66.3,30.01,East,83,15.0,22.0,64,0.00,,---,0.00,1023.00,VWS V14.00,2013-04-18 18:56:00,
2013-04-18 14:57:00,79.4,66.2,30.00,East,91,13.0,22.0,64,0.00,,---,0.00,1013.00,VWS V14.00,2013-04-18 18:57:00,
2013-04-18 14:58:00,79.3,66.5,30.00,East,101,12.0,22.0,65,0.00,,---,0.00,1007.00,VWS V14.00,2013-04-18 18:58:00,
2013-04-18 14:59:00,79.3,66.5,30.01,East,86,7.0,22.0,65,0.00,,---,0.00,1005.00,VWS V14.00,2013-04-18 18:59:00,
2013-04-18 15:00:00,79.3,67.0,30.01,ESE,110,10.0,22.0,66,0.00,,---,0.00,1004.00,VWS V14.00,2013-04-18 19:00:00,
2013-04-18 15:01:00,79.4,65.3,30.00,SE,132,11.0,15.0,62,0.00,,---,0.00,995.00,VWS V14.00,2013-04-18 19:01:00,
2013-04-18 15:02:00,79.6,65.9,30.00,East,84,13.0,15.0,63,0.00,,---,0.00,988.00,VWS V14.00,2013-04-18 19:02:00,
2013-04-18 15:03:00,79.6,66.4,30.01,East,83,15.0,16.0,64,0.00,,---,0.00,983.00,VWS V14.00,2013-04-18 19:03:00,
2013-04-18 15:04:00,79.3,67.0,30.00,East,85,16.0,16.0,66,0.00,,---,0.00,977.00,VWS V14.00,2013-04-18 19:04:00,
2013-04-18 15:05:00,79.1,66.8,30.00,East,84,13.0,16.0,66,0.00,,---,0.00,986.00,VWS V14.00,2013-04-18 19:05:00,
2013-04-18 15:06:00,78.8,66.9,30.01,East,83,14.0,16.0,67,0.00,,---,0.00,998.00,VWS V14.00,2013-04-18 19:06:00,
2013-04-18 15:07:00,78.7,67.3,30.01,East,89,13.0,19.0,68,0.00,,---,0.00,998.00,VWS V14.00,2013-04-18 19:07:00,
2013-04-18 15:08:00,78.6,66.3,30.00,East,80,15.0,19.0,66,0.00,,---,0.00,998.00,VWS V14.00,2013-04-18 19:08:00,
2013-04-18 15:09:00,78.5,66.6,30.00,East,81,14.0,19.0,67,0.00,,---,0.00,990.00,VWS V14.00,2013-04-18 19:09:00,
2013-04-18 15:10:00,78.5,66.6,30.00,East,80,15.0,19.0,67,0.00,,---,0.00,970.00,VWS V14.00,2013-04-18 19:10:00,
2013-04-18 15:11:00,78.5,66.2,30.00,East,87,14.0,19.0,66,0.00,,---,0.00,972.00,VWS V14.00,2013-04-18 19:11:00,
2013-04-18 15:12:00,78.5,65.8,30.00,East,87,13.0,19.0,65,0.00,,---,0.00,972.00,VWS V14.00,2013-04-18 19:12:00,
2013-04-18 15:13:00,78.5,67.1,30.00,East,81,15.0,19.0,68,0.00,,---,0.00,972.00,VWS V14.00,2013-04-18 19:13:00,
2013-04-18 15:14:00,78.5,66.2,30.00,East,85,14.0,19.0,66,0.00,,---,0.00,972.00,VWS V14.00,2013-04-18 19:14:00,
2013-04-18 15:15:00,78.5,66.2,30.00,East,96,13.0,19.0,66,0.00,,---,0.00,972.00,VWS V14.00,2013-04-18 19:15:00,
2013-04-18 15:16:00,78.4,67.0,30.00,ENE,77,13.0,19.0,68,0.00,,---,0.00,972.00,VWS V14.00,2013-04-18 19:16:00,
2013-04-18 15:17:00,78.3,66.4,30.00,East,83,13.0,19.0,67,0.00,,---,0.00,223.00,VWS V14.00,2013-04-18 19:17:00,
2013-04-18 15:18:00,78.3,65.6,30.00,East,82,13.0,19.0,65,0.00,,---,0.00,290.00,VWS V14.00,2013-04-18 19:18:00,
2013-04-18 15:19:00,78.4,65.7,30.00,ENE,78,12.0,19.0,65,0.00,,---,0.00,1034.00,VWS V14.00,2013-04-18 19:19:00,
2013-04-18 15:20:00,78.5,65.8,30.00,East,79,18.0,19.0,65,0.00,,---,0.00,1034.00,VWS V14.00,2013-04-18 19:20:00,
2013-04-18 15:21:00,78.5,66.2,30.00,East,85,16.0,20.0,66,0.00,,---,0.00,1021.00,VWS V14.00,2013-04-18 19:21:00,
2013-04-18 15:22:00,78.6,65.9,30.00,East,81,15.0,20.0,65,0.00,,---,0.00,1014.00,VWS V14.00,2013-04-18 19:22:00,
2013-04-18 15:23:00,78.6,65.9,30.00,East,93,10.0,20.0,65,0.00,,---,0.00,1005.00,VWS V14.00,2013-04-18 19:23:00,
2013-04-18 15:24:00,78.6,65.4,30.00,East,82,17.0,20.0,64,0.00,,---,0.00,995.00,VWS V14.00,2013-04-18 19:24:00,
2013-04-18 15:25:00,78.6,65.9,30.00,East,88,14.0,20.0,65,0.00,,---,0.00,995.00,VWS V14.00,2013-04-18 19:25:00,
2013-04-18 15:26:00,78.6,65.9,30.00,East,86,17.0,20.0,65,0.00,,---,0.00,216.00,VWS V14.00,2013-04-18 19:26:00,
2013-04-18 15:27:00,78.5,64.9,30.00,East,92,17.0,20.0,63,0.00,,---,0.00,202.00,VWS V14.00,2013-04-18 19:27:00,
2013-04-18 15:28:00,78.5,64.9,30.00,East,98,16.0,20.0,63,0.00,,---,0.00,211.00,VWS V14.00,2013-04-18 19:28:00,
2013-04-18 15:29:00,78.6,65.4,30.00,East,87,12.0,20.0,64,0.00,,---,0.00,250.00,VWS V14.00,2013-04-18 19:29:00,
2013-04-18 15:30:00,78.6,65.0,30.00,East,97,16.0,22.0,63,0.00,,---,0.00,258.00,VWS V14.00,2013-04-18 19:30:00,
2013-04-18 15:31:00,78.8,64.2,30.00,East,83,17.0,17.0,61,0.00,,---,0.00,285.00,VWS V14.00,2013-04-18 19:31:00,
2013-04-18 15:32:00,78.8,65.6,30.00,East,94,12.0,17.0,64,0.00,,---,0.00,285.00,VWS V14.00,2013-04-18 19:32:00,
2013-04-18 15:33:00,78.7,66.0,30.00,East,89,19.0,20.0,65,0.00,,---,0.00,285.00,VWS V14.00,2013-04-18 19:33:00,
2013-04-18 15:34:00,78.5,65.3,30.00,East,87,14.0,20.0,64,0.00,,---,0.00,285.00,VWS V14.00,2013-04-18 19:34:00,
2013-04-18 15:35:00,78.5,65.8,30.00,East,79,15.0,20.0,65,0.00,,---,0.00,285.00,VWS V14.00,2013-04-18 19:35:00,
2013-04-18 15:36:00,78.5,64.9,30.00,East,83,17.0,20.0,63,0.00,,---,0.00,995.00,VWS V14.00,2013-04-18 19:36:00,
2013-04-18 15:37:00,78.5,64.9,30.00,East,81,18.0,20.0,63,0.00,,---,0.00,983.00,VWS V14.00,2013-04-18 19:37:00,
2013-04-18 15:38:00,78.5,65.3,30.00,East,84,18.0,20.0,64,0.00,,---,0.00,983.00,VWS V14.00,2013-04-18 19:38:00,
2013-04-18 15:39:00,78.4,65.2,30.00,East,81,13.0,20.0,64,0.00,,---,0.00,983.00,VWS V14.00,2013-04-18 19:39:00,
2013-04-18 15:40:00,78.4,65.7,30.00,East,101,16.0,20.0,65,0.00,,---,0.00,944.00,VWS V14.00,2013-04-18 19:40:00,
2013-04-18 15:41:00,78.4,65.7,30.00,East,91,15.0,20.0,65,0.00,,---,0.00,200.00,VWS V14.00,2013-04-18 19:41:00,
2013-04-18 15:42:00,78.4,66.1,30.00,East,86,15.0,20.0,66,0.00,,---,0.00,265.00,VWS V14.00,2013-04-18 19:42:00,
2013-04-18 15:43:00,78.3,66.0,30.00,East,83,11.0,20.0,66,0.00,,---,0.00,265.00,VWS V14.00,2013-04-18 19:43:00,
2013-04-18 15:44:00,78.3,66.0,29.99,East,86,15.0,20.0,66,0.00,,---,0.00,265.00,VWS V14.00,2013-04-18 19:44:00,
2013-04-18 15:45:00,78.3,65.6,29.99,East,85,16.0,20.0,65,0.00,,---,0.00,265.00,VWS V14.00,2013-04-18 19:45:00,
2013-04-18 15:46:00,78.3,66.0,29.99,East,93,15.0,20.0,66,0.00,,---,0.00,265.00,VWS V14.00,2013-04-18 19:46:00,
2013-04-18 15:47:00,78.3,65.6,29.99,East,90,12.0,20.0,65,0.00,,---,0.00,436.00,VWS V14.00,2013-04-18 19:47:00,
2013-04-18 15:48:00,78.3,66.0,29.99,East,91,11.0,20.0,66,0.00,,---,0.00,436.00,VWS V14.00,2013-04-18 19:48:00,
2013-04-18 15:49:00,78.3,65.6,29.99,East,84,14.0,20.0,65,0.00,,---,0.00,436.00,VWS V14.00,2013-04-18 19:49:00,
2013-04-18 15:50:00,78.3,65.1,29.99,East,83,14.0,20.0,64,0.00,,---,0.00,207.00,VWS V14.00,2013-04-18 19:50:00,
2013-04-18 15:51:00,78.3,65.6,29.99,East,87,13.0,20.0,65,0.00,,---,0.00,209.00,VWS V14.00,2013-04-18 19:51:00,
2013-04-18 15:52:00,78.3,65.6,29.99,East,83,18.0,20.0,65,0.00,,---,0.00,230.00,VWS V14.00,2013-04-18 19:52:00,
2013-04-18 15:53:00,78.3,65.1,29.99,East,82,15.0,20.0,64,0.00,,---,0.00,230.00,VWS V14.00,2013-04-18 19:53:00,
2013-04-18 15:54:00,78.3,65.6,29.99,East,83,14.0,20.0,65,0.00,,---,0.00,265.00,VWS V14.00,2013-04-18 19:54:00,
2013-04-18 15:55:00,78.3,65.6,29.99,East,87,17.0,20.0,65,0.00,,---,0.00,246.00,VWS V14.00,2013-04-18 19:55:00,
2013-04-18 15:56:00,78.3,65.6,29.99,East,89,16.0,20.0,65,0.00,,---,0.00,246.00,VWS V14.00,2013-04-18 19:56:00,
2013-04-18 15:57:00,78.3,65.6,29.99,East,91,15.0,20.0,65,0.00,,---,0.00,380.00,VWS V14.00,2013-04-18 19:57:00,
2013-04-18 15:58:00,78.2,65.9,29.99,East,89,18.0,20.0,66,0.00,,---,0.00,380.00,VWS V14.00,2013-04-18 19:58:00,
2013-04-18 15:59:00,78.2,65.9,30.00,East,89,14.0,20.0,66,0.00,,---,0.00,185.00,VWS V14.00,2013-04-18 19:59:00,
2013-04-18 16:00:00,78.2,65.9,30.00,East,91,15.0,20.0,66,0.00,,---,0.00,207.00,VWS V14.00,2013-04-18 20:00:00,
2013-04-18 16:01:00,78.2,65.9,29.99,East,88,16.0,16.0,66,0.00,,---,0.00,260.00,VWS V14.00,2013-04-18 20:01:00,
2013-04-18 16:02:00,78.2,65.9,29.99,East,90,14.0,19.0,66,0.00,,---,0.00,318.00,VWS V14.00,2013-04-18 20:02:00,
2013-04-18 16:03:00,78.2,66.4,29.99,ENE,71,14.0,19.0,67,0.00,,---,0.00,318.00,VWS V14.00,2013-04-18 20:03:00,
2013-04-18 16:04:00,78.1,66.3,29.99,East,83,15.0,19.0,67,0.00,,---,0.00,239.00,VWS V14.00,2013-04-18 20:04:00,
2013-04-18 16:05:00,78.0,67.0,29.99,East,80,15.0,19.0,69,0.00,,---,0.00,287.00,VWS V14.00,2013-04-18 20:05:00,
2013-04-18 16:06:00,78.1,66.3,29.99,East,83,16.0,19.0,67,0.00,,---,0.00,244.00,VWS V14.00,2013-04-18 20:06:00,
2013-04-18 16:07:00,78.1,66.7,29.99,East,99,12.0,19.0,68,0.00,,---,0.00,248.00,VWS V14.00,2013-04-18 20:07:00,
2013-04-18 16:08:00,78.1,66.3,30.00,East,91,12.0,19.0,67,0.00,,---,0.00,218.00,VWS V14.00,2013-04-18 20:08:00,
2013-04-18 16:09:00,78.1,66.3,30.00,East,88,15.0,19.0,67,0.00,,---,0.00,232.00,VWS V14.00,2013-04-18 20:09:00,
2013-04-18 16:10:00,78.1,66.3,30.00,ENE,72,15.0,19.0,67,0.00,,---,0.00,232.00,VWS V14.00,2013-04-18 20:10:00,
2013-04-18 16:11:00,78.1,66.3,29.99,East,88,14.0,19.0,67,0.00,,---,0.00,244.00,VWS V14.00,2013-04-18 20:11:00,
2013-04-18 16:12:00,78.2,66.4,29.99,East,87,14.0,19.0,67,0.00,,---,0.00,241.00,VWS V14.00,2013-04-18 20:12:00,
2013-04-18 16:13:00,78.2,66.4,29.99,East,89,15.0,19.0,67,0.00,,---,0.00,239.00,VWS V14.00,2013-04-18 20:13:00,
2013-04-18 16:14:00,78.2,66.4,29.99,East,87,14.0,19.0,67,0.00,,---,0.00,283.00,VWS V14.00,2013-04-18 20:14:00,
2013-04-18 16:15:00,78.2,66.8,29.99,East,89,14.0,19.0,68,0.00,,---,0.00,283.00,VWS V14.00,2013-04-18 20:15:00,
2013-04-18 16:16:00,78.1,66.3,29.99,East,84,13.0,19.0,67,0.00,,---,0.00,283.00,VWS V14.00,2013-04-18 20:16:00,
2013-04-18 16:17:00,78.0,66.6,29.99,East,82,12.0,19.0,68,0.00,,---,0.00,823.00,VWS V14.00,2013-04-18 20:17:00,
2013-04-18 16:18:00,78.0,66.2,29.99,East,89,19.0,19.0,67,0.00,,---,0.00,823.00,VWS V14.00,2013-04-18 20:18:00,
2013-04-18 16:19:00,77.9,66.1,29.99,East,89,16.0,19.0,67,0.00,,---,0.00,181.00,VWS V14.00,2013-04-18 20:19:00,
2013-04-18 16:20:00,78.0,66.6,29.99,East,86,16.0,19.0,68,0.00,,---,0.00,155.00,VWS V14.00,2013-04-18 20:20:00,
2013-04-18 16:21:00,78.0,66.6,29.99,East,92,14.0,19.0,68,0.00,,---,0.00,144.00,VWS V14.00,2013-04-18 20:21:00,
2013-04-18 16:22:00,78.0,66.6,29.99,East,91,16.0,19.0,68,0.00,,---,0.00,148.00,VWS V14.00,2013-04-18 20:22:00,
2013-04-18 16:23:00,77.9,66.5,29.99,East,93,13.0,19.0,68,0.00,,---,0.00,162.00,VWS V14.00,2013-04-18 20:23:00,
2013-04-18 16:24:00,77.9,66.5,29.99,East,89,14.0,19.0,68,0.00,,---,0.00,192.00,VWS V14.00,2013-04-18 20:24:00,
2013-04-18 16:25:00,77.9,66.5,29.99,East,86,14.0,19.0,68,0.00,,---,0.00,192.00,VWS V14.00,2013-04-18 20:25:00,
2013-04-18 16:26:00,78.0,66.2,29.99,East,81,18.0,19.0,67,0.00,,---,0.00,192.00,VWS V14.00,2013-04-18 20:26:00,
2013-04-18 16:27:00,78.0,66.2,29.99,East,93,13.0,19.0,67,0.00,,---,0.00,334.00,VWS V14.00,2013-04-18 20:27:00,
2013-04-18 16:28:00,78.0,66.2,29.99,East,85,16.0,19.0,67,0.00,,---,0.00,334.00,VWS V14.00,2013-04-18 20:28:00,
2013-04-18 16:29:00,78.0,67.0,29.99,East,86,16.0,19.0,69,0.00,,---,0.00,223.00,VWS V14.00,2013-04-18 20:29:00,
2013-04-18 16:30:00,78.0,67.0,29.99,East,89,14.0,19.0,69,0.00,,---,0.00,142.00,VWS V14.00,2013-04-18 20:30:00,
2013-04-18 16:31:00,77.9,66.5,29.99,East,92,14.0,17.0,68,0.00,,---,0.00,132.00,VWS V14.00,2013-04-18 20:31:00,
2013-04-18 16:32:00,77.9,66.1,29.99,East,99,15.0,18.0,67,0.00,,---,0.00,134.00,VWS V14.00,2013-04-18 20:32:00,
2013-04-18 16:33:00,77.9,66.5,29.99,East,90,13.0,18.0,68,0.00,,---,0.00,142.00,VWS V14.00,2013-04-18 20:33:00,
2013-04-18 16:34:00,77.9,66.1,29.99,East,93,16.0,18.0,67,0.00,,---,0.00,167.00,VWS V14.00,2013-04-18 20:34:00,
2013-04-18 16:35:00,77.9,66.1,29.99,East,99,15.0,18.0,67,0.00,,---,0.00,262.00,VWS V14.00,2013-04-18 20:35:00,
2013-04-18 16:36:00,77.9,65.6,29.99,East,87,16.0,19.0,66,0.00,,---,0.00,244.00,VWS V14.00,2013-04-18 20:36:00,
2013-04-18 16:37:00,78.0,66.2,29.99,East,91,16.0,19.0,67,0.00,,---,0.00,207.00,VWS V14.00,2013-04-18 20:37:00,
2013-04-18 16:38:00,77.9,66.5,29.99,East,83,15.0,19.0,68,0.00,,---,0.00,172.00,VWS V14.00,2013-04-18 20:38:00,
2013-04-18 16:39:00,77.9,66.5,29.99,East,87,12.0,19.0,68,0.00,,---,0.00,172.00,VWS V14.00,2013-04-18 20:39:00,
2013-04-18 16:40:00,77.9,66.5,29.99,East,88,18.0,19.0,68,0.00,,---,0.00,172.00,VWS V14.00,2013-04-18 20:40:00,
2013-04-18 16:41:00,77.9,66.1,29.99,East,90,13.0,19.0,67,0.00,,---,0.00,172.00,VWS V14.00,2013-04-18 20:41:00,
2013-04-18 16:42:00,77.9,66.5,29.99,East,87,14.0,19.0,68,0.00,,---,0.00,141.00,VWS V14.00,2013-04-18 20:42:00,
2013-04-18 16:43:00,78.0,67.0,29.99,East,99,14.0,19.0,69,0.00,,---,0.00,134.00,VWS V14.00,2013-04-18 20:43:00,
2013-04-18 16:44:00,77.9,66.5,29.99,ENE,77,17.0,19.0,68,0.00,,---,0.00,151.00,VWS V14.00,2013-04-18 20:44:00,
2013-04-18 16:45:00,77.9,66.5,29.99,East,87,14.0,19.0,68,0.00,,---,0.00,151.00,VWS V14.00,2013-04-18 20:45:00,
2013-04-18 16:46:00,77.9,66.9,29.99,East,87,13.0,19.0,69,0.00,,---,0.00,151.00,VWS V14.00,2013-04-18 20:46:00,
2013-04-18 16:47:00,78.0,66.6,29.99,East,95,10.0,19.0,68,0.00,,---,0.00,192.00,VWS V14.00,2013-04-18 20:47:00,
2013-04-18 16:48:00,78.1,66.7,29.99,East,91,14.0,19.0,68,0.00,,---,0.00,257.00,VWS V14.00,2013-04-18 20:48:00,
2013-04-18 16:49:00,78.1,66.7,29.99,East,91,13.0,19.0,68,0.00,,---,0.00,257.00,VWS V14.00,2013-04-18 20:49:00,
2013-04-18 16:50:00,78.1,66.7,29.99,East,83,14.0,19.0,68,0.00,,---,0.00,257.00,VWS V14.00,2013-04-18 20:50:00,
2013-04-18 16:51:00,78.1,66.3,29.99,ENE,77,14.0,19.0,67,0.00,,---,0.00,114.00,VWS V14.00,2013-04-18 20:51:00,
2013-04-18 16:52:00,78.1,66.3,29.99,East,85,18.0,19.0,67,0.00,,---,0.00,120.00,VWS V14.00,2013-04-18 20:52:00,
2013-04-18 16:53:00,78.1,66.3,29.99,East,86,15.0,19.0,67,0.00,,---,0.00,123.00,VWS V14.00,2013-04-18 20:53:00,
2013-04-18 16:54:00,78.0,66.6,29.99,East,81,16.0,19.0,68,0.00,,---,0.00,128.00,VWS V14.00,2013-04-18 20:54:00,
2013-04-18 16:55:00,77.9,66.9,29.99,East,83,15.0,19.0,69,0.00,,---,0.00,139.00,VWS V14.00,2013-04-18 20:55:00,
2013-04-18 16:56:00,77.9,66.9,29.99,East,82,12.0,19.0,69,0.00,,---,0.00,146.00,VWS V14.00,2013-04-18 20:56:00,
2013-04-18 16:57:00,77.8,66.4,29.99,East,89,16.0,19.0,68,0.00,,---,0.00,185.00,VWS V14.00,2013-04-18 20:57:00,
2013-04-18 16:58:00,77.7,66.3,29.99,East,93,14.0,19.0,68,0.00,,---,0.00,185.00,VWS V14.00,2013-04-18 20:58:00,
2013-04-18 16:59:00,77.8,66.4,29.99,East,89,14.0,19.0,68,0.00,,---,0.00,188.00,VWS V14.00,2013-04-18 20:59:00,
2013-04-18 17:00:00,77.8,66.4,29.99,East,97,14.0,19.0,68,0.00,,---,0.00,195.00,VWS V14.00,2013-04-18 21:00:00,
2013-04-18 17:01:00,77.8,66.8,29.99,East,93,15.0,16.0,69,0.00,,---,0.00,211.00,VWS V14.00,2013-04-18 21:01:00,
2013-04-18 17:02:00,77.8,66.8,29.99,East,85,14.0,16.0,69,0.00,,---,0.00,251.00,VWS V14.00,2013-04-18 21:02:00,
2013-04-18 17:03:00,77.8,66.8,29.99,East,90,14.0,16.0,69,0.00,,---,0.00,315.00,VWS V14.00,2013-04-18 21:03:00,
2013-04-18 17:04:00,77.7,66.7,29.99,East,85,17.0,17.0,69,0.00,,---,0.00,306.00,VWS V14.00,2013-04-18 21:04:00,
2013-04-18 17:05:00,77.7,66.7,29.99,East,90,18.0,19.0,69,0.00,,---,0.00,158.00,VWS V14.00,2013-04-18 21:05:00,
2013-04-18 17:06:00,77.7,66.3,29.99,East,91,13.0,19.0,68,0.00,,---,0.00,148.00,VWS V14.00,2013-04-18 21:06:00,
2013-04-18 17:07:00,77.7,66.7,29.99,East,90,16.0,19.0,69,0.00,,---,0.00,139.00,VWS V14.00,2013-04-18 21:07:00,
2013-04-18 17:08:00,77.7,65.9,29.99,East,86,16.0,19.0,67,0.00,,---,0.00,137.00,VWS V14.00,2013-04-18 21:08:00,
2013-04-18 17:09:00,77.7,66.3,29.99,East,85,15.0,19.0,68,0.00,,---,0.00,218.00,VWS V14.00,2013-04-18 21:09:00,
2013-04-18 17:10:00,77.7,66.3,29.99,East,81,15.0,19.0,68,0.00,,---,0.00,218.00,VWS V14.00,2013-04-18 21:10:00,
2013-04-18 17:11:00,77.6,66.6,29.99,East,86,16.0,19.0,69,0.00,,---,0.00,218.00,VWS V14.00,2013-04-18 21:11:00,
2013-04-18 17:12:00,77.6,67.1,29.99,East,87,15.0,19.0,70,0.00,,---,0.00,218.00,VWS V14.00,2013-04-18 21:12:00,
2013-04-18 17:13:00,77.6,66.2,29.99,East,83,13.0,19.0,68,0.00,,---,0.00,353.00,VWS V14.00,2013-04-18 21:13:00,
2013-04-18 17:14:00,77.6,66.6,29.98,East,93,15.0,19.0,69,0.00,,---,0.00,353.00,VWS V14.00,2013-04-18 21:14:00,
2013-04-18 17:15:00,77.6,67.1,29.98,East,87,18.0,19.0,70,0.00,,---,0.00,181.00,VWS V14.00,2013-04-18 21:15:00,
2013-04-18 17:16:00,77.6,66.6,29.99,East,84,16.0,19.0,69,0.00,,---,0.00,181.00,VWS V14.00,2013-04-18 21:16:00,
2013-04-18 17:17:00,77.6,67.1,29.99,East,85,15.0,19.0,70,0.00,,---,0.00,536.00,VWS V14.00,2013-04-18 21:17:00,
2013-04-18 17:18:00,77.6,66.6,29.99,East,88,17.0,19.0,69,0.00,,---,0.00,517.00,VWS V14.00,2013-04-18 21:18:00,
2013-04-18 17:19:00,77.6,67.1,29.98,East,86,16.0,19.0,70,0.00,,---,0.00,494.00,VWS V14.00,2013-04-18 21:19:00,
2013-04-18 17:20:00,77.6,66.6,29.98,East,85,16.0,19.0,69,0.00,,---,0.00,513.00,VWS V14.00,2013-04-18 21:20:00,
2013-04-18 17:21:00,77.6,66.6,29.98,East,89,16.0,19.0,69,0.00,,---,0.00,527.00,VWS V14.00,2013-04-18 21:21:00,
2013-04-18 17:22:00,77.6,66.6,29.98,East,95,16.0,19.0,69,0.00,,---,0.00,153.00,VWS V14.00,2013-04-18 21:22:00,
2013-04-18 17:23:00,77.7,66.3,29.98,East,99,15.0,19.0,68,0.00,,---,0.00,211.00,VWS V14.00,2013-04-18 21:23:00,
2013-04-18 17:24:00,77.8,66.4,29.98,East,90,17.0,19.0,68,0.00,,---,0.00,211.00,VWS V14.00,2013-04-18 21:24:00,
2013-04-18 17:25:00,77.8,66.4,29.98,East,93,14.0,19.0,68,0.00,,---,0.00,211.00,VWS V14.00,2013-04-18 21:25:00,
2013-04-18 17:26:00,77.8,66.4,29.98,East,90,15.0,19.0,68,0.00,,---,0.00,174.00,VWS V14.00,2013-04-18 21:26:00,
2013-04-18 17:27:00,77.7,66.7,29.98,East,82,16.0,19.0,69,0.00,,---,0.00,174.00,VWS V14.00,2013-04-18 21:27:00,
2013-04-18 17:28:00,77.7,67.1,29.98,East,89,16.0,19.0,70,0.00,,---,0.00,174.00,VWS V14.00,2013-04-18 21:28:00,
2013-04-18 17:29:00,77.7,66.7,29.98,ESE,105,11.0,19.0,69,0.00,,---,0.00,174.00,VWS V14.00,2013-04-18 21:29:00,
2013-04-18 17:30:00,77.7,66.3,29.98,East,93,17.0,19.0,68,0.00,,---,0.00,471.00,VWS V14.00,2013-04-18 21:30:00,
2013-04-18 17:31:00,77.7,66.3,29.98,East,87,16.0,19.0,68,0.00,,---,0.00,489.00,VWS V14.00,2013-04-18 21:31:00,
2013-04-18 17:32:00,77.7,66.3,29.98,East,83,14.0,19.0,68,0.00,,---,0.00,482.00,VWS V14.00,2013-04-18 21:32:00,
2013-04-18 17:33:00,77.7,66.3,29.98,East,88,16.0,19.0,68,0.00,,---,0.00,478.00,VWS V14.00,2013-04-18 21:33:00,
2013-04-18 17:34:00,77.7,66.7,29.98,East,91,16.0,19.0,69,0.00,,---,0.00,468.00,VWS V14.00,2013-04-18 21:34:00,
2013-04-18 17:35:00,77.7,66.7,29.98,East,83,16.0,19.0,69,0.00,,---,0.00,396.00,VWS V14.00,2013-04-18 21:35:00,
2013-04-18 17:36:00,77.6,66.6,29.98,East,89,16.0,19.0,69,0.00,,---,0.00,387.00,VWS V14.00,2013-04-18 21:36:00,
2013-04-18 17:37:00,77.6,66.6,29.98,East,88,15.0,19.0,69,0.00,,---,0.00,417.00,VWS V14.00,2013-04-18 21:37:00,
2013-04-18 17:38:00,77.6,67.1,29.98,East,87,17.0,19.0,70,0.00,,---,0.00,454.00,VWS V14.00,2013-04-18 21:38:00,
2013-04-18 17:39:00,77.6,66.6,29.98,East,93,18.0,19.0,69,0.00,,---,0.00,459.00,VWS V14.00,2013-04-18 21:39:00,
2013-04-18 17:40:00,77.6,67.1,29.98,East,87,18.0,20.0,70,0.00,,---,0.00,448.00,VWS V14.00,2013-04-18 21:40:00,
2013-04-18 17:41:00,77.5,66.9,29.98,East,97,16.0,20.0,70,0.00,,---,0.00,439.00,VWS V14.00,2013-04-18 21:41:00,
2013-04-18 17:42:00,77.5,67.4,29.98,East,93,16.0,20.0,71,0.00,,---,0.00,439.00,VWS V14.00,2013-04-18 21:42:00,
2013-04-18 17:43:00,77.5,67.4,29.98,East,91,19.0,20.0,71,0.00,,---,0.00,445.00,VWS V14.00,2013-04-18 21:43:00,
2013-04-18 17:44:00,77.5,66.9,29.98,East,90,17.0,20.0,70,0.00,,---,0.00,445.00,VWS V14.00,2013-04-18 21:44:00,
2013-04-18 17:45:00,77.5,67.4,29.98,East,90,17.0,20.0,71,0.00,,---,0.00,438.00,VWS V14.00,2013-04-18 21:45:00,
2013-04-18 17:46:00,77.5,66.9,29.98,East,87,17.0,20.0,70,0.00,,---,0.00,431.00,VWS V14.00,2013-04-18 21:46:00,
2013-04-18 17:47:00,77.5,66.9,29.98,ESE,104,15.0,20.0,70,0.00,,---,0.00,431.00,VWS V14.00,2013-04-18 21:47:00,
2013-04-18 17:48:00,77.5,67.4,29.98,East,85,13.0,20.0,71,0.00,,---,0.00,253.00,VWS V14.00,2013-04-18 21:48:00,
2013-04-18 17:49:00,77.5,67.8,29.98,East,83,18.0,20.0,72,0.00,,---,0.00,207.00,VWS V14.00,2013-04-18 21:49:00,
2013-04-18 17:50:00,77.4,66.4,29.98,East,99,16.0,20.0,69,0.00,,---,0.00,148.00,VWS V14.00,2013-04-18 21:50:00,
2013-04-18 17:51:00,77.5,66.5,29.98,East,87,12.0,20.0,69,0.00,,---,0.00,149.00,VWS V14.00,2013-04-18 21:51:00,
2013-04-18 17:52:00,77.5,67.4,29.98,East,82,18.0,20.0,71,0.00,,---,0.00,137.00,VWS V14.00,2013-04-18 21:52:00,
2013-04-18 17:53:00,77.5,67.4,29.98,East,91,17.0,20.0,71,0.00,,---,0.00,113.00,VWS V14.00,2013-04-18 21:53:00,
2013-04-18 17:54:00,77.3,67.2,29.98,East,99,15.0,20.0,71,0.00,,---,0.00,102.00,VWS V14.00,2013-04-18 21:54:00,
2013-04-18 17:55:00,77.3,67.2,29.98,East,90,18.0,20.0,71,0.00,,---,0.00,98.00,VWS V14.00,2013-04-18 21:55:00,
2013-04-18 17:56:00,77.2,66.7,29.98,East,91,17.0,20.0,70,0.00,,---,0.00,109.00,VWS V14.00,2013-04-18 21:56:00,
2013-04-18 17:57:00,77.2,66.2,29.98,East,101,12.0,20.0,69,0.00,,---,0.00,121.00,VWS V14.00,2013-04-18 21:57:00,
2013-04-18 17:58:00,77.3,66.3,29.97,East,91,13.0,20.0,69,0.00,,---,0.00,148.00,VWS V14.00,2013-04-18 21:58:00,
2013-04-18 17:59:00,77.3,66.3,29.97,East,87,13.0,20.0,69,0.00,,---,0.00,148.00,VWS V14.00,2013-04-18 21:59:00,
2013-04-18 18:00:00,77.4,67.3,29.98,East,92,15.0,20.0,71,0.00,,---,0.00,151.00,VWS V14.00,2013-04-18 22:00:00,
2013-04-18 18:01:00,77.4,67.3,29.98,East,97,13.0,15.0,71,0.00,,---,0.00,146.00,VWS V14.00,2013-04-18 22:01:00,
2013-04-18 18:02:00,77.4,66.9,29.98,East,97,12.0,15.0,70,0.00,,---,0.00,135.00,VWS V14.00,2013-04-18 22:02:00,
2013-04-18 18:03:00,77.4,66.4,29.98,East,97,12.0,15.0,69,0.00,,---,0.00,137.00,VWS V14.00,2013-04-18 22:03:00,
2013-04-18 18:04:00,77.4,66.9,29.98,East,100,12.0,15.0,70,0.00,,---,0.00,137.00,VWS V14.00,2013-04-18 22:04:00,
2013-04-18 18:05:00,77.5,66.9,29.98,East,95,14.0,15.0,70,0.00,,---,0.00,139.00,VWS V14.00,2013-04-18 22:05:00,
2013-04-18 18:06:00,77.4,66.4,29.98,East,95,12.0,17.0,69,0.00,,---,0.00,142.00,VWS V14.00,2013-04-18 22:06:00,
2013-04-18 18:07:00,77.4,66.9,29.98,ESE,102,9.0,17.0,70,0.00,,---,0.00,144.00,VWS V14.00,2013-04-18 22:07:00,
2013-04-18 18:08:00,77.3,66.8,29.98,East,84,12.0,17.0,70,0.00,,---,0.00,153.00,VWS V14.00,2013-04-18 22:08:00,
2013-04-18 18:09:00,77.3,66.8,29.98,East,96,12.0,17.0,70,0.00,,---,0.00,158.00,VWS V14.00,2013-04-18 22:09:00,
2013-04-18 18:10:00,77.3,66.8,29.98,East,99,11.0,17.0,70,0.00,,---,0.00,163.00,VWS V14.00,2013-04-18 22:10:00,
2013-04-18 18:11:00,77.3,66.8,29.98,ESE,112,8.0,17.0,70,0.00,,---,0.00,171.00,VWS V14.00,2013-04-18 22:11:00,
2013-04-18 18:12:00,77.3,65.9,29.98,ESE,108,17.0,17.0,68,0.00,,---,0.00,195.00,VWS V14.00,2013-04-18 22:12:00,
2013-04-18 18:13:00,77.4,65.6,29.98,ESE,114,15.0,17.0,67,0.00,,---,0.00,192.00,VWS V14.00,2013-04-18 22:13:00,
2013-04-18 18:14:00,77.5,65.7,29.98,ESE,118,14.0,17.0,67,0.00,,---,0.00,225.00,VWS V14.00,2013-04-18 22:14:00,
2013-04-18 18:15:00,77.6,65.8,29.98,ESE,108,13.0,17.0,67,0.00,,---,0.00,214.00,VWS V14.00,2013-04-18 22:15:00,
2013-04-18 18:16:00,77.6,65.8,29.98,ESE,103,12.0,17.0,67,0.00,,---,0.00,204.00,VWS V14.00,2013-04-18 22:16:00,
2013-04-18 18:17:00,77.7,65.9,29.98,ESE,116,12.0,17.0,67,0.00,,---,0.00,197.00,VWS V14.00,2013-04-18 22:17:00,
2013-04-18 18:18:00,77.7,65.9,29.98,ESE,108,10.0,17.0,67,0.00,,---,0.00,193.00,VWS V14.00,2013-04-18 22:18:00,
2013-04-18 18:19:00,77.7,65.9,29.98,ESE,103,8.0,17.0,67,0.00,,---,0.00,185.00,VWS V14.00,2013-04-18 22:19:00,
2013-04-18 18:20:00,77.7,65.9,29.98,East,97,9.0,17.0,67,0.00,,---,0.00,185.00,VWS V14.00,2013-04-18 22:20:00,
2013-04-18 18:21:00,77.6,66.2,29.98,East,101,12.0,17.0,68,0.00,,---,0.00,181.00,VWS V14.00,2013-04-18 22:21:00,
2013-04-18 18:22:00,77.6,66.2,29.98,East,100,15.0,17.0,68,0.00,,---,0.00,179.00,VWS V14.00,2013-04-18 22:22:00,
2013-04-18 18:23:00,77.5,66.1,29.98,East,101,13.0,17.0,68,0.00,,---,0.00,179.00,VWS V14.00,2013-04-18 22:23:00,
2013-04-18 18:24:00,77.5,66.1,29.98,ESE,106,12.0,17.0,68,0.00,,---,0.00,185.00,VWS V14.00,2013-04-18 22:24:00,
2013-04-18 18:25:00,77.4,66.0,29.98,ESE,107,11.0,17.0,68,0.00,,---,0.00,163.00,VWS V14.00,2013-04-18 22:25:00,
2013-04-18 18:26:00,77.4,66.0,29.98,ESE,109,10.0,17.0,68,0.00,,---,0.00,139.00,VWS V14.00,2013-04-18 22:26:00,
2013-04-18 18:27:00,77.3,65.9,29.98,ESE,108,12.0,17.0,68,0.00,,---,0.00,141.00,VWS V14.00,2013-04-18 22:27:00,
2013-04-18 18:28:00,77.3,66.3,29.98,East,97,9.0,17.0,69,0.00,,---,0.00,146.00,VWS V14.00,2013-04-18 22:28:00,
2013-04-18 18:29:00,77.3,66.3,29.98,East,99,15.0,17.0,69,0.00,,---,0.00,141.00,VWS V14.00,2013-04-18 22:29:00,
2013-04-18 18:30:00,77.3,65.5,29.98,East,97,13.0,17.0,67,0.00,,---,0.00,142.00,VWS V14.00,2013-04-18 22:30:00,
2013-04-18 18:31:00,77.3,65.9,29.98,ESE,111,9.0,13.0,68,0.00,,---,0.00,130.00,VWS V14.00,2013-04-18 22:31:00,
2013-04-18 18:32:00,77.2,65.8,29.98,East,95,11.0,13.0,68,0.00,,---,0.00,125.00,VWS V14.00,2013-04-18 22:32:00,
2013-04-18 18:33:00,77.2,65.8,29.98,East,90,13.0,14.0,68,0.00,,---,0.00,111.00,VWS V14.00,2013-04-18 22:33:00,
2013-04-18 18:34:00,77.2,65.8,29.98,East,100,12.0,14.0,68,0.00,,---,0.00,104.00,VWS V14.00,2013-04-18 22:34:00,
2013-04-18 18:35:00,77.1,66.2,29.98,East,96,9.0,14.0,69,0.00,,---,0.00,98.00,VWS V14.00,2013-04-18 22:35:00,
2013-04-18 18:36:00,77.1,66.2,29.98,East,95,7.0,14.0,69,0.00,,---,0.00,97.00,VWS V14.00,2013-04-18 22:36:00,
2013-04-18 18:37:00,77.1,66.2,29.98,ESE,107,8.0,14.0,69,0.00,,---,0.00,90.00,VWS V14.00,2013-04-18 22:37:00,
2013-04-18 18:38:00,77.0,66.1,29.98,East,95,8.0,14.0,69,0.00,,---,0.00,95.00,VWS V14.00,2013-04-18 22:38:00,
2013-04-18 18:39:00,77.0,66.1,29.98,ESE,105,7.0,14.0,69,0.00,,---,0.00,97.00,VWS V14.00,2013-04-18 22:39:00,
2013-04-18 18:40:00,77.0,66.1,29.98,ESE,112,7.0,14.0,69,0.00,,---,0.00,95.00,VWS V14.00,2013-04-18 22:40:00,
2013-04-18 18:41:00,77.0,65.6,29.98,East,93,10.0,14.0,68,0.00,,---,0.00,95.00,VWS V14.00,2013-04-18 22:41:00,
2013-04-18 18:42:00,77.0,65.6,29.98,ESE,106,9.0,14.0,68,0.00,,---,0.00,91.00,VWS V14.00,2013-04-18 22:42:00,
2013-04-18 18:43:00,77.0,65.6,29.98,ESE,112,11.0,14.0,68,0.00,,---,0.00,83.00,VWS V14.00,2013-04-18 22:43:00,
2013-04-18 18:44:00,77.0,65.6,29.98,East,97,10.0,14.0,68,0.00,,---,0.00,83.00,VWS V14.00,2013-04-18 22:44:00,
2013-04-18 18:45:00,77.0,65.6,29.98,ESE,122,8.0,14.0,68,0.00,,---,0.00,83.00,VWS V14.00,2013-04-18 22:45:00,
2013-04-18 18:46:00,77.0,65.6,29.98,East,97,10.0,14.0,68,0.00,,---,0.00,81.00,VWS V14.00,2013-04-18 22:46:00,
2013-04-18 18:47:00,77.1,65.3,29.98,SE,145,8.0,14.0,67,0.00,,---,0.00,84.00,VWS V14.00,2013-04-18 22:47:00,
2013-04-18 18:48:00,77.1,65.3,29.98,SE,129,6.0,14.0,67,0.00,,---,0.00,84.00,VWS V14.00,2013-04-18 22:48:00,
2013-04-18 18:49:00,77.1,65.3,29.98,ESE,122,8.0,14.0,67,0.00,,---,0.00,83.00,VWS V14.00,2013-04-18 22:49:00,
2013-04-18 18:50:00,77.1,64.9,29.98,ESE,108,8.0,14.0,66,0.00,,---,0.00,83.00,VWS V14.00,2013-04-18 22:50:00,
2013-04-18 18:51:00,77.1,65.7,29.98,ESE,108,9.0,14.0,68,0.00,,---,0.00,83.00,VWS V14.00,2013-04-18 22:51:00,
2013-04-18 18:52:00,77.1,65.7,29.98,ESE,116,9.0,14.0,68,0.00,,---,0.00,79.00,VWS V14.00,2013-04-18 22:52:00,
2013-04-18 18:53:00,77.1,65.7,29.98,ESE,118,7.0,14.0,68,0.00,,---,0.00,77.00,VWS V14.00,2013-04-18 22:53:00,
2013-04-18 18:54:00,77.0,65.6,29.98,ESE,115,7.0,14.0,68,0.00,,---,0.00,76.00,VWS V14.00,2013-04-18 22:54:00,
2013-04-18 18:55:00,77.0,66.1,29.98,ESE,113,6.0,14.0,69,0.00,,---,0.00,76.00,VWS V14.00,2013-04-18 22:55:00,
2013-04-18 18:56:00,76.9,65.5,29.98,East,101,9.0,14.0,68,0.00,,---,0.00,74.00,VWS V14.00,2013-04-18 22:56:00,
2013-04-18 18:57:00,76.9,66.0,29.98,ESE,117,10.0,14.0,69,0.00,,---,0.00,72.00,VWS V14.00,2013-04-18 22:57:00,
2013-04-18 18:58:00,76.8,65.9,29.98,ESE,112,8.0,14.0,69,0.00,,---,0.00,72.00,VWS V14.00,2013-04-18 22:58:00,
2013-04-18 18:59:00,76.8,65.9,29.98,East,95,7.0,14.0,69,0.00,,---,0.00,70.00,VWS V14.00,2013-04-18 22:59:00,
2013-04-18 19:00:00,76.7,65.8,29.98,ESE,111,7.0,14.0,69,0.00,,---,0.00,69.00,VWS V14.00,2013-04-18 23:00:00,
2013-04-18 19:01:00,76.7,65.8,29.98,ESE,108,8.0,10.0,69,0.00,,---,0.00,67.00,VWS V14.00,2013-04-18 23:01:00,
2013-04-18 19:02:00,76.7,66.2,29.98,East,101,9.0,10.0,70,0.00,,---,0.00,65.00,VWS V14.00,2013-04-18 23:02:00,
2013-04-18 19:03:00,76.7,65.8,29.98,ESE,116,8.0,10.0,69,0.00,,---,0.00,63.00,VWS V14.00,2013-04-18 23:03:00,
2013-04-18 19:04:00,76.6,66.1,29.98,ESE,118,8.0,10.0,70,0.00,,---,0.00,62.00,VWS V14.00,2013-04-18 23:04:00,
2013-04-18 19:05:00,76.6,66.1,29.98,ESE,118,11.0,13.0,70,0.00,,---,0.00,60.00,VWS V14.00,2013-04-18 23:05:00,
2013-04-18 19:06:00,76.6,65.7,29.98,ESE,119,10.0,13.0,69,0.00,,---,0.00,58.00,VWS V14.00,2013-04-18 23:06:00,
2013-04-18 19:07:00,76.5,65.6,29.98,ESE,113,8.0,13.0,69,0.00,,---,0.00,54.00,VWS V14.00,2013-04-18 23:07:00,
2013-04-18 19:08:00,76.5,66.0,29.98,ESE,112,10.0,13.0,70,0.00,,---,0.00,54.00,VWS V14.00,2013-04-18 23:08:00,
2013-04-18 19:09:00,76.4,65.9,29.98,ESE,110,9.0,13.0,70,0.00,,---,0.00,58.00,VWS V14.00,2013-04-18 23:09:00,
2013-04-18 19:10:00,76.4,66.3,29.98,SE,124,7.0,13.0,71,0.00,,---,0.00,58.00,VWS V14.00,2013-04-18 23:10:00,
2013-04-18 19:11:00,76.4,66.3,29.98,ESE,116,9.0,13.0,71,0.00,,---,0.00,53.00,VWS V14.00,2013-04-18 23:11:00,
2013-04-18 19:12:00,76.4,66.3,29.98,ESE,110,11.0,13.0,71,0.00,,---,0.00,60.00,VWS V14.00,2013-04-18 23:12:00,
2013-04-18 19:13:00,76.4,65.9,29.99,ESE,114,9.0,13.0,70,0.00,,---,0.00,58.00,VWS V14.00,2013-04-18 23:13:00,
2013-04-18 19:14:00,76.3,66.2,29.98,ESE,110,7.0,13.0,71,0.00,,---,0.00,51.00,VWS V14.00,2013-04-18 23:14:00,
2013-04-18 19:15:00,76.3,65.8,29.98,ESE,102,9.0,13.0,70,0.00,,---,0.00,46.00,VWS V14.00,2013-04-18 23:15:00,
2013-04-18 19:16:00,76.3,65.8,29.98,ESE,120,7.0,13.0,70,0.00,,---,0.00,44.00,VWS V14.00,2013-04-18 23:16:00,
2013-04-18 19:17:00,76.3,66.2,29.98,ESE,121,8.0,13.0,71,0.00,,---,0.00,40.00,VWS V14.00,2013-04-18 23:17:00,
2013-04-18 19:18:00,76.3,66.2,29.98,SE,125,4.0,13.0,71,0.00,,---,0.00,37.00,VWS V14.00,2013-04-18 23:18:00,
2013-04-18 19:19:00,76.3,66.6,29.98,SE,132,5.0,13.0,72,0.00,,---,0.00,37.00,VWS V14.00,2013-04-18 23:19:00,
2013-04-18 19:20:00,76.2,65.7,29.99,SE,134,7.0,13.0,70,0.00,,---,0.00,33.00,VWS V14.00,2013-04-18 23:20:00,
2013-04-18 19:21:00,76.2,65.7,29.99,SE,131,4.0,13.0,70,0.00,,---,0.00,32.00,VWS V14.00,2013-04-18 23:21:00,
2013-04-18 19:22:00,76.2,66.1,29.98,SE,131,4.0,13.0,71,0.00,,---,0.00,30.00,VWS V14.00,2013-04-18 23:22:00,
2013-04-18 19:23:00,76.2,65.7,29.98,ESE,118,7.0,13.0,70,0.00,,---,0.00,28.00,VWS V14.00,2013-04-18 23:23:00,
2013-04-18 19:24:00,76.2,65.7,29.98,ESE,114,8.0,13.0,70,0.00,,---,0.00,26.00,VWS V14.00,2013-04-18 23:24:00,
2013-04-18 19:25:00,76.1,66.0,29.99,ESE,121,9.0,13.0,71,0.00,,---,0.00,25.00,VWS V14.00,2013-04-18 23:25:00,
2013-04-18 19:26:00,76.1,65.6,29.99,SE,135,5.0,13.0,70,0.00,,---,0.00,23.00,VWS V14.00,2013-04-18 23:26:00,
2013-04-18 19:27:00,76.1,65.6,29.99,ESE,117,9.0,13.0,70,0.00,,---,0.00,21.00,VWS V14.00,2013-04-18 23:27:00,
2013-04-18 19:28:00,76.1,65.6,29.98,ESE,112,9.0,13.0,70,0.00,,---,0.00,21.00,VWS V14.00,2013-04-18 23:28:00,
2013-04-18 19:29:00,76.1,65.6,29.98,SE,137,7.0,13.0,70,0.00,,---,0.00,19.00,VWS V14.00,2013-04-18 23:29:00,
2013-04-18 19:30:00,76.0,65.5,29.98,SE,135,6.0,13.0,70,0.00,,---,0.00,16.00,VWS V14.00,2013-04-18 23:30:00,
2013-04-18 19:31:00,76.0,65.5,29.98,ESE,121,7.0,7.0,70,0.00,,---,0.00,14.00,VWS V14.00,2013-04-18 23:31:00,
2013-04-18 19:32:00,76.0,65.5,29.99,SE,124,8.0,10.0,70,0.00,,---,0.00,12.00,VWS V14.00,2013-04-18 23:32:00,
2013-04-18 19:33:00,75.9,65.4,29.98,ESE,107,9.0,10.0,70,0.00,,---,0.00,12.00,VWS V14.00,2013-04-18 23:33:00,
2013-04-18 19:34:00,75.9,65.4,29.99,SE,125,9.0,11.0,70,0.00,,---,0.00,11.00,VWS V14.00,2013-04-18 23:34:00,
2013-04-18 19:35:00,75.9,65.4,29.99,SE,134,7.0,11.0,70,0.00,,---,0.00,9.00,VWS V14.00,2013-04-18 23:35:00,
2013-04-18 19:36:00,75.9,65.4,29.99,ESE,123,3.0,11.0,70,0.00,,---,0.00,7.00,VWS V14.00,2013-04-18 23:36:00,
2013-04-18 19:37:00,75.9,65.4,29.99,ESE,123,1.0,11.0,70,0.00,,---,0.00,7.00,VWS V14.00,2013-04-18 23:37:00,
2013-04-18 19:38:00,75.9,65.4,29.99,ESE,123,4.0,11.0,70,0.00,,---,0.00,5.00,VWS V14.00,2013-04-18 23:38:00,
2013-04-18 19:39:00,75.8,64.9,29.99,SE,126,6.0,11.0,69,0.00,,---,0.00,5.00,VWS V14.00,2013-04-18 23:39:00,
2013-04-18 19:40:00,75.8,64.9,29.99,ESE,122,7.0,11.0,69,0.00,,---,0.00,5.00,VWS V14.00,2013-04-18 23:40:00,
2013-04-18 19:41:00,75.7,64.8,29.99,SSE,149,8.0,11.0,69,0.00,,---,0.00,0.00,VWS V14.00,2013-04-18 23:41:00,
2013-04-18 19:42:00,75.7,64.8,29.99,SE,133,7.0,11.0,69,0.00,,---,0.00,0.00,VWS V14.00,2013-04-18 23:42:00,
2013-04-18 19:43:00,75.7,64.8,29.99,SE,144,5.0,11.0,69,0.00,,---,0.00,0.00,VWS V14.00,2013-04-18 23:43:00,
2013-04-18 19:44:00,75.7,64.8,29.99,SE,137,4.0,11.0,69,0.00,,---,0.00,0.00,VWS V14.00,2013-04-18 23:44:00,
2013-04-18 19:45:00,75.7,64.8,29.99,ESE,114,6.0,11.0,69,0.00,,---,0.00,0.00,VWS V14.00,2013-04-18 23:45:00,
2013-04-18 19:46:00,75.6,65.1,29.99,ESE,118,5.0,11.0,70,0.00,,---,0.00,0.00,VWS V14.00,2013-04-18 23:46:00,
2013-04-18 19:47:00,75.6,65.1,29.99,ESE,122,5.0,11.0,70,0.00,,---,0.00,5.00,VWS V14.00,2013-04-18 23:47:00,
2013-04-18 19:48:00,75.6,65.1,29.99,ESE,122,14.0,14.0,70,0.00,,---,0.00,0.00,VWS V14.00,2013-04-18 23:48:00,
2013-04-18 19:49:00,75.6,64.7,29.99,SE,127,8.0,14.0,69,0.00,,---,0.00,0.00,VWS V14.00,2013-04-18 23:49:00,
2013-04-18 19:50:00,75.6,64.7,29.99,SE,132,5.0,14.0,69,0.00,,---,0.00,0.00,VWS V14.00,2013-04-18 23:50:00,
2013-04-18 19:51:00,75.6,65.1,29.99,SE,130,7.0,14.0,70,0.00,,---,0.00,0.00,VWS V14.00,2013-04-18 23:51:00,
2013-04-18 19:52:00,75.6,64.7,29.99,ESE,122,7.0,14.0,69,0.00,,---,0.00,0.00,VWS V14.00,2013-04-18 23:52:00,
2013-04-18 19:53:00,75.6,65.1,29.99,SE,127,6.0,14.0,70,0.00,,---,0.00,0.00,VWS V14.00,2013-04-18 23:53:00,
2013-04-18 19:54:00,75.5,64.6,29.99,SE,124,5.0,14.0,69,0.00,,---,0.00,0.00,VWS V14.00,2013-04-18 23:54:00,
2013-04-18 19:55:00,75.5,64.6,29.99,SE,126,3.0,14.0,69,0.00,,---,0.00,0.00,VWS V14.00,2013-04-18 23:55:00,
2013-04-18 19:56:00,75.5,64.6,29.99,SE,129,6.0,14.0,69,0.00,,---,0.00,0.00,VWS V14.00,2013-04-18 23:56:00,
2013-04-18 19:57:00,75.5,64.6,29.99,ESE,121,5.0,14.0,69,0.00,,---,0.00,0.00,VWS V14.00,2013-04-18 23:57:00,
2013-04-18 19:58:00,75.5,65.0,29.99,SE,140,6.0,14.0,70,0.00,,---,0.00,0.00,VWS V14.00,2013-04-18 23:58:00,
2013-04-18 19:59:00,75.4,64.9,29.99,SE,130,4.0,14.0,70,0.00,,---,0.00,0.00,VWS V14.00,2013-04-18 23:59:00,
2013-04-18 20:00:00,75.4,64.9,30.00,SE,140,3.0,14.0,70,0.00,,---,0.00,0.00,VWS V14.00,2013-04-19 00:00:00,
2013-04-18 20:01:00,75.4,64.5,30.00,SE,139,4.0,5.0,69,0.00,,---,0.00,0.00,VWS V14.00,2013-04-19 00:01:00,
2013-04-18 20:02:00,75.3,64.8,29.99,SE,139,6.0,6.0,70,0.00,,---,0.00,0.00,VWS V14.00,2013-04-19 00:02:00,
2013-04-18 20:03:00,75.3,64.8,29.99,SE,129,5.0,6.0,70,0.00,,---,0.00,0.00,VWS V14.00,2013-04-19 00:03:00,
2013-04-18 20:04:00,75.2,64.8,29.99,ESE,114,7.0,8.0,70,0.00,,---,0.00,0.00,VWS V14.00,2013-04-19 00:04:00,
2013-04-18 20:05:00,75.2,64.8,29.99,SE,127,4.0,9.0,70,0.00,,---,0.00,0.00,VWS V14.00,2013-04-19 00:05:00,
2013-04-18 20:06:00,75.2,64.8,29.99,SE,129,8.0,9.0,70,0.00,,---,0.00,0.00,VWS V14.00,2013-04-19 00:06:00,
2013-04-18 20:07:00,75.2,64.8,29.99,SE,125,6.0,9.0,70,0.00,,---,0.00,0.00,VWS V14.00,2013-04-19 00:07:00,
2013-04-18 20:08:00,75.2,64.8,29.99,SE,135,3.0,9.0,70,0.00,,---,0.00,0.00,VWS V14.00,2013-04-19 00:08:00,
2013-04-18 20:09:00,75.2,65.2,29.99,ESE,118,7.0,9.0,71,0.00,,---,0.00,0.00,VWS V14.00,2013-04-19 00:09:00,
2013-04-18 20:10:00,75.1,65.1,29.99,ESE,118,6.0,10.0,71,0.00,,---,0.00,0.00,VWS V14.00,2013-04-19 00:10:00,
2013-04-18 20:11:00,75.1,64.7,29.99,SE,127,9.0,10.0,70,0.00,,---,0.00,0.00,VWS V14.00,2013-04-19 00:11:00,
2013-04-18 20:12:00,75.1,65.1,29.99,SE,131,3.0,10.0,71,0.00,,---,0.00,0.00,VWS V14.00,2013-04-19 00:12:00,
2013-04-18 20:13:00,75.1,64.7,30.00,SE,125,4.0,10.0,70,0.00,,---,0.00,0.00,VWS V14.00,2013-04-19 00:13:00,
2013-04-18 20:14:00,75.1,64.7,30.00,SE,125,4.0,10.0,70,0.00,,---,0.00,0.00,VWS V14.00,2013-04-19 00:14:00,
2013-04-18 20:15:00,75.1,64.7,30.00,SE,139,6.0,10.0,70,0.00,,---,0.00,0.00,VWS V14.00,2013-04-19 00:15:00,
2013-04-18 20:16:00,75.1,64.7,30.00,SE,138,4.0,10.0,70,0.00,,---,0.00,0.00,VWS V14.00,2013-04-19 00:16:00,
2013-04-18 20:17:00,75.0,64.6,30.00,SE,126,6.0,10.0,70,0.00,,---,0.00,0.00,VWS V14.00,2013-04-19 00:17:00,
2013-04-18 20:18:00,75.0,65.0,30.00,SE,126,4.0,10.0,71,0.00,,---,0.00,0.00,VWS V14.00,2013-04-19 00:18:00,
2013-04-18 20:19:00,75.0,64.6,30.00,SE,136,4.0,10.0,70,0.00,,---,0.00,0.00,VWS V14.00,2013-04-19 00:19:00,
2013-04-18 20:20:00,75.0,64.6,30.00,SE,136,5.0,10.0,70,0.00,,---,0.00,0.00,VWS V14.00,2013-04-19 00:20:00,
2013-04-18 20:21:00,74.9,64.5,30.00,SE,135,4.0,10.0,70,0.00,,---,0.00,0.00,VWS V14.00,2013-04-19 00:21:00,
2013-04-18 20:22:00,74.9,64.5,30.00,SE,135,3.0,10.0,70,0.00,,---,0.00,0.00,VWS V14.00,2013-04-19 00:22:00,
2013-04-18 20:23:00,74.9,64.9,30.00,SE,125,5.0,10.0,71,0.00,,---,0.00,0.00,VWS V14.00,2013-04-19 00:23:00,
2013-04-18 20:24:00,74.9,64.9,30.00,SE,145,3.0,10.0,71,0.00,,---,0.00,0.00,VWS V14.00,2013-04-19 00:24:00,
2013-04-18 20:25:00,74.9,64.9,30.00,SE,130,6.0,10.0,71,0.00,,---,0.00,0.00,VWS V14.00,2013-04-19 00:25:00,
2013-04-18 20:26:00,74.9,64.9,30.00,ESE,120,4.0,10.0,71,0.00,,---,0.00,0.00,VWS V14.00,2013-04-19 00:26:00,
2013-04-18 20:27:00,74.9,64.9,30.00,ESE,117,6.0,10.0,71,0.00,,---,0.00,0.00,VWS V14.00,2013-04-19 00:27:00,
2013-04-18 20:28:00,74.9,64.9,30.00,SE,128,7.0,10.0,71,0.00,,---,0.00,0.00,VWS V14.00,2013-04-19 00:28:00,
2013-04-18 20:29:00,74.9,64.9,30.00,SE,131,8.0,10.0,71,0.00,,---,0.00,0.00,VWS V14.00,2013-04-19 00:29:00,
2013-04-18 20:30:00,74.9,64.9,30.00,SE,136,7.0,10.0,71,0.00,,---,0.00,0.00,VWS V14.00,2013-04-19 00:30:00,
2013-04-18 20:31:00,74.9,64.9,30.00,SSE,150,8.0,10.0,71,0.00,,---,0.00,0.00,VWS V14.00,2013-04-19 00:31:00,
2013-04-18 20:32:00,74.9,65.3,30.00,ESE,115,9.0,10.0,72,0.00,,---,0.00,0.00,VWS V14.00,2013-04-19 00:32:00,
2013-04-18 20:33:00,74.9,65.3,30.00,SSE,160,7.0,10.0,72,0.00,,---,0.00,0.00,VWS V14.00,2013-04-19 00:33:00,
2013-04-18 20:34:00,74.9,64.9,30.00,SE,137,7.0,10.0,71,0.00,,---,0.00,0.00,VWS V14.00,2013-04-19 00:34:00,
2013-04-18 20:35:00,74.9,65.3,30.00,SSE,153,6.0,10.0,72,0.00,,---,0.00,0.00,VWS V14.00,2013-04-19 00:35:00,
2013-04-18 20:36:00,74.9,65.3,30.00,SE,127,6.0,10.0,72,0.00,,---,0.00,0.00,VWS V14.00,2013-04-19 00:36:00,
2013-04-18 20:37:00,74.9,65.3,30.00,SE,135,9.0,10.0,72,0.00,,---,0.00,0.00,VWS V14.00,2013-04-19 00:37:00,
2013-04-18 20:38:00,74.8,65.2,30.00,ESE,102,10.0,10.0,72,0.00,,---,0.00,0.00,VWS V14.00,2013-04-19 00:38:00,
2013-04-18 20:39:00,74.9,65.3,30.00,SE,143,5.0,11.0,72,0.00,,---,0.00,0.00,VWS V14.00,2013-04-19 00:39:00,
2013-04-18 20:40:00,74.8,65.2,30.00,ESE,115,6.0,11.0,72,0.00,,---,0.00,0.00,VWS V14.00,2013-04-19 00:40:00,
2013-04-18 20:41:00,74.8,65.2,30.00,ESE,120,6.0,11.0,72,0.00,,---,0.00,0.00,VWS V14.00,2013-04-19 00:41:00,
2013-04-18 20:42:00,74.8,65.2,30.00,SE,131,6.0,11.0,72,0.00,,---,0.00,0.00,VWS V14.00,2013-04-19 00:42:00,
2013-04-18 20:43:00,74.8,65.6,30.00,ESE,111,5.0,11.0,73,0.00,,---,0.00,0.00,VWS V14.00,2013-04-19 00:43:00,
2013-04-18 20:44:00,74.8,65.6,30.00,SSE,148,7.0,11.0,73,0.00,,---,0.00,0.00,VWS V14.00,2013-04-19 00:44:00,
2013-04-18 20:45:00,74.7,65.5,30.00,SE,131,8.0,11.0,73,0.00,,---,0.00,0.00,VWS V14.00,2013-04-19 00:45:00,
2013-04-18 20:46:00,74.7,65.5,30.00,SSE,151,11.0,11.0,73,0.00,,---,0.00,0.00,VWS V14.00,2013-04-19 00:46:00,
2013-04-18 20:47:00,74.7,65.5,30.00,ESE,102,5.0,11.0,73,0.00,,---,0.00,0.00,VWS V14.00,2013-04-19 00:47:00,
2013-04-18 20:48:00,74.7,65.5,30.00,SE,126,4.0,11.0,73,0.00,,---,0.00,0.00,VWS V14.00,2013-04-19 00:48:00,
2013-04-18 20:49:00,74.7,65.5,30.00,ESE,120,8.0,11.0,73,0.00,,---,0.00,0.00,VWS V14.00,2013-04-19 00:49:00,
2013-04-18 20:50:00,74.7,65.5,30.00,ESE,119,8.0,11.0,73,0.00,,---,0.00,0.00,VWS V14.00,2013-04-19 00:50:00,
2013-04-18 20:51:00,74.7,65.9,30.00,SE,139,6.0,11.0,74,0.00,,---,0.00,0.00,VWS V14.00,2013-04-19 00:51:00,
2013-04-18 20:52:00,74.6,65.8,30.00,SE,133,9.0,11.0,74,0.00,,---,0.00,0.00,VWS V14.00,2013-04-19 00:52:00,
2013-04-18 20:53:00,74.6,65.8,30.00,SSE,155,6.0,11.0,74,0.00,,---,0.00,0.00,VWS V14.00,2013-04-19 00:53:00,
2013-04-18 20:54:00,74.6,65.8,30.00,ESE,118,5.0,11.0,74,0.00,,---,0.00,0.00,VWS V14.00,2013-04-19 00:54:00,
2013-04-18 20:55:00,74.6,65.8,30.00,SE,146,6.0,11.0,74,0.00,,---,0.00,0.00,VWS V14.00,2013-04-19 00:55:00,
2013-04-18 20:56:00,74.6,65.8,30.00,SE,145,7.0,11.0,74,0.00,,---,0.00,0.00,VWS V14.00,2013-04-19 00:56:00,
2013-04-18 20:57:00,74.5,65.7,30.00,SE,140,8.0,11.0,74,0.00,,---,0.00,0.00,VWS V14.00,2013-04-19 00:57:00,
2013-04-18 20:58:00,74.5,65.7,30.00,South,170,4.0,11.0,74,0.00,,---,0.00,0.00,VWS V14.00,2013-04-19 00:58:00,
2013-04-18 20:59:00,74.5,66.1,30.00,SE,133,4.0,11.0,75,0.00,,---,0.00,0.00,VWS V14.00,2013-04-19 00:59:00,
2013-04-18 21:00:00,74.5,66.1,30.00,SE,126,4.0,11.0,75,0.00,,---,0.00,0.00,VWS V14.00,2013-04-19 01:00:00,
2013-04-18 21:01:00,74.5,66.1,30.00,SE,126,6.0,8.0,75,0.00,,---,0.00,0.00,VWS V14.00,2013-04-19 01:01:00,
2013-04-18 21:02:00,74.5,66.1,30.00,SE,145,6.0,8.0,75,0.00,,---,0.00,0.00,VWS V14.00,2013-04-19 01:02:00,
2013-04-18 21:03:00,74.4,66.0,30.00,SE,124,7.0,8.0,75,0.00,,---,0.00,0.00,VWS V14.00,2013-04-19 01:03:00,
2013-04-18 21:04:00,74.4,66.0,30.00,ESE,120,8.0,11.0,75,0.00,,---,0.00,0.00,VWS V14.00,2013-04-19 01:04:00,
2013-04-18 21:05:00,74.4,66.0,30.00,SSE,150,6.0,11.0,75,0.00,,---,0.00,0.00,VWS V14.00,2013-04-19 01:05:00,
2013-04-18 21:06:00,74.4,66.0,30.00,SSE,150,1.0,11.0,75,0.00,,---,0.00,0.00,VWS V14.00,2013-04-19 01:06:00,
2013-04-18 21:07:00,74.4,66.0,30.00,ESE,116,8.0,11.0,75,0.00,,---,0.00,0.00,VWS V14.00,2013-04-19 01:07:00,
2013-04-18 21:08:00,74.3,65.9,30.00,SE,125,8.0,11.0,75,0.00,,---,0.00,0.00,VWS V14.00,2013-04-19 01:08:00,
2013-04-18 21:09:00,74.3,65.9,30.00,SSE,166,7.0,11.0,75,0.00,,---,0.00,0.00,VWS V14.00,2013-04-19 01:09:00,
2013-04-18 21:10:00,74.3,65.9,30.00,SE,134,6.0,11.0,75,0.00,,---,0.00,0.00,VWS V14.00,2013-04-19 01:10:00,
2013-04-18 21:11:00,74.3,66.2,30.00,SSE,150,5.0,11.0,76,0.00,,---,0.00,0.00,VWS V14.00,2013-04-19 01:11:00,
2013-04-18 21:12:00,74.3,65.9,30.00,SSE,150,6.0,11.0,75,0.00,,---,0.00,0.00,VWS V14.00,2013-04-19 01:12:00,
2013-04-18 21:13:00,74.3,66.2,30.00,SE,137,3.0,11.0,76,0.00,,---,0.00,0.00,VWS V14.00,2013-04-19 01:13:00,
2013-04-18 21:14:00,74.3,66.2,30.00,SSE,154,7.0,11.0,76,0.00,,---,0.00,0.00,VWS V14.00,2013-04-19 01:14:00,
2013-04-18 21:15:00,74.3,66.2,30.00,SE,135,2.0,11.0,76,0.00,,---,0.00,0.00,VWS V14.00,2013-04-19 01:15:00,
2013-04-18 21:16:00,74.3,66.2,30.00,SE,135,4.0,11.0,76,0.00,,---,0.00,0.00,VWS V14.00,2013-04-19 01:16:00,
2013-04-18 21:17:00,74.3,66.2,30.01,SSE,164,7.0,11.0,76,0.00,,---,0.00,0.00,VWS V14.00,2013-04-19 01:17:00,
2013-04-18 21:18:00,74.3,66.2,30.01,ESE,119,7.0,11.0,76,0.00,,---,0.00,0.00,VWS V14.00,2013-04-19 01:18:00,
2013-04-18 21:19:00,74.3,66.2,30.01,ESE,123,10.0,11.0,76,0.00,,---,0.00,0.00,VWS V14.00,2013-04-19 01:19:00,
2013-04-18 21:20:00,74.3,66.6,30.01,South,170,4.0,11.0,77,0.00,,---,0.00,0.00,VWS V14.00,2013-04-19 01:20:00,
2013-04-18 21:21:00,74.2,66.5,30.01,South,170,4.0,11.0,77,0.00,,---,0.00,0.00,VWS V14.00,2013-04-19 01:21:00,
2013-04-18 21:22:00,74.2,66.5,30.01,SE,128,4.0,11.0,77,0.00,,---,0.00,0.00,VWS V14.00,2013-04-19 01:22:00,
2013-04-18 21:23:00,74.2,66.5,30.01,SE,134,4.0,11.0,77,0.00,,---,0.00,0.00,VWS V14.00,2013-04-19 01:23:00,
2013-04-18 21:24:00,74.2,66.5,30.01,SE,142,5.0,11.0,77,0.00,,---,0.00,0.00,VWS V14.00,2013-04-19 01:24:00,
2013-04-18 21:25:00,74.2,66.5,30.01,SE,142,2.0,11.0,77,0.00,,---,0.00,0.00,VWS V14.00,2013-04-19 01:25:00,
2013-04-18 21:26:00,74.2,66.5,30.01,SE,126,5.0,11.0,77,0.00,,---,0.00,0.00,VWS V14.00,2013-04-19 01:26:00,
2013-04-18 21:27:00,74.2,66.5,30.01,SE,133,5.0,11.0,77,0.00,,---,0.00,0.00,VWS V14.00,2013-04-19 01:27:00,
2013-04-18 21:28:00,74.2,66.5,30.01,SE,135,5.0,11.0,77,0.00,,---,0.00,0.00,VWS V14.00,2013-04-19 01:28:00,
2013-04-18 21:29:00,74.2,66.5,30.01,SE,135,5.0,11.0,77,0.00,,---,0.00,0.00,VWS V14.00,2013-04-19 01:29:00,
2013-04-18 21:30:00,74.2,66.5,30.01,SE,135,2.0,11.0,77,0.00,,---,0.00,0.00,VWS V14.00,2013-04-19 01:30:00,
2013-04-18 21:31:00,74.2,66.5,30.01,SE,129,8.0,8.0,77,0.00,,---,0.00,0.00,VWS V14.00,2013-04-19 01:31:00,
2013-04-18 21:32:00,74.2,66.9,30.01,SE,126,6.0,8.0,78,0.00,,---,0.00,0.00,VWS V14.00,2013-04-19 01:32:00,
2013-04-18 21:33:00,74.2,66.9,30.01,SE,131,4.0,9.0,78,0.00,,---,0.00,0.00,VWS V14.00,2013-04-19 01:33:00,
2013-04-18 21:34:00,74.1,66.8,30.01,SE,137,7.0,9.0,78,0.00,,---,0.00,0.00,VWS V14.00,2013-04-19 01:34:00,
2013-04-18 21:35:00,74.1,66.8,30.01,ESE,114,4.0,9.0,78,0.00,,---,0.00,0.00,VWS V14.00,2013-04-19 01:35:00,
2013-04-18 21:36:00,74.1,66.8,30.01,SE,141,2.0,9.0,78,0.00,,---,0.00,0.00,VWS V14.00,2013-04-19 01:36:00,
2013-04-18 21:37:00,74.1,66.8,30.01,SE,140,3.0,9.0,78,0.00,,---,0.00,0.00,VWS V14.00,2013-04-19 01:37:00,
2013-04-18 21:38:00,74.0,66.7,30.01,South,175,6.0,9.0,78,0.00,,---,0.00,0.00,VWS V14.00,2013-04-19 01:38:00,
2013-04-18 21:39:00,74.0,66.7,30.01,South,171,2.0,9.0,78,0.00,,---,0.00,0.00,VWS V14.00,2013-04-19 01:39:00,
2013-04-18 21:40:00,74.0,66.7,30.01,South,170,4.0,9.0,78,0.00,,---,0.00,0.00,VWS V14.00,2013-04-19 01:40:00,
2013-04-18 21:41:00,73.9,66.6,30.01,SE,131,5.0,9.0,78,0.00,,---,0.00,0.00,VWS V14.00,2013-04-19 01:41:00,
2013-04-18 21:42:00,73.9,67.0,30.01,SE,135,5.0,9.0,79,0.00,,---,0.00,0.00,VWS V14.00,2013-04-19 01:42:00,
2013-04-18 21:43:00,73.9,67.0,30.01,ESE,122,3.0,9.0,79,0.00,,---,0.00,0.00,VWS V14.00,2013-04-19 01:43:00,
2013-04-18 21:44:00,73.9,67.0,30.01,SE,125,4.0,9.0,79,0.00,,---,0.00,0.00,VWS V14.00,2013-04-19 01:44:00,
2013-04-18 21:45:00,73.9,67.0,30.01,ESE,118,4.0,9.0,79,0.00,,---,0.00,0.00,VWS V14.00,2013-04-19 01:45:00,
2013-04-18 21:46:00,73.9,67.0,30.01,SSE,151,6.0,9.0,79,0.00,,---,0.00,0.00,VWS V14.00,2013-04-19 01:46:00,
2013-04-18 21:47:00,73.9,67.0,30.01,SSE,149,2.0,9.0,79,0.00,,---,0.00,0.00,VWS V14.00,2013-04-19 01:47:00,
2013-04-18 21:48:00,73.9,67.0,30.01,SSE,149,5.0,9.0,79,0.00,,---,0.00,0.00,VWS V14.00,2013-04-19 01:48:00,
2013-04-18 21:49:00,73.9,67.0,30.01,SE,128,6.0,9.0,79,0.00,,---,0.00,0.00,VWS V14.00,2013-04-19 01:49:00,
2013-04-18 21:50:00,73.8,66.9,30.02,SE,127,6.0,9.0,79,0.00,,---,0.00,0.00,VWS V14.00,2013-04-19 01:50:00,
2013-04-18 21:51:00,73.8,66.9,30.02,SE,144,4.0,9.0,79,0.00,,---,0.00,0.00,VWS V14.00,2013-04-19 01:51:00,
2013-04-18 21:52:00,73.8,66.9,30.02,SE,126,7.0,9.0,79,0.00,,---,0.00,0.00,VWS V14.00,2013-04-19 01:52:00,
2013-04-18 21:53:00,73.8,66.9,30.02,SE,126,4.0,9.0,79,0.00,,---,0.00,0.00,VWS V14.00,2013-04-19 01:53:00,
2013-04-18 21:54:00,73.8,66.9,30.02,SE,130,2.0,9.0,79,0.00,,---,0.00,0.00,VWS V14.00,2013-04-19 01:54:00,
2013-04-18 21:55:00,73.8,66.9,30.02,SE,126,6.0,9.0,79,0.00,,---,0.00,0.00,VWS V14.00,2013-04-19 01:55:00,
2013-04-18 21:56:00,73.8,66.9,30.02,ESE,123,3.0,9.0,79,0.00,,---,0.00,0.00,VWS V14.00,2013-04-19 01:56:00,
2013-04-18 21:57:00,73.8,67.2,30.02,ESE,123,3.0,9.0,80,0.00,,---,0.00,0.00,VWS V14.00,2013-04-19 01:57:00,
2013-04-18 21:58:00,73.8,67.2,30.02,SE,128,3.0,9.0,80,0.00,,---,0.00,0.00,VWS V14.00,2013-04-19 01:58:00,
2013-04-18 21:59:00,73.8,66.9,30.01,SE,133,1.0,9.0,79,0.00,,---,0.00,0.00,VWS V14.00,2013-04-19 01:59:00,
2013-04-18 22:00:00,73.8,67.2,30.02,SE,133,2.0,9.0,80,0.00,,---,0.00,0.00,VWS V14.00,2013-04-19 02:00:00,
2013-04-18 22:01:00,73.7,67.2,30.02,SE,126,4.0,5.0,80,0.00,,---,0.00,0.00,VWS V14.00,2013-04-19 02:01:00,
2013-04-18 22:02:00,73.7,67.2,30.01,SE,126,2.0,5.0,80,0.00,,---,0.00,0.00,VWS V14.00,2013-04-19 02:02:00,
2013-04-18 22:03:00,73.7,67.2,30.02,SE,135,4.0,8.0,80,0.00,,---,0.00,0.00,VWS V14.00,2013-04-19 02:03:00,
2013-04-18 22:04:00,73.6,67.1,30.02,SE,134,4.0,8.0,80,0.00,,---,0.00,0.00,VWS V14.00,2013-04-19 02:04:00,
2013-04-18 22:05:00,73.6,67.1,30.01,SSE,158,5.0,8.0,80,0.00,,---,0.00,0.00,VWS V14.00,2013-04-19 02:05:00,
2013-04-18 22:06:00,73.6,67.1,30.02,SSE,153,5.0,8.0,80,0.00,,---,0.00,0.00,VWS V14.00,2013-04-19 02:06:00,
2013-04-18 22:07:00,73.6,67.4,30.01,SE,125,6.0,8.0,81,0.00,,---,0.00,0.00,VWS V14.00,2013-04-19 02:07:00,
2013-04-18 22:08:00,73.6,67.1,30.01,SE,139,7.0,8.0,80,0.00,,---,0.00,0.00,VWS V14.00,2013-04-19 02:08:00,
2013-04-18 22:09:00,73.6,67.1,30.02,SE,138,3.0,8.0,80,0.00,,---,0.00,0.00,VWS V14.00,2013-04-19 02:09:00,
2013-04-18 22:10:00,73.6,67.1,30.02,ESE,123,6.0,9.0,80,0.00,,---,0.00,0.00,VWS V14.00,2013-04-19 02:10:00,
2013-04-18 22:11:00,73.6,67.1,30.02,ESE,118,3.0,9.0,80,0.00,,---,0.00,0.00,VWS V14.00,2013-04-19 02:11:00,
2013-04-18 22:12:00,73.6,67.1,30.02,SSE,160,7.0,10.0,80,0.00,,---,0.00,0.00,VWS V14.00,2013-04-19 02:12:00,
2013-04-18 22:13:00,73.6,67.1,30.02,SSE,160,4.0,10.0,80,0.00,,---,0.00,0.00,VWS V14.00,2013-04-19 02:13:00,
2013-04-18 22:14:00,73.5,67.0,30.02,SSE,160,3.0,10.0,80,0.00,,---,0.00,0.00,VWS V14.00,2013-04-19 02:14:00,
2013-04-18 22:15:00,73.5,67.0,30.02,SSE,160,0.0,10.0,80,0.00,,---,0.00,0.00,VWS V14.00,2013-04-19 02:15:00,
2013-04-18 22:16:00,73.5,67.3,30.02,SSE,157,6.0,10.0,81,0.00,,---,0.00,0.00,VWS V14.00,2013-04-19 02:16:00,
2013-04-18 22:17:00,73.5,67.3,30.02,SSE,150,6.0,10.0,81,0.00,,---,0.00,0.00,VWS V14.00,2013-04-19 02:17:00,
2013-04-18 22:18:00,73.5,67.3,30.02,SSE,150,2.0,10.0,81,0.00,,---,0.00,0.00,VWS V14.00,2013-04-19 02:18:00,
2013-04-18 22:19:00,73.5,67.3,30.02,SSE,150,0.0,10.0,81,0.00,,---,0.00,0.00,VWS V14.00,2013-04-19 02:19:00,
2013-04-18 22:20:00,73.5,67.3,30.02,SSE,150,5.0,10.0,81,0.00,,---,0.00,0.00,VWS V14.00,2013-04-19 02:20:00,
2013-04-18 22:21:00,73.5,67.3,30.02,SSE,150,3.0,10.0,81,0.00,,---,0.00,0.00,VWS V14.00,2013-04-19 02:21:00,
2013-04-18 22:22:00,73.5,67.3,30.02,SSE,150,2.0,10.0,81,0.00,,---,0.00,0.00,VWS V14.00,2013-04-19 02:22:00,
2013-04-18 22:23:00,73.4,67.2,30.02,SSE,150,2.0,10.0,81,0.00,,---,0.00,0.00,VWS V14.00,2013-04-19 02:23:00,
2013-04-18 22:24:00,73.4,67.2,30.02,South,185,2.0,10.0,81,0.00,,---,0.00,0.00,VWS V14.00,2013-04-19 02:24:00,
2013-04-18 22:25:00,73.4,67.2,30.02,South,185,3.0,10.0,81,0.00,,---,0.00,0.00,VWS V14.00,2013-04-19 02:25:00,
2013-04-18 22:26:00,73.4,67.2,30.02,South,185,4.0,10.0,81,0.00,,---,0.00,0.00,VWS V14.00,2013-04-19 02:26:00,
2013-04-18 22:27:00,73.4,67.2,30.02,SSE,166,5.0,10.0,81,0.00,,---,0.00,0.00,VWS V14.00,2013-04-19 02:27:00,
2013-04-18 22:28:00,73.4,67.2,30.02,SSE,160,3.0,10.0,81,0.00,,---,0.00,0.00,VWS V14.00,2013-04-19 02:28:00,
2013-04-18 22:29:00,73.4,67.2,30.02,SSE,160,0.0,10.0,81,0.00,,---,0.00,0.00,VWS V14.00,2013-04-19 02:29:00,
2013-04-18 22:30:00,73.4,67.2,30.02,South,175,5.0,10.0,81,0.00,,---,0.00,0.00,VWS V14.00,2013-04-19 02:30:00,
2013-04-18 22:31:00,73.4,67.6,30.02,SSW,202,3.0,6.0,82,0.00,,---,0.00,0.00,VWS V14.00,2013-04-19 02:31:00,
2013-04-18 22:32:00,73.4,67.6,30.02,SSW,202,2.0,6.0,82,0.00,,---,0.00,0.00,VWS V14.00,2013-04-19 02:32:00,
2013-04-18 22:33:00,73.4,67.6,30.02,SE,125,6.0,8.0,82,0.00,,---,0.00,0.00,VWS V14.00,2013-04-19 02:33:00,
2013-04-18 22:34:00,73.4,67.6,30.02,SE,130,6.0,8.0,82,0.00,,---,0.00,0.00,VWS V14.00,2013-04-19 02:34:00,
2013-04-18 22:35:00,73.4,67.6,30.02,SE,139,3.0,8.0,82,0.00,,---,0.00,0.00,VWS V14.00,2013-04-19 02:35:00,
2013-04-18 22:36:00,73.4,67.6,30.02,SE,136,3.0,8.0,82,0.00,,---,0.00,0.00,VWS V14.00,2013-04-19 02:36:00,
2013-04-18 22:37:00,73.4,67.6,30.02,SE,134,3.0,8.0,82,0.00,,---,0.00,0.00,VWS V14.00,2013-04-19 02:37:00,
2013-04-18 22:38:00,73.4,67.6,30.02,SE,126,7.0,8.0,82,0.00,,---,0.00,0.00,VWS V14.00,2013-04-19 02:38:00,
2013-04-18 22:39:00,73.4,67.6,30.02,SE,126,2.0,8.0,82,0.00,,---,0.00,0.00,VWS V14.00,2013-04-19 02:39:00,
2013-04-18 22:40:00,73.4,67.6,30.02,SE,126,5.0,8.0,82,0.00,,---,0.00,0.00,VWS V14.00,2013-04-19 02:40:00,
2013-04-18 22:41:00,73.4,67.6,30.01,SE,126,3.0,8.0,82,0.00,,---,0.00,0.00,VWS V14.00,2013-04-19 02:41:00,
2013-04-18 22:42:00,73.3,67.5,30.01,SE,126,3.0,8.0,82,0.00,,---,0.00,0.00,VWS V14.00,2013-04-19 02:42:00,
2013-04-18 22:43:00,73.3,67.5,30.01,SE,128,1.0,8.0,82,0.00,,---,0.00,0.00,VWS V14.00,2013-04-19 02:43:00,
2013-04-18 22:44:00,73.3,67.5,30.01,SE,130,2.0,8.0,82,0.00,,---,0.00,0.00,VWS V14.00,2013-04-19 02:44:00,
2013-04-18 22:45:00,73.3,67.5,30.01,SE,134,4.0,8.0,82,0.00,,---,0.00,0.00,VWS V14.00,2013-04-19 02:45:00,
2013-04-18 22:46:00,73.2,67.4,30.01,SE,141,2.0,8.0,82,0.00,,---,0.00,0.00,VWS V14.00,2013-04-19 02:46:00,
2013-04-18 22:47:00,73.2,67.4,30.01,SE,141,5.0,8.0,82,0.00,,---,0.00,0.00,VWS V14.00,2013-04-19 02:47:00,
2013-04-18 22:48:00,73.2,67.7,30.01,SE,141,3.0,8.0,83,0.00,,---,0.00,0.00,VWS V14.00,2013-04-19 02:48:00,
2013-04-18 22:49:00,73.2,67.7,30.01,SE,141,3.0,8.0,83,0.00,,---,0.00,0.00,VWS V14.00,2013-04-19 02:49:00,
2013-04-18 22:50:00,73.2,67.7,30.01,SE,141,4.0,8.0,83,0.00,,---,0.00,0.00,VWS V14.00,2013-04-19 02:50:00,
2013-04-18 22:51:00,73.2,67.7,30.02,SE,141,3.0,8.0,83,0.00,,---,0.00,0.00,VWS V14.00,2013-04-19 02:51:00,
2013-04-18 22:52:00,73.2,67.7,30.02,SSE,153,5.0,8.0,83,0.00,,---,0.00,0.00,VWS V14.00,2013-04-19 02:52:00,
2013-04-18 22:53:00,73.2,67.7,30.02,SSE,153,2.0,8.0,83,0.00,,---,0.00,0.00,VWS V14.00,2013-04-19 02:53:00,
2013-04-18 22:54:00,73.2,67.7,30.02,SE,141,8.0,8.0,83,0.00,,---,0.00,0.00,VWS V14.00,2013-04-19 02:54:00,
2013-04-18 22:55:00,73.2,67.7,30.01,SSE,147,3.0,8.0,83,0.00,,---,0.00,0.00,VWS V14.00,2013-04-19 02:55:00,
2013-04-18 22:56:00,73.2,67.7,30.01,SSE,156,2.0,8.0,83,0.00,,---,0.00,0.00,VWS V14.00,2013-04-19 02:56:00,
2013-04-18 22:57:00,73.2,67.7,30.02,SSE,156,5.0,8.0,83,0.00,,---,0.00,0.00,VWS V14.00,2013-04-19 02:57:00,
2013-04-18 22:58:00,73.2,67.7,30.01,SSE,153,1.0,8.0,83,0.00,,---,0.00,0.00,VWS V14.00,2013-04-19 02:58:00,
2013-04-18 22:59:00,73.2,67.7,30.01,SSE,153,2.0,8.0,83,0.00,,---,0.00,0.00,VWS V14.00,2013-04-19 02:59:00,
2013-04-18 23:00:00,73.2,67.7,30.02,SSE,153,4.0,8.0,83,0.00,,---,0.00,0.00,VWS V14.00,2013-04-19 03:00:00,
2013-04-18 23:01:00,73.2,67.7,30.01,SSE,148,4.0,6.0,83,0.00,,---,0.00,0.00,VWS V14.00,2013-04-19 03:01:00,
2013-04-18 23:02:00,73.2,67.7,30.01,SSE,147,2.0,6.0,83,0.00,,---,0.00,0.00,VWS V14.00,2013-04-19 03:02:00,
2013-04-18 23:03:00,73.2,67.7,30.01,SSE,147,3.0,6.0,83,0.00,,---,0.00,0.00,VWS V14.00,2013-04-19 03:03:00,
2013-04-18 23:04:00,73.2,67.7,30.02,SSE,147,5.0,6.0,83,0.00,,---,0.00,0.00,VWS V14.00,2013-04-19 03:04:00,
2013-04-18 23:05:00,73.2,67.7,30.02,SSE,147,0.0,6.0,83,0.00,,---,0.00,0.00,VWS V14.00,2013-04-19 03:05:00,
2013-04-18 23:06:00,73.2,67.7,30.01,SSE,147,4.0,6.0,83,0.00,,---,0.00,0.00,VWS V14.00,2013-04-19 03:06:00,
2013-04-18 23:07:00,73.2,67.7,30.02,SSE,150,4.0,6.0,83,0.00,,---,0.00,0.00,VWS V14.00,2013-04-19 03:07:00,
2013-04-18 23:08:00,73.2,67.7,30.02,SSE,150,1.0,6.0,83,0.00,,---,0.00,0.00,VWS V14.00,2013-04-19 03:08:00,
2013-04-18 23:09:00,73.2,67.7,30.01,SSE,150,4.0,6.0,83,0.00,,---,0.00,0.00,VWS V14.00,2013-04-19 03:09:00,
2013-04-18 23:10:00,73.2,67.7,30.01,SSE,150,1.0,6.0,83,0.00,,---,0.00,0.00,VWS V14.00,2013-04-19 03:10:00,
2013-04-18 23:11:00,73.2,67.7,30.01,SSE,166,3.0,7.0,83,0.00,,---,0.00,0.00,VWS V14.00,2013-04-19 03:11:00,
2013-04-18 23:12:00,73.2,67.7,30.01,SSE,152,4.0,7.0,83,0.00,,---,0.00,0.00,VWS V14.00,2013-04-19 03:12:00,
2013-04-18 23:13:00,73.2,67.7,30.02,SSE,160,4.0,7.0,83,0.00,,---,0.00,0.00,VWS V14.00,2013-04-19 03:13:00,
2013-04-18 23:14:00,73.2,67.7,30.01,SSE,160,3.0,7.0,83,0.00,,---,0.00,0.00,VWS V14.00,2013-04-19 03:14:00,
2013-04-18 23:15:00,73.2,68.1,30.01,SSE,157,5.0,7.0,84,0.00,,---,0.00,0.00,VWS V14.00,2013-04-19 03:15:00,
2013-04-18 23:16:00,73.2,68.1,30.02,SE,131,1.0,7.0,84,0.00,,---,0.00,0.00,VWS V14.00,2013-04-19 03:16:00,
2013-04-18 23:17:00,73.2,67.7,30.01,SE,131,0.0,7.0,83,0.00,,---,0.00,0.00,VWS V14.00,2013-04-19 03:17:00,
2013-04-18 23:18:00,73.2,68.1,30.01,SE,131,2.0,7.0,84,0.00,,---,0.00,0.00,VWS V14.00,2013-04-19 03:18:00,
2013-04-18 23:19:00,73.2,68.1,30.01,SE,131,1.0,7.0,84,0.00,,---,0.00,0.00,VWS V14.00,2013-04-19 03:19:00,
2013-04-18 23:20:00,73.2,68.1,30.01,SE,131,2.0,7.0,84,0.00,,---,0.00,0.00,VWS V14.00,2013-04-19 03:20:00,
2013-04-18 23:21:00,73.2,68.1,30.01,SE,131,1.0,7.0,84,0.00,,---,0.00,0.00,VWS V14.00,2013-04-19 03:21:00,
2013-04-18 23:22:00,73.1,68.0,30.01,SE,135,4.0,7.0,84,0.00,,---,0.00,0.00,VWS V14.00,2013-04-19 03:22:00,
2013-04-18 23:23:00,73.2,68.1,30.01,SE,135,3.0,7.0,84,0.00,,---,0.00,0.00,VWS V14.00,2013-04-19 03:23:00,
2013-04-18 23:24:00,73.2,68.1,30.01,SE,135,4.0,7.0,84,0.00,,---,0.00,0.00,VWS V14.00,2013-04-19 03:24:00,
2013-04-18 23:25:00,73.1,68.0,30.01,ESE,112,7.0,8.0,84,0.00,,---,0.00,0.00,VWS V14.00,2013-04-19 03:25:00,
2013-04-18 23:26:00,73.1,68.0,30.01,ESE,116,5.0,8.0,84,0.00,,---,0.00,0.00,VWS V14.00,2013-04-19 03:26:00,
2013-04-18 23:27:00,73.2,68.1,30.01,SE,132,6.0,8.0,84,0.00,,---,0.00,0.00,VWS V14.00,2013-04-19 03:27:00,
2013-04-18 23:28:00,73.2,68.1,30.01,SSE,158,4.0,8.0,84,0.00,,---,0.00,0.00,VWS V14.00,2013-04-19 03:28:00,
2013-04-18 23:29:00,73.2,68.1,30.00,SE,132,5.0,8.0,84,0.00,,---,0.00,0.00,VWS V14.00,2013-04-19 03:29:00,
2013-04-18 23:30:00,73.2,68.1,30.01,SE,133,5.0,8.0,84,0.00,,---,0.00,0.00,VWS V14.00,2013-04-19 03:30:00,
2013-04-18 23:31:00,73.1,68.0,30.01,SE,133,3.0,6.0,84,0.00,,---,0.00,0.00,VWS V14.00,2013-04-19 03:31:00,
2013-04-18 23:32:00,73.1,68.0,30.00,SE,133,2.0,6.0,84,0.00,,---,0.00,0.00,VWS V14.00,2013-04-19 03:32:00,
2013-04-18 23:33:00,73.1,68.0,30.01,SE,133,3.0,6.0,84,0.00,,---,0.00,0.00,VWS V14.00,2013-04-19 03:33:00,
2013-04-18 23:34:00,73.1,68.0,30.01,SE,133,1.0,6.0,84,0.00,,---,0.00,0.00,VWS V14.00,2013-04-19 03:34:00,
2013-04-18 23:35:00,73.1,68.0,30.01,SE,133,2.0,6.0,84,0.00,,---,0.00,0.00,VWS V14.00,2013-04-19 03:35:00,
2013-04-18 23:36:00,73.0,67.9,30.01,SE,126,5.0,6.0,84,0.00,,---,0.00,0.00,VWS V14.00,2013-04-19 03:36:00,
2013-04-18 23:37:00,73.1,68.0,30.01,SE,125,5.0,6.0,84,0.00,,---,0.00,0.00,VWS V14.00,2013-04-19 03:37:00,
2013-04-18 23:38:00,73.0,67.9,30.01,SE,139,4.0,6.0,84,0.00,,---,0.00,0.00,VWS V14.00,2013-04-19 03:38:00,
2013-04-18 23:39:00,73.0,68.2,30.01,SE,139,2.0,6.0,85,0.00,,---,0.00,0.00,VWS V14.00,2013-04-19 03:39:00,
2013-04-18 23:40:00,73.0,68.2,30.01,South,175,5.0,6.0,85,0.00,,---,0.00,0.00,VWS V14.00,2013-04-19 03:40:00,
2013-04-18 23:41:00,73.0,67.9,30.01,SSE,157,5.0,6.0,84,0.00,,---,0.00,0.00,VWS V14.00,2013-04-19 03:41:00,
2013-04-18 23:42:00,73.0,67.9,30.01,SSE,147,3.0,8.0,84,0.00,,---,0.00,0.00,VWS V14.00,2013-04-19 03:42:00,
2013-04-18 23:43:00,73.0,67.9,30.01,SSE,147,2.0,8.0,84,0.00,,---,0.00,0.00,VWS V14.00,2013-04-19 03:43:00,
2013-04-18 23:44:00,73.0,67.9,30.01,SSE,147,4.0,8.0,84,0.00,,---,0.00,0.00,VWS V14.00,2013-04-19 03:44:00,
2013-04-18 23:45:00,73.0,68.2,30.01,SE,129,3.0,8.0,85,0.00,,---,0.00,0.00,VWS V14.00,2013-04-19 03:45:00,
2013-04-18 23:46:00,73.0,68.2,30.01,SE,129,5.0,8.0,85,0.00,,---,0.00,0.00,VWS V14.00,2013-04-19 03:46:00,
2013-04-18 23:47:00,73.0,68.2,30.01,SE,128,5.0,8.0,85,0.00,,---,0.00,0.00,VWS V14.00,2013-04-19 03:47:00,
2013-04-18 23:48:00,73.0,68.2,30.01,SE,128,3.0,8.0,85,0.00,,---,0.00,0.00,VWS V14.00,2013-04-19 03:48:00,
2013-04-18 23:49:00,73.0,68.2,30.01,SE,131,3.0,8.0,85,0.00,,---,0.00,0.00,VWS V14.00,2013-04-19 03:49:00,
2013-04-18 23:50:00,73.0,68.2,30.01,SE,134,4.0,8.0,85,0.00,,---,0.00,0.00,VWS V14.00,2013-04-19 03:50:00,
2013-04-18 23:51:00,73.0,68.2,30.01,SSE,150,5.0,8.0,85,0.00,,---,0.00,0.00,VWS V14.00,2013-04-19 03:51:00,
2013-04-18 23:52:00,73.0,68.2,30.01,SE,132,7.0,8.0,85,0.00,,---,0.00,0.00,VWS V14.00,2013-04-19 03:52:00,
2013-04-18 23:53:00,73.0,68.2,30.01,SSE,160,4.0,8.0,85,0.00,,---,0.00,0.00,VWS V14.00,2013-04-19 03:53:00,
2013-04-18 23:54:00,73.0,68.2,30.01,SSE,147,6.0,8.0,85,0.00,,---,0.00,0.00,VWS V14.00,2013-04-19 03:54:00,
2013-04-18 23:55:00,73.0,68.2,30.01,SSE,157,5.0,8.0,85,0.00,,---,0.00,0.00,VWS V14.00,2013-04-19 03:55:00,
2013-04-18 23:56:00,73.0,68.2,30.01,SSE,156,4.0,8.0,85,0.00,,---,0.00,0.00,VWS V14.00,2013-04-19 03:56:00,
2013-04-18 23:57:00,73.0,68.2,30.01,SSE,156,3.0,8.0,85,0.00,,---,0.00,0.00,VWS V14.00,2013-04-19 03:57:00,
2013-04-18 23:58:00,73.0,68.2,30.01,SSE,156,1.0,8.0,85,0.00,,---,0.00,0.00,VWS V14.00,2013-04-19 03:58:00,
2013-04-18 23:59:00,73.0,68.2,30.01,SSE,156,0.0,8.0,85,0.00,,---,0.00,0.00,VWS V14.00,2013-04-19 03:59:00,